[[{"header":{"parameterUnit":"m.s-1","parameterCategory":1,"la1":30.6,"la2":28.766,"lo1":-90.7593,"lo2":-88.6598,"dy":0.0162,"dx":0.0183,"nx":116,"ny":114,"refTime":"2023-03-07T18:00:00:Z","depth":0,"parameterNumber":2,"parameterNumberName":"U-component_of_WINDS"},"data":[0.0,0.0,0.0,0.0,0.0,0.0,0.0,0.0,0.0,0.0,0.0,0.0,0.0,0.0,0.0,0.0,0.0,0.0,0.0,0.0,0.0,0.0,0.0,0.0,0.0,0.0,0.0,0.0,0.0,0.0,0.0,0.0,0.0,0.0,0.0,0.0,0.0,0.0,0.0,0.0,0.0,0.0,0.0,0.0,0.0,0.0,0.0,0.0,0.0,0.0,0.0,0.0,0.0,0.0,0.0,0.0,0.0,0.0,0.0,0.0,0.0,0.0,0.0,0.0,0.0,0.0,0.0,0.0,0.0,0.0,0.0,0.0,0.0,0.0,0.0,0.0,0.0,0.0,0.0,0.0,0.0,0.0,0.0,0.0,0.0,0.0,0.0,0.0,0.0,0.0,0.0,0.0,0.0,0.0,0.0,0.0,0.0,0.0,0.0,0.0,0.0,0.0,0.0,0.0,0.0,0.0,0.0,0.0,0.0,0.0,0.0,0.0,0.0,0.0,0.0,0.0,0.0,0.0,0.0,0.0,0.0,0.0,0.0,0.0,0.0,0.0,0.0,0.0,0.0,0.0,0.0,0.0,0.0,0.0,0.0,0.0,0.0,0.0,0.0,0.0,0.0,0.0,0.0,0.0,0.0,0.0,0.0,0.0,0.0,0.0,0.0,0.0,0.0,0.0,0.0,0.0,0.0,0.0,0.0,0.0,0.0,0.0,0.0,0.0,0.0,0.0,0.0,0.0,0.0,0.0,0.0,0.0,0.0,0.0,0.0,0.0,0.0,0.0,0.0,0.0,0.0,0.0,0.0,0.0,0.0,0.0,0.0,0.0,0.0,0.0,0.0,0.0,0.0,0.0,0.0,0.0,0.0,0.0,0.0,0.0,0.0,0.0,0.0,0.0,0.0,0.0,0.0,0.0,0.0,0.0,0.0,0.0,0.0,0.0,0.0,0.0,0.0,0.0,0.0,0.0,0.0,0.0,0.0,0.0,0.0,0.0,0.0,0.0,0.0,0.0,0.0,0.0,0.0,0.0,0.0,0.0,0.0,0.0,0.0,0.0,0.0,0.0,0.0,0.0,0.0,0.0,0.0,0.0,0.0,0.0,0.0,0.0,0.0,0.0,0.0,0.0,0.0,0.0,0.0,0.0,0.0,0.0,0.0,0.0,0.0,0.0,0.0,0.0,0.0,0.0,0.0,0.0,0.0,0.0,0.0,0.0,0.0,0.0,0.0,0.0,0.0,0.0,0.0,0.0,0.0,0.0,0.0,0.0,0.0,0.0,0.0,0.0,0.0,0.0,0.0,0.0,0.0,0.0,0.0,0.0,0.0,0.0,0.0,0.0,0.0,0.0,0.0,0.0,0.0,0.0,0.0,0.0,0.0,0.0,0.0,0.0,0.0,0.0,0.0,0.0,0.0,0.0,0.0,0.0,0.0,0.0,0.0,0.0,0.0,0.0,0.0,0.0,0.0,0.0,0.0,0.0,0.0,0.0,0.0,0.0,0.0,0.0,0.0,0.0,0.0,0.0,0.0,0.0,0.0,0.0,0.0,0.0,0.0,0.0,0.0,0.0,0.0,0.0,0.0,0.0,0.0,0.0,0.0,0.0,0.0,0.0,0.0,0.0,0.0,0.0,0.0,0.0,0.0,0.0,0.0,0.0,0.0,0.0,0.0,0.0,0.0,0.0,0.0,0.0,0.0,0.0,0.0,0.0,0.0,0.0,0.0,0.0,0.0,0.0,0.0,0.0,0.0,0.0,0.0,0.0,0.0,0.0,0.0,0.0,0.0,0.0,0.0,0.0,0.0,0.0,0.0,0.0,0.0,0.0,0.0,0.0,0.0,0.0,0.0,0.0,0.0,0.0,0.0,0.0,0.0,0.0,0.0,0.0,0.0,0.0,0.0,0.0,0.0,0.0,0.0,0.0,0.0,0.0,0.0,0.0,0.0,0.0,0.0,0.0,0.0,0.0,0.0,0.0,0.0,0.0,0.0,0.0,0.0,0.0,0.0,0.0,0.0,0.0,0.0,0.0,0.0,0.0,0.0,0.0,0.0,0.0,0.0,0.0,0.0,0.0,0.0,0.0,0.0,0.0,0.0,0.0,0.0,0.0,0.0,0.0,0.0,0.0,0.0,0.0,0.0,0.0,0.0,0.0,0.0,0.0,0.0,0.0,0.0,0.0,0.0,0.0,0.0,0.0,0.0,0.0,0.0,0.0,0.0,0.0,0.0,0.0,0.0,0.0,0.0,0.0,0.0,0.0,0.0,0.0,0.0,0.0,0.0,0.0,0.0,0.0,0.0,0.0,0.0,0.0,0.0,0.0,0.0,0.0,0.0,0.0,0.0,0.0,0.0,0.0,0.0,0.0,0.0,0.0,0.0,0.0,0.0,0.0,0.0,0.0,0.0,0.0,0.0,0.0,0.0,0.0,0.0,0.0,0.0,0.0,0.0,0.0,0.0,0.0,0.0,0.0,0.0,0.0,0.0,0.0,0.0,0.0,0.0,0.0,0.0,0.0,0.0,0.0,0.0,0.0,0.0,0.0,0.0,0.0,0.0,0.0,0.0,0.0,0.0,0.0,0.0,0.0,0.0,0.0,0.0,0.0,0.0,0.0,0.0,0.0,0.0,0.0,0.0,0.0,0.0,0.0,0.0,0.0,0.0,0.0,0.0,0.0,0.0,0.0,0.0,0.0,0.0,0.0,0.0,0.0,0.0,0.0,0.0,0.0,0.0,0.0,0.0,0.0,0.0,0.0,0.0,0.0,0.0,0.0,0.0,0.0,0.0,0.0,0.0,0.0,0.0,0.0,0.0,0.0,0.0,0.0,0.0,0.0,0.0,0.0,0.0,0.0,0.0,0.0,0.0,0.0,0.0,0.0,0.0,0.0,0.0,0.0,0.0,0.0,0.0,0.0,0.0,0.0,0.0,0.0,0.0,0.0,0.0,0.0,0.0,0.0,0.0,0.0,0.0,0.0,0.0,0.0,0.0,0.0,0.0,0.0,0.0,0.0,0.0,0.0,0.0,0.0,0.0,0.0,0.0,0.0,0.0,0.0,0.0,0.0,0.0,0.0,0.0,0.0,0.0,0.0,0.0,0.0,0.0,0.0,0.0,0.0,0.0,0.0,0.0,0.0,0.0,0.0,0.0,0.0,0.0,0.0,0.0,0.0,0.0,0.0,0.0,0.0,0.0,0.0,0.0,0.0,0.0,0.0,0.0,0.0,0.0,0.0,0.0,0.0,0.0,0.0,0.0,0.0,0.0,0.0,0.0,0.0,0.0,0.0,0.0,0.0,0.0,0.0,0.0,0.0,0.0,0.0,0.0,0.0,0.0,0.0,0.0,0.0,0.0,0.0,0.0,0.0,0.0,0.0,0.0,0.0,0.0,0.0,0.0,0.0,0.0,0.0,0.0,0.0,0.0,0.0,0.0,0.0,0.0,0.0,0.0,0.0,0.0,0.0,0.0,0.0,0.0,0.0,0.0,0.0,0.0,0.0,0.0,0.0,0.0,0.0,0.0,0.0,0.0,0.0,0.0,0.0,0.0,0.0,0.0,0.0,0.0,0.0,0.0,0.0,0.0,0.0,0.0,0.0,0.0,0.0,0.0,0.0,0.0,0.0,0.0,0.0,0.0,0.0,0.0,0.0,0.0,0.0,0.0,0.0,0.0,0.0,0.0,0.0,0.0,0.0,0.0,0.0,0.0,0.0,0.0,0.0,0.0,0.0,0.0,0.0,0.0,0.0,0.0,0.0,0.0,0.0,0.0,0.0,0.0,0.0,0.0,0.0,0.0,0.0,0.0,0.0,0.0,0.0,0.0,0.0,0.0,0.0,0.0,0.0,0.0,0.0,0.0,0.0,0.0,0.0,0.0,0.0,0.0,0.0,0.0,0.0,0.0,0.0,0.0,0.0,0.0,0.0,0.0,0.0,0.0,0.0,0.0,0.0,0.0,0.0,0.0,0.0,0.0,0.0,0.0,0.0,0.0,0.0,0.0,0.0,0.0,0.0,0.0,0.0,0.0,0.0,0.0,0.0,0.0,0.0,0.0,0.0,0.0,0.0,0.0,0.0,0.0,0.0,0.0,0.0,0.0,0.0,0.0,0.0,0.0,0.0,0.0,0.0,0.0,0.0,0.0,0.0,0.0,0.0,0.0,0.0,0.0,0.0,0.0,0.0,0.0,0.0,0.0,0.0,0.0,0.0,0.0,0.0,0.0,0.0,0.0,0.0,0.0,0.0,0.0,0.0,0.0,0.0,0.0,0.0,0.0,0.0,0.0,0.0,0.0,0.0,0.0,0.0,0.0,0.0,0.0,0.0,0.0,0.0,0.0,0.0,0.0,0.0,0.0,0.0,0.0,0.0,0.0,0.0,0.0,0.0,0.0,0.0,0.0,0.0,0.0,0.0,0.0,0.0,0.0,0.0,0.0,0.0,0.0,0.0,0.0,0.0,0.0,0.0,0.0,0.0,0.0,0.0,0.0,0.0,0.0,0.0,0.0,0.0,0.0,0.0,0.0,0.0,0.0,0.0,0.0,0.0,0.0,0.0,0.0,0.0,0.0,0.0,0.0,0.0,0.0,0.0,0.0,0.0,0.0,0.0,0.0,0.0,0.0,0.0,0.0,0.0,0.0,0.0,0.0,0.0,0.0,0.0,0.0,0.0,0.0,0.0,0.0,0.0,0.0,0.0,0.0,0.0,0.0,0.0,0.0,0.0,0.0,0.0,0.0,0.0,0.0,0.0,0.0,0.0,0.0,0.0,0.0,0.0,0.0,0.0,0.0,0.0,0.0,0.0,0.0,0.0,0.0,0.0,0.0,0.0,0.0,0.0,0.0,0.0,0.0,0.0,0.0,0.0,0.0,0.0,0.0,0.0,0.0,0.0,0.0,0.0,0.0,0.0,0.0,0.0,0.0,0.0,0.0,0.0,0.0,0.0,0.0,0.0,0.0,0.0,0.0,0.0,0.0,0.0,0.0,0.0,0.0,0.0,0.0,0.0,0.0,0.0,0.0,0.0,0.0,0.0,0.0,0.0,0.0,0.0,0.0,0.0,0.0,0.0,0.0,0.0,0.0,0.0,0.0,0.0,0.0,0.0,0.0,0.0,0.0,0.0,0.0,0.0,0.0,0.0,0.0,0.0,0.0,0.0,0.0,0.0,0.0,0.0,0.0,0.0,0.0,0.0,0.0,0.0,0.0,0.0,0.0,0.0,0.0,0.0,0.0,0.0,0.0,0.0,0.0,0.0,0.0,0.0,0.0,0.0,0.0,0.0,0.0,0.0,0.0,0.0,0.0,0.0,0.0,0.0,0.0,0.0,0.0,0.0,0.0,0.0,0.0,0.0,0.0,0.0,0.0,0.0,0.0,0.0,0.0,0.0,0.0,0.0,0.0,0.0,0.0,0.0,0.0,0.0,0.0,0.0,0.0,0.0,0.0,0.0,0.0,0.0,0.0,0.0,0.0,0.0,0.0,0.0,0.0,0.0,0.0,0.0,0.0,0.0,0.0,0.0,0.0,0.0,0.0,0.0,0.0,0.0,0.0,0.0,0.0,0.0,0.0,0.0,0.0,0.0,0.0,0.0,0.0,0.0,0.0,0.0,0.0,0.0,0.0,0.0,0.0,0.0,0.0,0.0,0.0,0.0,0.0,0.0,0.0,0.0,0.0,0.0,0.0,0.0,0.0,0.0,0.0,0.0,0.0,0.0,0.0,0.0,0.0,0.0,0.0,0.0,0.0,0.0,0.0,0.0,0.0,0.0,0.0,0.0,0.0,0.0,0.0,0.0,0.0,0.0,0.0,0.0,0.0,0.0,0.0,0.0,0.0,0.0,0.0,0.0,0.0,0.0,0.0,0.0,0.0,0.0,0.0,0.0,0.0,0.0,0.0,0.0,0.0,0.0,0.0,0.0,0.0,0.0,0.0,0.0,0.0,0.0,0.0,0.0,0.0,0.0,0.0,0.0,0.0,0.0,0.0,0.0,0.0,0.0,0.0,0.0,0.0,0.0,0.0,0.0,0.0,0.0,0.0,0.0,0.0,0.0,0.0,0.0,0.0,0.0,0.0,0.0,0.0,0.0,0.0,0.0,0.0,0.0,-1.9913,0.0,0.0,0.0,0.0,0.0,0.0,0.0,0.0,0.0,0.0,0.0,0.0,0.0,0.0,0.0,0.0,0.0,0.0,0.0,0.0,0.0,0.0,0.0,0.0,0.0,0.0,0.0,0.0,0.0,0.0,0.0,0.0,0.0,0.0,0.0,0.0,0.0,0.0,0.0,0.0,0.0,0.0,0.0,0.0,0.0,0.0,0.0,0.0,0.0,0.0,0.0,0.0,0.0,0.0,0.0,0.0,0.0,0.0,0.0,0.0,0.0,0.0,0.0,0.0,0.0,0.0,0.0,0.0,0.0,0.0,0.0,0.0,0.0,0.0,0.0,0.0,0.0,0.0,0.0,0.0,0.0,0.0,0.0,0.0,0.0,0.0,0.0,0.0,0.0,0.0,0.0,0.0,0.0,0.0,0.0,0.0,0.0,0.0,0.0,0.0,0.0,0.0,0.0,0.0,0.0,0.0,0.0,0.0,0.0,0.0,0.0,0.0,0.0,0.0,0.0,0.0,-2.0867,0.0,0.0,0.0,0.0,0.0,0.0,0.0,0.0,0.0,0.0,0.0,0.0,0.0,0.0,0.0,0.0,0.0,0.0,0.0,0.0,0.0,0.0,0.0,0.0,0.0,0.0,0.0,0.0,0.0,0.0,0.0,0.0,0.0,0.0,0.0,0.0,0.0,0.0,0.0,0.0,0.0,0.0,0.0,0.0,0.0,0.0,0.0,0.0,0.0,0.0,0.0,0.0,0.0,0.0,0.0,0.0,0.0,0.0,0.0,0.0,0.0,0.0,0.0,0.0,0.0,0.0,0.0,0.0,0.0,0.0,0.0,0.0,0.0,0.0,0.0,0.0,0.0,0.0,0.0,0.0,0.0,0.0,0.0,0.0,0.0,0.0,0.0,0.0,0.0,0.0,0.0,0.0,0.0,0.0,0.0,0.0,0.0,0.0,0.0,0.0,0.0,0.0,0.0,0.0,0.0,0.0,0.0,0.0,-2.5133,-2.5473,-2.5468,-2.5917,-2.6202,-2.6302,-2.4471,-2.3275,-2.2566,-2.1308,0.0,0.0,0.0,0.0,0.0,0.0,0.0,0.0,0.0,0.0,0.0,0.0,0.0,0.0,0.0,0.0,0.0,0.0,0.0,0.0,0.0,0.0,0.0,0.0,0.0,0.0,0.0,0.0,0.0,0.0,0.0,0.0,0.0,0.0,0.0,0.0,0.0,0.0,-2.69,-2.6909,-2.6492,-2.5619,0.0,0.0,0.0,0.0,0.0,0.0,0.0,0.0,0.0,0.0,0.0,0.0,0.0,0.0,0.0,0.0,0.0,0.0,0.0,0.0,0.0,0.0,0.0,0.0,0.0,0.0,0.0,0.0,0.0,0.0,0.0,0.0,0.0,0.0,0.0,0.0,0.0,0.0,0.0,0.0,0.0,0.0,0.0,0.0,-1.6334,-1.7133,0.0,0.0,0.0,0.0,0.0,0.0,0.0,0.0,0.0,0.0,0.0,0.0,0.0,-2.441,-2.4314,-2.536,-2.5702,-2.5367,-2.5851,-2.6233,-2.6504,-2.6828,-2.7331,-2.7982,-2.7644,0.0,-2.4505,-2.4066,0.0,0.0,0.0,0.0,0.0,0.0,0.0,0.0,0.0,0.0,0.0,0.0,0.0,0.0,0.0,0.0,0.0,0.0,0.0,0.0,0.0,0.0,0.0,0.0,0.0,0.0,0.0,0.0,0.0,0.0,0.0,0.0,0.0,0.0,0.0,0.0,-2.5884,-2.6764,-2.7473,-2.6935,-2.6685,-2.6685,-2.6197,-2.5422,-2.4456,-2.3771,0.0,0.0,0.0,0.0,0.0,0.0,0.0,0.0,0.0,0.0,0.0,0.0,0.0,0.0,0.0,0.0,0.0,0.0,0.0,0.0,0.0,0.0,0.0,0.0,0.0,0.0,0.0,0.0,0.0,0.0,0.0,0.0,0.0,0.0,0.0,0.0,0.0,0.0,0.0,-1.6908,-1.7241,-1.7413,-1.7362,-1.7432,0.0,0.0,0.0,0.0,0.0,0.0,0.0,0.0,0.0,-2.2341,-2.3382,-2.416,-2.4613,-2.5599,-2.6141,-2.622,-2.7122,-2.7426,-2.7259,-2.8149,-2.8787,-2.916,-2.9277,-2.8821,-2.782,-2.6024,-2.5029,-2.4578,0.0,0.0,0.0,0.0,-2.5576,-2.6108,0.0,0.0,0.0,0.0,0.0,0.0,0.0,0.0,0.0,0.0,0.0,0.0,0.0,0.0,0.0,-2.4159,0.0,0.0,0.0,0.0,0.0,0.0,0.0,0.0,0.0,0.0,0.0,0.0,-2.6643,-2.7225,-2.7921,-2.7224,-2.7117,-2.7487,-2.7133,-2.6333,-2.5256,-2.4283,-2.3666,0.0,0.0,0.0,0.0,0.0,0.0,0.0,0.0,0.0,0.0,0.0,0.0,0.0,0.0,0.0,0.0,0.0,0.0,0.0,0.0,0.0,0.0,0.0,0.0,0.0,0.0,0.0,0.0,0.0,0.0,0.0,0.0,0.0,0.0,0.0,0.0,0.0,0.0,-1.7827,-1.7943,-1.7837,-1.7664,-1.756,0.0,0.0,0.0,0.0,0.0,0.0,-2.1322,-2.2015,-2.2331,-2.2243,-2.3433,-2.4494,-2.5312,-2.614,-2.6757,-2.7254,-2.8002,-2.8124,-2.7603,-2.853,-2.9112,-2.9341,-2.9568,-2.9863,-3.0,-2.7633,-2.668,-2.6735,-2.6439,-2.6523,-2.692,-2.7767,-2.8199,-2.8422,0.0,0.0,0.0,0.0,0.0,0.0,0.0,0.0,0.0,0.0,0.0,0.0,0.0,0.0,-2.4694,-2.5779,-2.6271,-2.6531,0.0,0.0,0.0,0.0,0.0,0.0,0.0,0.0,0.0,-2.6564,-2.7726,-2.8366,-2.8557,-2.8764,-2.8753,-2.8582,-2.7564,-2.6403,-2.5312,-2.5648,-2.4807,-2.324,0.0,0.0,0.0,0.0,0.0,0.0,0.0,0.0,0.0,0.0,0.0,0.0,0.0,0.0,0.0,0.0,0.0,0.0,0.0,0.0,0.0,0.0,0.0,0.0,0.0,0.0,0.0,0.0,0.0,0.0,0.0,0.0,0.0,0.0,0.0,0.0,0.0,0.0,0.0,-1.8398,-1.7991,0.0,0.0,0.0,0.0,-1.9677,-2.0592,-2.1164,-2.1221,-2.2451,-2.3134,-2.3134,-2.4957,-2.6224,-2.6803,-2.7356,-2.7882,-2.8395,-2.8028,-2.7718,-2.7499,-2.7138,-2.7371,-2.8096,-2.8101,-2.8792,-2.9829,-2.8982,-2.8811,-2.896,-2.824,-2.8391,-2.905,-2.9119,-2.9593,-3.0227,0.0,0.0,0.0,0.0,0.0,0.0,0.0,0.0,0.0,0.0,0.0,0.0,0.0,-2.5603,-2.7004,-2.8512,-2.8497,-2.8354,-2.8239,0.0,0.0,0.0,0.0,0.0,0.0,0.0,-2.6634,-2.6783,-2.7409,-2.7844,-2.8164,-2.8107,-2.8168,-2.8247,-2.8003,-2.7421,-2.665,-2.5625,-2.5063,-2.4728,-2.3309,-2.2579,0.0,0.0,0.0,0.0,0.0,0.0,0.0,0.0,0.0,0.0,0.0,0.0,0.0,0.0,0.0,0.0,0.0,0.0,0.0,0.0,0.0,0.0,0.0,0.0,0.0,0.0,0.0,0.0,0.0,0.0,0.0,0.0,0.0,0.0,0.0,0.0,0.0,-1.8829,-1.8383,0.0,-1.8224,-1.821,-1.8464,-1.912,-1.991,-2.0502,-2.0796,-2.2101,-2.2916,-2.3191,-2.4742,-2.619,-2.7484,-2.8049,-2.8602,-2.9079,-2.9079,-2.8615,-2.7785,-2.8822,-2.9034,-2.8544,-2.933,-3.0033,-3.0605,-3.0314,-3.0164,-3.0128,-3.0337,-3.0781,-3.1397,-3.187,-3.2435,-3.2988,0.0,0.0,0.0,0.0,0.0,0.0,0.0,0.0,0.0,0.0,0.0,-2.5118,-2.5585,-2.687,-2.8296,-2.9742,-2.9467,-2.9214,-2.9262,0.0,0.0,0.0,0.0,0.0,0.0,-2.6519,-2.7073,-2.7074,-2.7612,-2.7912,-2.8048,-2.7931,-2.8019,-2.8266,-2.8033,-2.7811,-2.7455,-2.6121,-2.5626,-2.5643,-2.4067,-2.3248,-2.2783,0.0,0.0,0.0,0.0,0.0,0.0,0.0,0.0,0.0,0.0,0.0,0.0,0.0,0.0,0.0,0.0,0.0,0.0,0.0,0.0,0.0,0.0,0.0,0.0,0.0,0.0,0.0,0.0,0.0,0.0,0.0,0.0,0.0,0.0,0.0,-1.9582,-1.9534,-1.8907,-1.8468,-1.8517,-1.8253,-1.8458,-1.9343,-2.003,-2.0706,-2.1369,-2.2611,-2.346,-2.3821,-2.507,-2.6431,-2.7901,-2.835,-2.8909,-2.956,-2.9611,-2.9144,-2.8239,-2.9422,-2.9562,-2.891,-2.9545,-3.0068,-3.0489,-3.0647,-3.0726,-3.0832,-3.1809,-3.246,-3.296,-3.3611,-3.4164,-3.4535,0.0,0.0,0.0,0.0,0.0,0.0,0.0,0.0,0.0,0.0,0.0,-2.5806,-2.5809,-2.7201,-2.8488,-2.9351,-2.9035,-2.9026,-2.9538,-2.8865,0.0,0.0,0.0,0.0,-2.631,-2.749,-2.7878,-2.7409,-2.8388,-2.8712,-2.8377,-2.8366,-2.8539,-2.8713,-2.7771,-2.743,-2.7594,-2.7164,-2.6636,-2.592,-2.4814,-2.4082,-2.3486,0.0,0.0,0.0,0.0,0.0,0.0,0.0,0.0,0.0,0.0,0.0,0.0,0.0,0.0,0.0,0.0,0.0,0.0,0.0,0.0,0.0,0.0,0.0,0.0,0.0,0.0,0.0,0.0,0.0,0.0,0.0,0.0,0.0,-2.0233,-1.9679,-1.9606,-2.0482,-1.9562,-1.8981,-1.9296,-1.9331,-1.9616,-2.0349,-2.102,-2.1825,-2.2903,-2.398,-2.4731,-2.5096,-2.6095,-2.7099,-2.8072,-2.8275,-2.882,-2.9767,-2.9548,-2.9184,-2.8788,-2.8636,-2.8729,-2.8973,-2.8539,-2.8795,-2.954,-3.0046,-3.0551,-3.1181,-3.26,-3.3337,-3.3674,-3.4214,-3.4587,-3.4859,0.0,0.0,0.0,0.0,0.0,0.0,0.0,0.0,0.0,0.0,-2.4628,-2.6685,-2.7888,-2.8693,-2.9329,-2.9863,-2.9317,-2.8818,-2.8531,0.0,0.0,0.0,0.0,0.0,-2.6744,-2.7862,-2.811,-2.7417,-2.8067,-2.8204,-2.7833,-2.8007,-2.8143,-2.8198,-2.815,-2.8154,-2.8157,-2.7476,-2.7093,-2.6877,-2.6038,-2.5282,-2.4561,0.0,0.0,0.0,0.0,0.0,0.0,0.0,0.0,0.0,0.0,0.0,0.0,0.0,0.0,0.0,0.0,0.0,0.0,0.0,0.0,0.0,0.0,0.0,0.0,0.0,0.0,0.0,0.0,0.0,0.0,0.0,0.0,-2.0892,-2.1234,-2.1056,-2.081,-2.0612,-2.0322,-2.0076,-2.0049,-1.9728,-1.9853,-2.0636,-2.0851,-2.1326,-2.2164,-2.3319,-2.4233,-2.4866,-2.6177,-2.7243,-2.7933,-2.8743,-2.9226,-2.9391,-2.9578,-2.9365,-2.8816,-2.9294,-2.9314,-2.9048,-2.9477,-2.9818,-3.0079,-3.0706,-3.1188,-3.158,-3.2331,-3.339,-3.4497,-3.4635,-3.5191,-3.5833,0.0,0.0,0.0,0.0,0.0,0.0,0.0,0.0,0.0,0.0,-2.448,-2.6681,-2.7627,-2.8531,-2.9207,-2.9532,-2.8972,-2.8407,-2.7958,0.0,0.0,0.0,0.0,-2.7806,-2.7584,-2.8499,-2.8658,-2.8002,-2.839,-2.8319,-2.787,-2.7795,-2.7877,-2.8002,-2.8055,-2.8143,-2.8222,-2.7918,-2.7708,-2.7565,-2.7129,-2.6333,-2.5333,-2.4508,-2.3727,-2.2966,-2.2247,-2.1826,-2.1501,-2.0809,0.0,0.0,0.0,0.0,0.0,0.0,0.0,0.0,0.0,0.0,0.0,0.0,0.0,0.0,0.0,0.0,0.0,0.0,0.0,0.0,0.0,0.0,0.0,0.0,-2.1278,-2.165,-2.222,-2.1782,-2.1384,-2.1223,-2.0978,-2.0758,-2.066,-2.0395,-2.0625,-2.1611,-2.1469,-2.1834,-2.2917,-2.3567,-2.4235,-2.4998,-2.5983,-2.6888,-2.7634,-2.8282,-2.8642,-2.8722,-2.9189,-2.9185,-2.876,-2.9613,-2.9857,-2.9603,-3.0091,-3.0332,-3.0386,-3.0816,-3.1132,-3.1562,0.0,0.0,0.0,0.0,-3.5784,-3.6277,0.0,0.0,0.0,0.0,0.0,0.0,0.0,0.0,0.0,0.0,0.0,-2.6182,-2.6207,-2.7547,-2.847,-2.8524,-2.8196,-2.7915,0.0,0.0,0.0,-2.7833,-2.8454,-2.8733,-2.8629,-2.9233,-2.9311,-2.8837,-2.9032,-2.8787,-2.8237,-2.7836,-2.7749,-2.7962,-2.7735,-2.7767,-2.7978,-2.824,-2.8183,-2.79,-2.7961,-2.7221,-2.6019,-2.5369,-2.4744,-2.4204,-2.3588,-2.302,-2.255,-2.2178,0.0,0.0,0.0,0.0,0.0,0.0,0.0,0.0,0.0,0.0,0.0,0.0,0.0,0.0,0.0,0.0,0.0,0.0,0.0,0.0,0.0,0.0,0.0,0.0,-2.2372,-2.2438,-2.3045,-2.221,-2.1674,-2.2068,-2.1564,-2.1223,-2.1194,-2.1194,-2.17,-2.2834,-2.2459,-2.282,-2.4307,0.0,0.0,0.0,0.0,-2.6371,-2.7185,-2.7289,-2.7591,-2.8082,-2.8574,-2.875,-2.8712,-2.9605,-3.0195,-3.0457,-3.0493,-3.0575,-3.0729,-3.0703,-3.0957,-3.1596,-3.3874,-3.4773,-3.4911,-3.591,-3.6332,-3.632,0.0,0.0,0.0,0.0,0.0,0.0,0.0,0.0,0.0,-2.3404,-2.4954,-2.6145,-2.6821,-2.766,-2.7828,-2.6944,-2.7514,-2.7875,0.0,0.0,-2.842,-2.8807,-2.9501,-2.9739,-2.9387,-2.9678,-2.9584,-2.9106,-2.911,-2.8855,-2.843,-2.841,-2.813,-2.7698,-2.7798,-2.7767,-2.7699,-2.7969,-2.7688,-2.7138,-2.7554,-2.761,-2.7259,-2.6564,-2.598,-2.5487,-2.4985,-2.4586,-2.4167,-2.332,-2.2778,-2.2273,-2.1131,0.0,0.0,0.0,0.0,0.0,0.0,0.0,0.0,0.0,0.0,0.0,0.0,0.0,0.0,0.0,0.0,0.0,0.0,0.0,0.0,-2.2474,-2.2917,-2.3187,-2.3318,-2.323,-2.2875,-2.2197,-2.1973,-2.1852,-2.176,-2.1836,-2.2242,-2.2997,-2.2694,-2.2879,-2.373,-2.416,-2.4502,-2.48,-2.5775,-2.64,-2.6552,-2.7336,-2.7765,-2.7844,-2.8142,0.0,-2.91,-2.8975,-2.9677,-3.0931,-3.0584,-3.0795,-3.1446,-3.1938,-3.2649,-3.3485,-3.4193,-3.4605,-3.4941,-3.5952,-3.6429,-3.6538,0.0,0.0,0.0,0.0,0.0,0.0,0.0,0.0,0.0,0.0,-2.3696,-2.4884,-2.5742,-2.6488,-2.6587,-2.5781,-2.6219,0.0,0.0,-2.8233,-2.8782,-2.9379,-3.0065,-3.0307,-3.0054,-3.0228,-2.9995,-2.94,-2.9411,-2.9257,-2.8958,-2.8657,-2.855,-2.8545,-2.8334,-2.8374,-2.8626,-2.8528,-2.8286,-2.7953,-2.811,-2.8077,-2.7888,-2.67,-2.6238,-2.6192,-2.5741,-2.5437,-2.5222,-2.459,-2.3988,-2.3413,-2.257,-2.1918,-2.1479,0.0,0.0,0.0,0.0,0.0,0.0,0.0,0.0,0.0,0.0,0.0,0.0,0.0,0.0,-2.2326,0.0,0.0,-2.2942,-2.3202,-2.3491,-2.3641,-2.3641,-2.37,-2.3509,-2.2833,-2.2749,-2.2749,-2.2749,-2.2749,-2.3081,-2.3836,-2.3408,-2.339,-2.412,-2.4142,-2.427,-2.454,-2.5213,-2.5652,-2.5859,-2.6596,-2.6939,-2.6952,-2.7621,-2.8132,-2.8497,-2.8761,-2.9589,-3.0807,-3.0766,-3.1132,-3.1836,-3.2299,-3.2915,-3.3678,-3.4414,-3.4812,-3.5021,-3.5459,-3.584,-3.6004,0.0,0.0,0.0,0.0,0.0,0.0,0.0,0.0,0.0,0.0,0.0,-2.3271,-2.4005,-2.4822,-2.5263,0.0,0.0,0.0,0.0,-2.8303,-2.9015,-2.9871,-3.0531,-3.0834,-3.0763,-3.0803,-3.0506,-2.9857,-2.9801,-2.968,-2.9428,-2.8886,-2.887,-2.9321,-2.8903,-2.8969,-2.9415,-2.9228,-2.9005,-2.8754,-2.8572,-2.8271,-2.7782,-2.6439,-2.6237,-2.6647,-2.6112,-2.5909,-2.5801,-2.5412,-2.4902,-2.4332,-2.3886,-2.3199,-2.2535,-2.2474,-2.1661,0.0,0.0,0.0,0.0,0.0,0.0,0.0,0.0,0.0,-2.2613,-2.3303,-2.3421,-2.3573,-2.3996,-2.3949,-2.3905,-2.4021,-2.4037,-2.3956,-2.3794,-2.3901,-2.3878,-2.3582,-2.3492,-2.348,-2.3599,-2.3509,-2.3761,-2.4529,-2.4034,-2.397,-2.4662,-2.4229,-2.4114,-2.4373,-2.4637,-2.4921,-2.5222,-2.5756,-2.6038,-2.6051,-2.7045,-2.7618,-2.776,-2.8535,-2.9454,-3.0497,-3.0991,-3.1527,-3.2168,-3.2379,-3.286,-3.3434,-3.4368,-3.4845,-3.4998,-3.5179,-3.539,-3.5577,0.0,0.0,0.0,0.0,0.0,0.0,0.0,0.0,0.0,0.0,0.0,0.0,0.0,0.0,0.0,0.0,0.0,0.0,-2.7742,-2.8404,-2.9283,-3.0627,-3.1201,-3.1581,-3.1734,-3.1409,-3.1082,-3.0729,-3.0271,-2.9922,-2.9667,-2.9216,-2.8988,-2.8874,-2.8975,-2.8994,-2.8918,-2.9472,-2.9011,-2.7946,-2.8108,-2.7527,-2.6542,-2.609,-2.646,-2.7106,-2.6342,-2.6051,-2.5973,-2.5207,-2.5021,-2.4966,-2.4214,-2.3896,-2.3754,-2.343,0.0,-2.1662,-2.2108,-2.2195,-2.2146,-2.2048,-2.2967,-2.3847,0.0,0.0,-2.4364,-2.4582,-2.4626,-2.4836,-2.5576,-2.5201,-2.4704,-2.4556,-2.4534,-2.4233,-2.3393,-2.3832,-2.4189,-2.4054,-2.376,-2.3569,-2.3599,-2.3599,-2.3743,-2.4145,-2.4093,-2.4226,-2.4598,-2.4374,-2.4274,-2.4297,-2.4747,-2.5001,-2.5036,-2.5566,-2.5821,-2.5834,-2.6311,-2.69,-2.754,-2.7685,-2.8715,-3.0356,-3.1133,-3.1907,-3.2701,-3.2579,-3.3052,-3.3901,-3.3748,-3.4076,-3.4751,-3.5636,-3.6048,-3.6114,0.0,0.0,0.0,0.0,0.0,0.0,0.0,0.0,0.0,0.0,0.0,0.0,0.0,0.0,0.0,0.0,0.0,0.0,-2.6735,-2.7867,-2.8902,-2.9832,-3.0614,-3.1102,-3.1325,-3.0968,-3.0754,-3.0734,-3.0275,-3.0165,-3.0394,-2.9814,-2.9648,-2.975,-2.9297,-2.9173,-2.9332,-2.9543,-2.9299,-2.8781,-2.8511,-2.8106,-2.7621,-2.6876,-2.6925,-2.7262,-2.6567,-2.6398,0.0,0.0,-2.5708,-2.5877,-2.5028,-2.4723,-2.4675,-2.4481,-2.3611,0.0,-2.2819,-2.3082,-2.3356,0.0,-2.3936,-2.4517,-2.4681,-2.5054,-2.5451,-2.582,-2.5995,-2.6158,-2.636,-2.6162,-2.5827,0.0,-2.5289,-2.5001,-2.4341,-2.4446,-2.4549,-2.4419,-2.4173,-2.4044,-2.4173,-2.4011,-2.4099,-2.4591,-2.4563,-2.4591,-2.4806,-2.4692,-2.4565,-2.4492,-2.4543,-2.4645,-2.476,-2.5208,-2.5498,-2.5559,-2.6077,-2.6701,-2.7327,-2.7473,-2.8566,-3.0356,-3.1458,-3.2068,-3.2325,-3.2899,-3.3114,-3.3259,-3.4259,-3.4613,-3.453,-3.4831,-3.5257,-3.5603,0.0,0.0,0.0,0.0,0.0,0.0,0.0,0.0,0.0,0.0,0.0,0.0,0.0,0.0,0.0,0.0,0.0,0.0,0.0,-2.6999,-2.8121,-2.9213,-3.0071,0.0,-3.1022,-3.0845,-3.0768,-3.0773,-3.0343,-3.0275,-3.0488,-3.0075,-3.0053,-3.029,-2.9767,-2.9667,-2.9902,-2.981,-2.9645,-2.934,-2.8867,-2.8473,-2.8102,-2.726,-2.6928,-2.6857,-2.655,-2.65,0.0,0.0,-2.5869,-2.6035,-2.5436,-2.524,-2.5199,-2.5139,-2.4489,-2.3675,-2.3203,0.0,0.0,-2.432,-2.4752,-2.5286,-2.5615,-2.595,-2.6311,-2.6705,-2.6964,-2.7118,-2.7085,-2.7024,-2.6818,-2.6149,-2.5974,-2.5687,-2.4869,-2.4825,-2.4806,-2.4677,-2.4478,-2.4478,-2.4706,-2.4361,-2.439,-2.4948,-2.492,-2.4934,-2.5131,-2.4977,-2.4835,-2.4706,-2.4536,-2.4478,-2.4591,-2.493,-2.513,-2.5202,-2.5805,-2.6356,-2.681,-2.7328,-2.833,-2.972,-3.0924,-3.1512,-3.168,-3.2521,-3.2771,-3.2788,-3.3997,-3.4358,-3.424,-3.389,-3.4362,-3.5077,0.0,0.0,0.0,0.0,0.0,0.0,0.0,0.0,0.0,0.0,0.0,0.0,0.0,0.0,0.0,0.0,0.0,0.0,0.0,-2.5844,-2.6998,-2.9281,-2.9976,-3.066,-3.1364,-3.1579,-3.1542,-3.1277,-3.0757,-3.0175,-2.9562,-2.9774,-2.9899,-2.9924,-3.0425,-3.0597,-3.0481,-3.046,-2.9944,-2.9099,-2.8932,-2.8226,-2.7203,-2.678,-2.6158,-2.561,-2.6126,0.0,0.0,0.0,-2.5107,-2.4962,-2.5141,-2.5205,0.0,-2.5261,-2.4979,0.0,0.0,0.0,-2.5116,-2.4451,-2.5478,-2.6595,-2.6389,-2.6701,-2.6964,-2.6977,-2.7235,-2.759,-2.7881,-2.7917,-2.7547,-2.6556,-2.6479,-2.5993,-2.4368,-2.4639,-2.4948,-2.4806,-2.4664,-2.4706,0.0,-2.4565,-2.4494,-2.4977,-2.5005,-2.5131,-2.5467,-2.53,-2.5118,-2.4977,-2.4863,-2.4734,-2.4591,-2.4748,-2.4761,-2.4618,-2.5293,-2.5663,-2.5803,-2.7107,-2.7842,-2.8099,-2.9072,-3.0045,-3.0939,-3.095,-3.1843,-3.3083,-3.2169,-3.2673,-3.3858,-3.3274,-3.3861,-3.5023,0.0,0.0,0.0,0.0,0.0,0.0,0.0,0.0,0.0,0.0,0.0,0.0,0.0,0.0,0.0,0.0,0.0,0.0,0.0,-2.5756,-2.7059,-2.803,-2.9419,-3.0126,-3.0014,-2.9928,-3.0231,-3.0914,-3.0399,-3.0385,-3.0835,-3.0562,-3.0216,-2.9827,-2.9594,-2.9389,-2.9197,-2.9592,-2.932,-2.8587,-2.8946,-2.8399,-2.7262,-2.6837,-2.6444,-2.6156,0.0,0.0,0.0,0.0,0.0,0.0,-2.5646,0.0,0.0,-2.5092,0.0,0.0,0.0,0.0,-2.6372,-2.5653,-2.6202,-2.6807,-2.6491,-2.6796,-2.7268,-2.7503,-2.7623,-2.7855,-2.8314,-2.8378,-2.8224,-2.7781,-2.7353,-2.6754,-2.5882,-2.5409,-2.5118,-2.5061,-2.4863,0.0,0.0,0.0,0.0,-2.5313,-2.5495,-2.5619,-2.5633,-2.5647,-2.5578,-2.5341,-2.5159,-2.5033,-2.5005,-2.4948,-2.492,-2.4877,-2.5573,-2.5828,-2.569,-2.7349,-2.8009,-2.7858,-2.9076,-2.9589,-2.966,-3.0573,-3.0894,-3.0796,-3.1472,-3.2232,-3.2925,-3.263,-3.3509,-3.4782,0.0,0.0,0.0,0.0,0.0,0.0,0.0,0.0,0.0,0.0,0.0,0.0,0.0,0.0,0.0,0.0,0.0,0.0,0.0,0.0,-2.6023,-2.6841,-2.862,-2.943,-2.9018,-2.9307,-2.9799,-3.0489,-2.9959,-2.996,-3.0423,-3.0236,-2.98,-2.9227,-2.9217,-2.9021,-2.8758,-2.9204,-2.9066,-2.8531,-2.8841,-2.8345,-2.7373,-2.7033,-2.6691,0.0,0.0,0.0,0.0,0.0,0.0,0.0,0.0,0.0,0.0,0.0,0.0,0.0,0.0,-2.5862,-2.6394,-2.5743,-2.6258,-2.6749,-2.6214,-2.6797,-2.7504,-2.7643,-2.7668,-2.7948,-2.8853,-2.8843,-2.8623,-2.8362,-2.8001,-2.7395,-2.6413,-2.5758,-2.537,-2.53,-2.5159,-2.5075,0.0,0.0,0.0,-2.5564,-2.5771,-2.5893,-2.5921,-2.6002,-2.5935,-2.573,-2.5605,-2.5481,-2.537,-2.5286,-2.5244,-2.5188,-2.5598,-2.577,-2.581,-2.6848,-2.7295,-2.7319,-2.8334,-2.8685,-2.8621,-2.9602,-2.9852,-2.967,-3.0348,-3.1024,-3.1644,-3.172,-3.2639,-3.3843,0.0,0.0,0.0,0.0,0.0,0.0,0.0,0.0,0.0,0.0,0.0,0.0,0.0,0.0,0.0,0.0,0.0,0.0,0.0,0.0,0.0,-2.5817,-2.7644,-2.8565,-2.8476,-2.9578,-3.0142,-3.0084,-2.9487,-2.8949,-2.8509,-2.8917,-2.8779,-2.8188,-2.9225,-2.9455,-2.9077,-2.926,-2.9127,-2.8796,-2.8692,-2.8168,-2.7396,-2.7244,0.0,0.0,0.0,0.0,0.0,0.0,0.0,0.0,0.0,0.0,0.0,0.0,0.0,-2.5636,-2.4966,-2.5139,-2.5379,-2.4858,-2.5735,-2.6465,-2.5688,-2.6686,-2.7669,-2.7417,-2.7391,-2.788,0.0,0.0,-2.8778,-2.834,-2.8426,-2.791,-2.6105,-2.5799,-2.5688,0.0,0.0,0.0,0.0,0.0,0.0,-2.5729,0.0,-2.6029,-2.6313,-2.6299,-2.6245,-2.6111,-2.6111,-2.5975,-2.5729,-2.5702,-2.5633,-2.5494,-2.53,-2.5531,-2.605,-2.5797,-2.5957,-2.6488,-2.6947,-2.7419,-2.7882,-2.8137,-2.8822,-2.9634,-2.8836,-2.9232,-3.0237,-3.0593,-3.137,-3.2501,0.0,0.0,0.0,0.0,0.0,0.0,0.0,0.0,0.0,0.0,0.0,0.0,0.0,0.0,0.0,0.0,0.0,0.0,0.0,0.0,0.0,0.0,0.0,0.0,0.0,0.0,0.0,0.0,0.0,-2.8952,-2.8577,-2.9038,-2.8617,0.0,-2.8053,-2.8366,-2.8516,-2.8719,-2.8265,-2.7495,0.0,-2.7983,-2.622,0.0,0.0,0.0,0.0,0.0,0.0,0.0,0.0,0.0,0.0,0.0,-2.6769,0.0,0.0,-2.6785,-2.6381,-2.6418,-2.6383,-2.5445,-2.5822,-2.6281,-2.5775,-2.6323,-2.7004,-2.7101,-2.7182,-2.7495,0.0,0.0,0.0,-2.9218,-2.9305,0.0,-2.7712,-2.7004,0.0,-2.5716,0.0,-2.5494,-2.5494,-2.5605,0.0,0.0,-2.6111,-2.6272,-2.6445,-2.6445,-2.6431,-2.6418,-2.6299,-2.6179,-2.6002,-2.5811,-2.5633,-2.5494,-2.555,-2.5605,-2.5701,-2.6333,-2.6485,-2.6238,-2.7089,-2.7394,-2.7336,-2.7476,-2.7931,-2.8402,-2.7998,-2.9271,-3.1199,-2.988,-3.1395,-3.3944,0.0,0.0,0.0,0.0,0.0,0.0,0.0,0.0,0.0,0.0,0.0,0.0,0.0,0.0,0.0,0.0,0.0,0.0,0.0,0.0,0.0,0.0,0.0,0.0,0.0,0.0,0.0,0.0,0.0,0.0,0.0,-2.8462,-2.8015,-2.7038,-2.7555,-2.7755,-2.7685,0.0,0.0,0.0,0.0,0.0,0.0,0.0,0.0,0.0,0.0,0.0,0.0,0.0,0.0,-2.7731,-2.7952,-2.7723,-2.7431,-2.7608,0.0,-2.7234,-2.7114,-2.6722,-2.6278,-2.5848,-2.5951,-2.6001,-2.5585,-2.6217,-2.6971,-2.7093,-2.7066,0.0,-2.841,-2.8884,0.0,0.0,0.0,0.0,-2.8136,-2.7254,-2.6535,0.0,-2.5655,0.0,-2.5298,-2.5446,-2.5634,0.0,-2.6103,-2.6406,-2.6698,-2.6671,-2.6645,-2.6724,-2.658,-2.642,-2.6206,-2.5921,-2.5743,-2.5674,-2.5688,-2.5661,-2.5605,-2.6113,-2.62,-2.5981,-2.6924,-2.7151,-2.693,-2.7357,-2.7749,-2.8009,-2.7842,-2.9008,-3.0648,-2.9789,-3.1219,-3.354,0.0,0.0,0.0,0.0,0.0,0.0,0.0,0.0,0.0,0.0,0.0,0.0,0.0,0.0,0.0,0.0,0.0,0.0,0.0,0.0,0.0,0.0,0.0,0.0,0.0,0.0,0.0,0.0,0.0,0.0,0.0,0.0,0.0,0.0,0.0,0.0,0.0,0.0,0.0,0.0,0.0,0.0,0.0,0.0,0.0,0.0,0.0,0.0,0.0,0.0,-2.8469,-2.8262,-2.8512,-2.8329,-2.8038,-2.8212,-2.7828,-2.7359,-2.7521,-2.6729,-2.5907,-2.6175,-2.606,-2.5767,-2.5395,-2.6168,-2.7037,-2.7171,0.0,-2.7338,-2.8919,-2.9205,-2.9183,-2.9277,0.0,-2.9212,-2.7893,-2.7043,-2.6465,-2.6134,-2.5635,-2.5192,-2.4958,-2.5225,-2.5412,-2.5437,-2.6009,-2.6568,-2.7003,-2.6899,-2.6873,-2.7003,-2.6771,-2.6561,-2.6313,-2.5972,-2.5836,-2.5893,-2.5784,-2.5729,-2.5757,-2.5592,-2.5641,-2.5882,-2.6639,-2.6866,-2.6728,-2.754,-2.7898,-2.7997,-2.7919,-2.8553,-2.9524,-2.9834,-3.0928,-3.2319,0.0,0.0,0.0,0.0,0.0,0.0,0.0,0.0,0.0,0.0,-2.0463,-2.0402,0.0,0.0,0.0,0.0,0.0,0.0,0.0,0.0,0.0,0.0,0.0,0.0,0.0,0.0,0.0,0.0,0.0,0.0,0.0,0.0,0.0,0.0,0.0,0.0,0.0,0.0,0.0,0.0,0.0,0.0,0.0,0.0,0.0,0.0,0.0,0.0,0.0,0.0,-2.9563,-2.9355,-2.9515,-2.9139,-2.8707,-2.9071,-2.864,-2.8078,-2.8402,-2.7829,-2.706,-2.6633,-2.612,-2.5738,-2.5786,-2.5841,0.0,0.0,-2.691,-2.7269,-2.7687,-2.8471,-2.9076,-2.9194,0.0,0.0,0.0,0.0,-2.6546,0.0,0.0,0.0,0.0,0.0,0.0,0.0,-2.6286,-2.6858,-2.7155,-2.7041,-2.6977,-2.7003,-2.6334,-2.6084,-2.6299,-2.5668,-2.5535,-2.5893,-2.5866,-2.5921,-2.6029,-2.5785,-2.5987,-2.6532,-2.681,0.0,-2.7034,-2.7425,-2.7748,-2.7974,-2.758,-2.8412,-2.9737,-2.9116,-3.0256,-3.2159,0.0,0.0,0.0,0.0,0.0,0.0,0.0,-1.9428,-2.0134,-2.0765,-2.1105,-2.1097,-2.0652,-2.0515,-2.0293,0.0,0.0,0.0,0.0,0.0,0.0,0.0,0.0,0.0,0.0,0.0,0.0,0.0,0.0,0.0,0.0,0.0,0.0,0.0,0.0,0.0,0.0,0.0,0.0,0.0,0.0,0.0,0.0,0.0,0.0,0.0,0.0,0.0,0.0,0.0,-2.9354,-2.9463,-2.9915,-2.973,-2.9324,-2.9324,-2.9084,-2.883,-2.9105,-2.8643,-2.7982,-2.7453,-2.6759,-2.6185,-2.6211,0.0,0.0,0.0,-2.7255,-2.7524,-2.791,-2.8721,0.0,0.0,0.0,0.0,0.0,0.0,0.0,0.0,0.0,0.0,0.0,0.0,-2.5444,-2.5778,-2.6225,-2.6725,-2.7269,-2.731,-2.7233,-2.7119,-2.6177,-2.5733,-2.5828,-2.502,-2.4916,-2.5537,-2.5537,-2.5772,-2.6192,-2.5745,-2.5939,-2.6599,-2.6676,-2.6945,-2.7309,-2.7493,-2.776,-2.8077,-2.7775,-2.8398,-2.9465,-2.944,-3.046,-3.1958,0.0,0.0,0.0,0.0,0.0,0.0,0.0,-1.9507,-2.0286,-2.1063,-2.147,-2.1451,-2.0821,-2.0329,-1.9918,0.0,0.0,0.0,0.0,0.0,0.0,0.0,0.0,0.0,0.0,0.0,0.0,0.0,0.0,0.0,0.0,0.0,0.0,0.0,0.0,0.0,0.0,0.0,0.0,0.0,0.0,0.0,0.0,0.0,0.0,0.0,0.0,0.0,0.0,0.0,-2.8714,-2.9146,-2.9912,-3.0014,-2.984,-2.9643,-2.9588,-2.9654,-2.9867,-2.9482,-2.8884,-2.8252,-2.7397,-2.6651,-2.6522,-2.627,0.0,0.0,-2.7685,-2.7959,-2.8415,0.0,-2.9559,0.0,0.0,0.0,0.0,0.0,0.0,0.0,0.0,0.0,0.0,0.0,0.0,-2.6015,-2.6351,-2.6827,-2.7423,-2.7615,-2.7549,-2.7295,-2.6148,-2.5521,-2.5475,-2.4489,-2.4317,-2.4991,-2.5159,-2.5479,-2.5899,-2.54,-2.5618,-2.6384,-2.6188,-2.6649,-2.75,-2.7544,-2.7822,-2.8214,-2.8034,-2.841,-2.9073,-2.9672,-3.0504,-3.1527,0.0,0.0,0.0,0.0,0.0,0.0,0.0,-1.956,-2.0544,-2.1809,-2.14,-2.1146,-2.1554,-2.2118,-2.1944,0.0,0.0,0.0,0.0,0.0,0.0,0.0,0.0,0.0,0.0,0.0,0.0,0.0,0.0,0.0,0.0,0.0,0.0,0.0,0.0,0.0,0.0,0.0,0.0,0.0,0.0,0.0,0.0,0.0,0.0,0.0,0.0,0.0,0.0,0.0,0.0,-2.8535,-2.9381,-2.989,-3.02,-3.0412,0.0,0.0,-3.0837,-3.051,-2.9892,-2.8742,-2.775,-2.6949,-2.6569,0.0,0.0,-2.7218,-2.7959,-2.8415,-2.8487,-2.8951,0.0,0.0,0.0,-2.7684,0.0,0.0,0.0,0.0,0.0,0.0,0.0,0.0,0.0,-2.6184,-2.7106,-2.7615,-2.7575,-2.7815,-2.784,-2.7575,-2.6095,-2.5472,-2.5752,-2.4281,-2.38,-2.4286,-2.5035,-2.514,-2.4665,-2.4483,-2.5008,-2.6005,-2.5141,-2.5849,0.0,-2.7454,-2.7777,-2.8286,-2.8025,-2.8255,-2.8756,-2.8795,-2.9463,-3.0586,0.0,0.0,0.0,0.0,0.0,0.0,-1.9869,-2.0019,-2.0728,-2.2105,-2.1977,-2.1964,-2.2545,-2.2838,-2.2124,-2.0003,0.0,0.0,0.0,0.0,0.0,0.0,0.0,0.0,0.0,0.0,0.0,0.0,0.0,0.0,0.0,0.0,0.0,0.0,0.0,0.0,0.0,0.0,0.0,0.0,0.0,0.0,0.0,0.0,0.0,0.0,0.0,0.0,0.0,0.0,0.0,0.0,-2.8881,-2.9698,0.0,0.0,-3.1006,-3.1071,-3.1331,-3.0922,-3.0132,-2.8912,-2.7911,-2.7117,-2.6767,0.0,-2.646,-2.7001,-2.7841,-2.8497,-2.8378,-2.8951,-2.9412,0.0,0.0,0.0,0.0,0.0,0.0,0.0,0.0,0.0,0.0,0.0,-2.6757,-2.6925,-2.7537,-2.8014,-2.8253,-2.8235,-2.8137,-2.7974,-2.6735,-2.5858,-2.5374,-2.4206,-2.366,-2.3796,-2.4101,-2.4326,-2.4494,-2.4118,-2.4394,-2.5215,-2.495,-2.5761,0.0,-2.7533,-2.8014,-2.8584,-2.8537,-2.846,-2.8473,-2.8957,-2.9289,-2.9826,0.0,0.0,0.0,0.0,0.0,-2.1022,-2.0404,-2.0292,-2.0811,-2.2236,-2.2369,-2.2566,-2.3167,-2.3161,-2.2214,-1.991,-1.9651,0.0,0.0,0.0,0.0,0.0,0.0,0.0,0.0,0.0,0.0,0.0,0.0,0.0,0.0,0.0,0.0,0.0,0.0,0.0,0.0,0.0,0.0,0.0,0.0,0.0,0.0,0.0,0.0,0.0,0.0,0.0,0.0,0.0,0.0,0.0,0.0,0.0,0.0,0.0,-3.1156,-3.1155,-3.1302,-3.0857,-3.0086,-2.8814,-2.7946,-2.7206,0.0,0.0,-2.6283,-2.6432,-2.7231,-2.7968,-2.8193,-2.8818,-2.9351,0.0,0.0,-2.7709,0.0,0.0,0.0,0.0,0.0,0.0,0.0,-2.6985,-2.7357,-2.7712,-2.7959,-2.8308,-2.8779,-2.8716,-2.8525,-2.8259,-2.7306,-2.6381,-2.5555,-2.444,-2.3782,-2.3569,-2.3569,-2.3664,-2.3873,-2.3722,-2.3923,-2.4422,-2.4609,-2.5534,0.0,-2.7302,-2.8014,-2.8824,-2.8648,-2.8556,-2.8554,-2.9023,-2.9205,-2.9475,0.0,0.0,0.0,0.0,0.0,0.0,-2.0312,-2.0305,-2.0839,-2.2315,-2.2433,-2.2634,-2.3229,-2.3244,-2.252,-2.0826,-2.0615,0.0,0.0,0.0,0.0,0.0,0.0,0.0,0.0,0.0,-2.4429,-2.4294,-2.4237,0.0,0.0,0.0,0.0,0.0,0.0,0.0,0.0,0.0,0.0,0.0,0.0,0.0,0.0,0.0,0.0,0.0,0.0,0.0,0.0,0.0,0.0,0.0,0.0,0.0,0.0,0.0,-3.0991,-3.1011,-3.0623,-3.0304,-2.9784,-2.8435,-2.779,-2.7185,0.0,0.0,-2.5578,-2.5449,-2.6001,-2.6847,-2.7924,-2.849,-2.899,-2.9607,0.0,0.0,0.0,0.0,0.0,0.0,0.0,0.0,0.0,-2.7137,-2.7984,-2.8448,-2.8414,0.0,-2.9075,-2.9213,-2.9006,-2.842,-2.7609,-2.699,-2.6572,-2.5061,-2.4095,-2.3688,-2.3688,-2.324,-2.2459,-2.3165,-2.3569,-2.3707,-2.3932,-2.4946,0.0,-2.6636,-2.7579,-2.8849,-2.8186,-2.8433,-2.9164,-2.8808,-2.9046,-2.9722,0.0,0.0,0.0,0.0,0.0,0.0,0.0,-2.0365,-2.0717,-2.1681,-2.2288,-2.281,-2.3376,-2.3869,-2.3681,-2.2513,-2.1268,0.0,0.0,0.0,0.0,0.0,0.0,0.0,0.0,0.0,-2.4749,-2.5262,-2.4543,-2.4466,-2.4939,0.0,0.0,0.0,0.0,0.0,0.0,0.0,0.0,0.0,0.0,0.0,0.0,0.0,0.0,0.0,0.0,0.0,0.0,0.0,0.0,0.0,0.0,0.0,0.0,0.0,0.0,0.0,-3.084,-3.0557,-2.9797,-2.8551,-2.7565,-2.6684,-2.5857,0.0,-2.5276,-2.5107,-2.5839,-2.6601,-2.6935,-2.798,-2.8876,-2.9124,-2.921,0.0,0.0,0.0,0.0,0.0,0.0,0.0,0.0,0.0,-2.7721,-2.8818,-2.8637,-2.8685,-2.9213,-2.9403,-2.9403,-2.9167,-2.8537,-2.7898,-2.7218,-2.5813,-2.4696,-2.3829,-2.3331,-2.2899,-2.2546,-2.2867,-2.3037,-2.3126,-2.3684,-2.45,-2.5492,-2.6508,-2.736,-2.8134,-2.8595,-2.8732,-2.863,-2.9213,-2.919,-2.9147,0.0,0.0,0.0,0.0,0.0,0.0,0.0,-2.1094,-2.1168,-2.193,-2.2414,-2.2922,-2.3517,-2.4185,-2.423,-2.3324,-2.2175,0.0,0.0,0.0,0.0,0.0,0.0,0.0,0.0,-2.458,-2.493,-2.5706,-2.5023,-2.5084,-2.5833,-2.4782,-2.4281,0.0,0.0,0.0,0.0,0.0,0.0,0.0,0.0,0.0,-2.4705,0.0,0.0,0.0,0.0,0.0,0.0,0.0,0.0,0.0,0.0,0.0,0.0,0.0,0.0,0.0,0.0,-3.0117,-2.9413,-2.8475,-2.7325,0.0,0.0,0.0,-2.4661,-2.4417,-2.4952,-2.5688,-2.6351,-2.7312,-2.8185,-2.8658,-2.9115,0.0,0.0,0.0,0.0,0.0,0.0,0.0,0.0,-2.6949,-2.735,-2.8792,-2.8581,-2.8698,-2.9454,-2.9611,-2.9677,-2.9694,-2.9319,-2.8853,-2.8288,-2.6926,-2.5668,-2.461,-2.3661,-2.2997,-2.2615,-2.2735,-2.2809,-2.2838,-2.363,-2.4254,0.0,-2.5951,-2.6932,-2.7741,-2.8062,-2.8336,-2.8582,-2.9039,-2.8897,-2.8709,0.0,0.0,0.0,0.0,0.0,0.0,0.0,-2.2319,-2.2044,-2.2715,-2.2808,-2.3011,-2.3556,-2.4199,-2.4292,-2.3465,0.0,0.0,0.0,0.0,0.0,0.0,0.0,0.0,0.0,-2.4621,-2.501,-2.5798,-2.5616,-2.5935,-2.6673,-2.5661,-2.5129,-2.496,-2.3815,0.0,0.0,0.0,0.0,0.0,0.0,0.0,0.0,0.0,0.0,0.0,0.0,0.0,0.0,0.0,0.0,0.0,0.0,0.0,0.0,0.0,0.0,0.0,0.0,0.0,0.0,0.0,0.0,0.0,0.0,0.0,0.0,-2.3577,-2.3713,-2.4386,-2.6026,-2.6594,-2.715,-2.8279,-2.8709,0.0,0.0,0.0,0.0,0.0,0.0,0.0,-2.6765,-2.6479,-2.6847,-2.834,-2.8231,-2.8562,-2.9614,-2.9729,-2.9827,-2.9973,-2.9875,-2.9772,-2.9607,-2.8129,-2.6865,-2.5803,-2.4519,-2.3464,-2.2638,-2.2758,-2.2809,0.0,-2.3655,-2.4181,-2.4479,-2.5168,-2.6277,-2.7503,-2.6943,-2.7599,-2.8825,-2.8621,-2.8402,-2.8498,0.0,0.0,0.0,0.0,0.0,0.0,0.0,0.0,0.0,0.0,-2.3063,-2.3585,-2.2848,-2.3958,-2.4648,0.0,0.0,0.0,0.0,0.0,0.0,0.0,0.0,0.0,0.0,-2.4445,-2.5448,-2.6839,-2.6093,-2.6423,-2.7719,-2.6681,-2.5786,-2.5045,-2.4503,-2.3709,0.0,0.0,0.0,0.0,0.0,0.0,0.0,0.0,0.0,0.0,-2.5201,-2.4665,0.0,0.0,0.0,0.0,0.0,0.0,0.0,0.0,-2.5702,0.0,0.0,0.0,0.0,0.0,0.0,0.0,0.0,0.0,0.0,0.0,0.0,0.0,0.0,-2.6723,-2.7607,-2.8041,-2.8559,-2.856,0.0,0.0,0.0,0.0,0.0,-2.5416,-2.5608,-2.5514,-2.5857,-2.6832,-2.7093,-2.7545,-2.8297,-2.9043,-2.9499,-2.9695,-3.0016,-2.9995,-2.9595,-2.8182,-2.6972,-2.5933,-2.4674,-2.3626,-2.282,-2.2857,-2.288,-2.2894,-2.3093,-2.3435,-2.386,-2.4539,-2.5397,-2.644,-2.7531,-2.8187,-2.8559,-2.9452,-2.9444,-2.9112,0.0,0.0,0.0,0.0,0.0,0.0,0.0,0.0,0.0,0.0,0.0,0.0,0.0,0.0,0.0,0.0,0.0,0.0,0.0,0.0,0.0,0.0,0.0,0.0,-2.4138,-2.4892,-2.5917,-2.725,-2.705,-2.755,-2.8673,-2.7653,-2.6643,-2.5597,-2.4462,-2.3518,0.0,0.0,0.0,0.0,0.0,0.0,0.0,0.0,0.0,0.0,-2.4507,-2.3969,0.0,-2.3232,-2.3145,-2.2863,0.0,0.0,0.0,0.0,-2.4338,-2.5676,-2.6466,-2.7435,-2.8054,-2.7437,-2.6669,0.0,0.0,0.0,0.0,0.0,0.0,0.0,0.0,0.0,0.0,-2.7742,-2.8088,0.0,0.0,0.0,0.0,0.0,0.0,-2.4808,0.0,-2.4722,-2.5185,-2.6501,-2.6667,-2.7192,-2.8292,-2.8834,-2.9165,-2.9287,-2.9623,-2.9793,-2.9683,-2.8799,-2.7803,-2.6627,-2.5568,-2.4489,-2.3437,-2.3123,-2.297,-2.2888,-2.297,-2.3136,-2.3403,-2.3946,-2.4942,-2.6167,-2.7117,-2.8035,-2.8919,-2.9312,-2.93,-2.912,0.0,0.0,0.0,0.0,0.0,0.0,0.0,0.0,0.0,0.0,0.0,0.0,0.0,0.0,0.0,0.0,0.0,0.0,0.0,0.0,0.0,0.0,0.0,-2.3462,-2.4396,-2.5354,-2.6308,-2.7293,-2.8108,-2.882,-2.9394,-2.8701,-2.7607,-2.6148,-2.4106,-2.3057,0.0,0.0,0.0,0.0,-2.2893,0.0,0.0,0.0,0.0,0.0,0.0,0.0,0.0,-2.2555,-2.2463,-2.233,-2.1057,0.0,0.0,0.0,0.0,0.0,-2.4902,-2.6378,-2.775,-2.7762,-2.6705,-2.5544,0.0,0.0,0.0,0.0,0.0,0.0,0.0,0.0,0.0,0.0,0.0,0.0,0.0,0.0,0.0,0.0,0.0,0.0,-2.4307,-2.4078,-2.4588,-2.6165,-2.6264,-2.6891,-2.8373,-2.8638,-2.8794,-2.8834,-2.9129,-2.938,-2.9572,-2.94,-2.8681,-2.7396,-2.6635,-2.5507,-2.4124,-2.3647,-2.3272,-2.2955,0.0,0.0,-2.3293,-2.3621,-2.4818,-2.6438,-2.6611,-2.7829,-2.9461,-2.9001,-2.8841,-2.891,0.0,0.0,0.0,0.0,0.0,0.0,0.0,0.0,0.0,0.0,0.0,0.0,0.0,0.0,0.0,0.0,0.0,0.0,0.0,0.0,0.0,0.0,-2.1761,-2.2335,-2.2689,-2.4832,-2.6406,-2.7293,-2.8715,-2.9429,-2.9501,-2.9871,-2.8604,-2.5955,-2.3991,-2.3033,-2.2881,-2.2751,-2.2646,-2.2555,-2.2468,0.0,0.0,0.0,0.0,0.0,0.0,0.0,0.0,-2.2882,-2.2508,-2.2179,-2.1246,0.0,0.0,0.0,0.0,0.0,-2.32,-2.4449,-2.5687,-2.6208,-2.6545,0.0,0.0,0.0,0.0,0.0,0.0,0.0,0.0,0.0,0.0,0.0,0.0,0.0,0.0,0.0,0.0,0.0,0.0,-2.4626,-2.397,-2.376,-2.3764,-2.3996,-2.4706,-2.5521,-2.6405,-2.7522,-2.8276,-2.8543,-2.8935,-2.8967,-2.8621,-2.885,-2.8443,-2.7396,-2.6819,-2.5738,-2.4284,-2.4749,-2.4336,-2.326,0.0,-2.3978,-2.4028,-2.4032,-2.5231,-2.7116,-2.7637,-2.8524,-2.9512,-2.9771,-2.9524,-2.9041,0.0,0.0,0.0,0.0,0.0,0.0,0.0,0.0,0.0,0.0,0.0,0.0,0.0,0.0,0.0,0.0,0.0,0.0,0.0,0.0,0.0,-2.0697,-2.2399,-2.3215,-2.2902,-2.5322,-2.7069,-2.8005,-2.9072,-2.9813,-3.0167,-2.882,-2.7412,-2.5979,-2.4027,-2.3082,-2.2975,-2.3341,-2.3184,-2.2667,0.0,0.0,0.0,0.0,0.0,0.0,0.0,0.0,0.0,0.0,-2.1714,-2.1422,-2.0775,0.0,0.0,0.0,0.0,0.0,-2.2272,-2.3838,-2.5504,-2.5542,-2.6025,-2.6225,0.0,0.0,0.0,0.0,0.0,0.0,0.0,0.0,0.0,0.0,0.0,0.0,0.0,0.0,0.0,0.0,0.0,-2.4594,-2.3756,-2.3545,-2.3599,-2.4008,-2.4313,-2.4977,-2.6144,-2.7088,-2.7837,-2.8422,-2.8943,-2.899,-2.8573,-2.8716,-2.8443,-2.7727,-2.7306,-2.652,-2.5414,-2.5029,-2.4488,-2.3843,0.0,-2.3588,-2.3645,-2.4086,-2.531,-2.7023,-2.7794,-2.88,-2.9796,-2.9628,-2.9354,-2.9027,0.0,0.0,0.0,0.0,0.0,0.0,0.0,0.0,0.0,0.0,0.0,0.0,0.0,0.0,0.0,0.0,0.0,0.0,0.0,0.0,-2.1758,-2.0466,-2.2842,-2.4037,-2.369,-2.634,-2.8097,-2.8854,-2.972,-3.0344,-3.064,-2.7662,-2.622,-2.6051,-2.4289,-2.3457,-2.3398,-2.4212,-2.3986,-2.3102,0.0,0.0,0.0,0.0,0.0,0.0,0.0,0.0,0.0,0.0,0.0,0.0,0.0,0.0,0.0,-1.9969,-2.0823,-2.1786,-2.1478,-2.3189,-2.5073,-2.4995,0.0,-2.5933,-2.5586,0.0,0.0,0.0,0.0,0.0,0.0,0.0,0.0,0.0,0.0,0.0,0.0,0.0,0.0,-2.5165,-2.4888,-2.4506,-2.3799,-2.3458,-2.3585,-2.4276,-2.4189,-2.467,-2.6021,-2.6795,-2.7563,-2.8317,-2.8936,-2.9059,-2.8661,-2.8654,-2.8431,-2.8005,-2.7708,-2.7181,-2.642,-2.5625,-2.4929,-2.4332,-2.3886,-2.356,-2.3424,-2.4341,-2.5571,-2.7008,-2.797,-2.9034,-2.9946,-2.9357,-2.9137,-2.913,0.0,0.0,0.0,0.0,0.0,0.0,0.0,0.0,0.0,0.0,0.0,0.0,0.0,0.0,0.0,0.0,0.0,0.0,0.0,0.0,-2.2182,-1.9696,-2.1967,-2.3675,-2.45,-2.7789,-2.9551,-2.9615,-3.1095,-3.1357,-3.0368,-2.7524,-2.6197,-2.6146,-2.5004,-2.4466,-2.4433,-2.5242,-2.5041,-2.4164,-2.4037,0.0,0.0,0.0,0.0,0.0,0.0,0.0,0.0,0.0,0.0,0.0,0.0,0.0,0.0,0.0,-2.0076,-1.9566,-2.0503,-2.1887,-2.3218,-2.4049,0.0,0.0,-2.5905,-2.5158,0.0,0.0,0.0,0.0,0.0,0.0,0.0,0.0,0.0,0.0,0.0,0.0,-2.5962,-2.5104,-2.4888,-2.4616,-2.4118,-2.361,-2.3444,-2.3814,-2.4014,-2.4408,-2.5145,-2.6466,-2.7485,-2.811,-2.8779,-2.892,-2.8511,-2.8511,-2.835,-2.7995,-2.7845,-2.7359,-2.6602,-2.7264,-2.6474,-2.4612,-2.5179,-2.4936,-2.4206,-2.5208,-2.6374,-2.7647,-2.8697,-2.9417,-2.9777,-2.9427,-2.9456,-2.9603,0.0,0.0,0.0,0.0,0.0,0.0,0.0,0.0,0.0,0.0,0.0,0.0,0.0,0.0,0.0,0.0,0.0,0.0,0.0,0.0,-2.1946,-2.0373,-2.2256,-2.3713,-2.4578,-2.6893,-2.8614,-2.971,-3.0669,-3.0298,-2.8702,-2.7545,-2.6698,-2.6123,-2.5619,-2.5396,-2.5424,-2.6139,-2.591,-2.5029,-2.4832,-2.4362,0.0,0.0,0.0,0.0,0.0,0.0,0.0,0.0,-2.1695,0.0,0.0,0.0,0.0,0.0,0.0,-2.0809,-2.1154,-2.1957,-2.2916,-2.3879,0.0,0.0,0.0,0.0,0.0,0.0,0.0,0.0,0.0,0.0,0.0,0.0,0.0,0.0,0.0,0.0,-2.7154,-2.6336,-2.5758,-2.5153,-2.449,-2.3995,-2.3668,-2.3516,-2.3674,-2.3992,-2.4461,-2.5417,-2.6519,-2.7767,-2.8525,-2.8994,-2.9136,-2.8881,-2.8566,-2.8266,-2.794,-2.763,-2.7325,-2.7223,-2.6501,-2.5326,-2.513,-2.4454,-2.3647,-2.5199,-2.6196,-2.6907,-2.8662,-2.9339,-2.9361,-2.9302,-2.9177,-2.9045,0.0,0.0,0.0,0.0,0.0,0.0,0.0,0.0,0.0,0.0,0.0,0.0,0.0,0.0,0.0,0.0,0.0,0.0,-2.2441,-2.2511,-2.1952,-2.0525,-2.2346,-2.3539,-2.3838,-2.5962,-2.7923,-2.9636,-3.023,-2.9677,-2.8052,-2.7621,-2.7055,-2.6379,-2.6287,-2.6236,-2.6264,-2.7084,-2.6854,-2.5884,-2.5526,-2.4793,0.0,0.0,0.0,0.0,0.0,0.0,0.0,0.0,0.0,0.0,0.0,0.0,0.0,0.0,0.0,0.0,-2.1427,-2.1941,-2.2612,0.0,0.0,0.0,0.0,0.0,0.0,0.0,0.0,0.0,0.0,0.0,0.0,0.0,0.0,0.0,0.0,0.0,-2.7597,-2.6839,-2.5902,-2.5099,-2.4557,-2.4111,-2.3818,-2.3653,-2.3523,-2.3666,-2.4233,-2.4858,-2.5933,-2.7496,-2.8327,-2.8963,-2.9425,-2.9175,-2.8826,-2.8429,-2.8088,-2.7865,-2.7725,-2.7299,-2.6711,-2.6034,-2.5341,-2.4454,-2.3611,-2.5228,-2.6381,-2.722,-2.8711,-2.9236,-2.9126,-2.914,-2.9071,-2.8956,0.0,0.0,0.0,0.0,0.0,0.0,0.0,0.0,0.0,0.0,0.0,0.0,0.0,0.0,0.0,0.0,0.0,0.0,-2.2514,-2.3074,-2.2354,-1.9826,-2.2054,-2.3,-2.2222,-2.5339,-2.7802,-2.9492,-3.0094,-2.9833,-2.8767,-2.7761,-2.7202,-2.7009,-2.7009,-2.6974,-2.6992,-2.8121,-2.79,-2.676,-2.6083,-2.5097,-2.3921,0.0,0.0,0.0,0.0,0.0,0.0,0.0,0.0,0.0,0.0,0.0,0.0,0.0,-2.0821,-1.9628,-2.104,-2.1597,0.0,0.0,0.0,0.0,0.0,0.0,0.0,0.0,0.0,0.0,0.0,0.0,0.0,0.0,0.0,0.0,0.0,0.0,-2.6886,-2.6275,-2.5044,-2.4259,-2.4312,-2.3903,-2.3831,-2.4354,-2.3603,-2.354,-2.4537,-2.4976,-2.5874,-2.735,-2.8164,-2.8822,-2.9289,-2.9305,-2.902,-2.8511,-2.8277,-2.7999,-2.7625,-2.774,-2.7355,-2.6581,-2.6032,-2.5247,-2.4395,-2.5472,-2.713,-2.901,-2.9076,-2.9091,-2.9074,-2.8937,-2.9255,-2.965,0.0,0.0,0.0,0.0,0.0,0.0,0.0,0.0,0.0,0.0,0.0,0.0,0.0,0.0,0.0,0.0,0.0,0.0,-2.3313,-2.2349,-2.1443,-2.0646,-2.0777,-2.1262,-2.2103,-2.4031,-2.6449,-2.9357,-2.8824,-2.8295,-2.7761,-2.8025,-2.7741,-2.7027,-2.7598,-2.7861,-2.7893,-2.8139,-2.8116,-2.7826,-2.677,-2.6206,-2.5772,0.0,0.0,0.0,0.0,0.0,0.0,0.0,0.0,0.0,0.0,0.0,0.0,0.0,-2.1326,-2.0662,-2.1794,0.0,0.0,0.0,0.0,0.0,0.0,0.0,0.0,0.0,0.0,0.0,0.0,0.0,0.0,0.0,0.0,0.0,0.0,0.0,-2.7819,-2.7644,-2.6764,-2.5963,-2.5409,-2.4923,-2.4409,-2.3805,-2.3747,-2.3729,-2.3689,-2.4169,-2.5167,-2.6782,-2.7428,-2.8383,-2.971,-2.9441,-2.922,-2.9044,-2.8007,-2.7679,-2.8024,-2.7865,-2.7404,-2.6733,-2.6576,-2.5666,-2.4437,-2.612,-2.777,-2.9268,-2.9738,-2.969,-2.9298,-2.9209,-2.9141,-2.9148,0.0,0.0,0.0,0.0,0.0,0.0,0.0,0.0,0.0,0.0,0.0,0.0,0.0,0.0,0.0,0.0,0.0,0.0,0.0,0.0,-2.1703,-2.0988,-2.078,-2.1241,-2.2468,-2.2992,-2.4689,-2.7635,-2.7028,-2.6877,-2.7189,-2.7622,-2.7634,-2.7297,-2.7776,-2.8049,-2.8136,-2.8182,-2.8259,-2.8264,-2.7196,-2.6782,-2.6552,0.0,0.0,0.0,0.0,0.0,0.0,0.0,0.0,0.0,0.0,0.0,0.0,-2.1813,-2.1079,-2.0309,-2.136,0.0,0.0,0.0,0.0,0.0,0.0,0.0,0.0,0.0,0.0,0.0,0.0,0.0,0.0,0.0,0.0,0.0,0.0,-2.822,-2.7981,-2.7819,-2.713,-2.6473,-2.5932,-2.5371,-2.4809,-2.4175,-2.3941,-2.3711,-2.3516,-2.376,-2.471,-2.6472,-2.6961,-2.8068,-2.988,-2.9659,-2.9486,-2.9366,-2.8419,-2.7945,-2.7869,-2.7161,-2.6795,-2.6723,-2.6675,-2.5985,-2.5024,-2.6666,-2.7975,-2.9019,-2.9684,-2.9796,-2.952,-2.922,-2.914,-2.9164,0.0,0.0,0.0,0.0,0.0,0.0,0.0,0.0,0.0,0.0,0.0,0.0,0.0,0.0,0.0,0.0,0.0,0.0,0.0,0.0,-2.2694,-2.1094,-2.1578,-2.2179,-2.2852,-2.2148,-2.2749,-2.4751,-2.4973,-2.5708,-2.6889,-2.6832,-2.7088,-2.7596,-2.7651,-2.7748,-2.7903,-2.8136,-2.8273,-2.8237,-2.7357,-2.6939,-2.6623,-2.4272,0.0,0.0,0.0,0.0,0.0,0.0,0.0,0.0,0.0,0.0,0.0,-2.1307,-2.0365,-1.9102,0.0,0.0,0.0,0.0,0.0,0.0,0.0,0.0,0.0,0.0,0.0,0.0,0.0,0.0,0.0,0.0,0.0,0.0,0.0,0.0,-2.7674,-2.7298,-2.6711,-2.6268,-2.61,-2.5515,-2.5128,-2.5042,-2.4146,-2.3634,-2.3754,-2.3653,-2.4457,-2.6368,-2.6723,-2.7852,-2.9858,-2.9896,-2.9764,-2.9496,-2.9157,-2.8457,-2.7388,-2.6109,-2.5878,-2.6473,-2.6336,-2.611,-2.5904,-2.7018,-2.7881,-2.8527,-2.9197,-2.963,-2.9753,-2.9157,-2.9187,-2.9399,0.0,0.0,0.0,0.0,0.0,0.0,0.0,0.0,0.0,0.0,0.0,0.0,0.0,0.0,0.0,0.0,0.0,0.0,0.0,0.0,-2.2985,-2.2034,-2.1351,-2.1021,-2.1134,-2.1414,-2.1742,-2.2128,-2.4013,-2.5303,-2.5992,-2.6539,-2.6806,-2.6862,-2.7399,-2.7659,-2.7748,-2.7748,-2.8027,-2.8361,-2.7342,-2.7122,-2.7277,-2.5907,-2.4539,0.0,0.0,0.0,0.0,0.0,0.0,0.0,-2.0837,-2.026,-1.9828,-2.0293,-1.9946,0.0,0.0,0.0,0.0,0.0,0.0,0.0,0.0,0.0,0.0,0.0,0.0,0.0,0.0,0.0,0.0,0.0,0.0,0.0,0.0,0.0,-2.7813,-2.7819,-2.7518,-2.7118,-2.6678,-2.6402,-2.5781,-2.4694,-2.441,-2.403,-2.3437,-2.3523,-2.4516,-2.6494,-2.6782,-2.7809,-2.9726,-2.9742,-2.9653,-2.9496,-2.8591,-2.8025,-2.7755,-2.6885,-2.6153,-2.5577,-2.5499,-2.5658,-2.6035,-2.7006,-2.797,-2.8871,-2.9752,-3.0095,-3.0049,-3.0062,-2.961,-2.9013,0.0,0.0,0.0,0.0,0.0,0.0,0.0,0.0,0.0,0.0,0.0,0.0,0.0,0.0,0.0,0.0,0.0,0.0,0.0,0.0,0.0,-2.2159,-2.1201,-2.0475,-1.9995,-2.0943,-2.1345,-2.1154,-2.3441,0.0,0.0,0.0,0.0,-2.6573,-2.7327,-2.7701,-2.78,-2.7847,-2.796,-2.8003,-2.7322,-2.7037,-2.6885,-2.5546,-2.4462,-2.3541,-2.288,0.0,0.0,0.0,0.0,0.0,0.0,0.0,-2.0261,-2.0426,0.0,0.0,0.0,0.0,0.0,0.0,0.0,0.0,0.0,0.0,0.0,0.0,0.0,0.0,0.0,0.0,0.0,0.0,0.0,0.0,0.0,0.0,0.0,-2.7836,-2.7825,-2.7674,-2.7391,-2.7146,-2.6468,-2.5227,-2.4814,-2.438,-2.3896,-2.3978,-2.4978,-2.7014,-2.7195,-2.8002,-2.9592,-2.9608,-2.9541,-2.9396,-2.8433,-2.7711,-2.7174,-2.6588,-2.5842,-2.5024,-2.5116,-2.5296,-2.5612,-2.674,-2.7799,-2.8806,-2.9774,-3.0302,-3.0533,-3.0444,-2.9985,-2.9392,0.0,0.0,0.0,0.0,0.0,0.0,0.0,0.0,0.0,0.0,0.0,0.0,0.0,0.0,0.0,0.0,0.0,0.0,0.0,0.0,0.0,0.0,-2.1053,-2.016,-1.9502,-2.0726,-2.1257,-2.099,0.0,0.0,0.0,0.0,0.0,-2.6501,-2.7309,-2.7745,-2.7826,-2.8059,-2.8,-2.7727,-2.7423,-2.6968,-2.6332,-2.5032,-2.4233,-2.3683,-2.2759,-2.1958,-2.1414,-2.1984,0.0,0.0,0.0,0.0,-2.0831,-2.0831,0.0,0.0,0.0,0.0,0.0,0.0,0.0,0.0,0.0,0.0,0.0,0.0,0.0,0.0,0.0,0.0,0.0,0.0,0.0,0.0,0.0,0.0,0.0,-2.7514,-2.775,-2.786,-2.7885,-2.7666,-2.7078,-2.6052,-2.5409,-2.4957,-2.4723,-2.4723,-2.5606,-2.7511,-2.7611,-2.8206,-2.9412,-2.945,-2.9389,-2.9259,-2.8559,-2.7684,-2.6619,-2.616,-2.5539,-2.4863,-2.4936,-2.5013,-2.5196,-2.6299,-2.7464,-2.8617,-2.9517,-3.0317,-3.0949,-3.0634,-3.0305,-2.996,0.0,0.0,0.0,0.0,0.0,0.0,0.0,0.0,0.0,0.0,0.0,0.0,0.0,0.0,0.0,0.0,0.0,0.0,0.0,0.0,0.0,-2.2837,-2.0757,-1.9793,-2.0238,-2.0942,-2.1207,-2.099,0.0,0.0,0.0,0.0,0.0,-2.6362,0.0,0.0,-2.7569,-2.7829,-2.8098,-2.8336,-2.7835,-2.7311,-2.6822,-2.6721,-2.5317,-2.3452,-2.3986,-2.3192,-2.184,-2.1403,-2.1558,0.0,0.0,0.0,0.0,0.0,0.0,0.0,0.0,0.0,0.0,0.0,0.0,0.0,0.0,0.0,0.0,0.0,0.0,0.0,0.0,0.0,0.0,0.0,0.0,0.0,0.0,0.0,0.0,0.0,-2.7115,-2.7361,-2.7463,-2.7755,-2.758,-2.6723,-2.6563,-2.623,-2.5556,-2.5604,-2.6168,-2.7388,-2.765,-2.8222,-2.9144,-2.9259,-2.9259,-2.9121,-2.8895,-2.838,-2.7578,-2.6844,-2.6138,-2.5429,-2.4712,-2.4826,-2.5546,-2.5793,-2.6974,-2.8711,-2.9093,-2.9958,-3.0986,-3.0949,-3.0457,-2.9856,0.0,0.0,0.0,0.0,0.0,0.0,0.0,0.0,0.0,0.0,0.0,0.0,0.0,0.0,0.0,0.0,0.0,0.0,0.0,0.0,0.0,-2.2444,-2.0888,-1.992,-1.9686,-2.0291,-2.072,0.0,0.0,0.0,0.0,-2.5627,-2.6295,0.0,0.0,0.0,0.0,-2.8031,-2.8121,-2.8095,-2.7852,-2.7153,-2.6284,0.0,-2.5369,-2.3955,-2.387,-2.3334,-2.2547,-2.1796,-2.167,-2.1746,-2.1284,0.0,0.0,0.0,0.0,0.0,0.0,0.0,0.0,0.0,0.0,0.0,0.0,0.0,0.0,0.0,0.0,0.0,0.0,0.0,0.0,0.0,0.0,0.0,0.0,0.0,0.0,0.0,-2.6982,-2.7346,-2.759,-2.798,-2.7862,-2.6979,-2.6909,-2.6765,-2.6453,-2.6517,-2.7095,-2.8155,-2.8303,-2.8545,-2.899,-2.9021,-2.877,-2.8309,-2.8247,-2.8109,-2.7836,-2.7103,-2.6296,-2.5442,-2.4622,-2.4385,-2.4648,-2.5284,-2.6402,-2.7834,-2.8536,-2.9703,-3.0993,-3.0871,-3.0662,-3.0419,0.0,0.0,0.0,0.0,0.0,0.0,0.0,0.0,0.0,0.0,0.0,0.0,0.0,0.0,0.0,0.0,0.0,0.0,0.0,0.0,0.0,-2.1988,-2.1019,-2.0062,-1.9127,-1.9741,0.0,0.0,0.0,0.0,-2.4152,-2.5464,-2.615,0.0,-2.7262,0.0,0.0,0.0,0.0,-2.7992,-2.8088,-2.7432,0.0,0.0,0.0,0.0,-2.3915,-2.3436,-2.3064,-2.2183,-2.1809,-2.1634,-2.1223,-2.0909,0.0,0.0,0.0,0.0,0.0,0.0,0.0,0.0,0.0,0.0,0.0,0.0,0.0,0.0,0.0,0.0,0.0,0.0,0.0,0.0,0.0,0.0,0.0,0.0,0.0,0.0,0.0,-2.7265,-2.7534,-2.8014,-2.8012,-2.7324,-2.7278,-2.7302,-2.7302,-2.7517,-2.796,-2.8732,-2.8842,-2.8803,-2.8653,-2.863,-2.8318,-2.7695,-2.7905,-2.7983,-2.7968,-2.7376,-2.6624,-2.5739,-2.4915,-2.4442,-2.4336,-2.5038,-2.6003,-2.7074,-2.8089,-2.9376,-3.0573,-3.0459,-3.051,-3.0602,0.0,0.0,0.0,0.0,0.0,0.0,0.0,0.0,0.0,0.0,0.0,0.0,0.0,0.0,-2.4187,-2.4948,-2.408,-2.3774,-2.4461,-2.3624,-2.2715,-2.1852,-2.096,0.0,-1.9122,-1.9686,0.0,0.0,0.0,0.0,-2.3942,-2.4978,-2.5792,-2.6429,-2.7238,-2.7587,-2.7572,0.0,0.0,0.0,-2.8883,-2.8609,0.0,0.0,0.0,0.0,0.0,0.0,-2.307,-2.2191,-2.1799,-2.1524,-2.0572,-2.1065,-2.1867,0.0,0.0,0.0,0.0,0.0,0.0,0.0,0.0,0.0,0.0,0.0,0.0,0.0,0.0,0.0,0.0,0.0,0.0,0.0,0.0,0.0,0.0,0.0,0.0,0.0,0.0,-2.68,-2.6927,-2.76,-2.8005,-2.7959,-2.8067,-2.814,-2.814,-2.8518,-2.8677,-2.8597,-2.8928,-2.873,-2.7955,-2.8052,-2.7992,-2.7695,-2.842,-2.8542,-2.8174,-2.7894,-2.7399,-2.6761,-2.5919,-2.5557,-2.5574,-2.5314,-2.5882,-2.6974,-2.7868,-2.8737,-2.9477,-2.9525,-2.9702,-2.982,0.0,0.0,0.0,0.0,0.0,0.0,0.0,0.0,0.0,0.0,0.0,0.0,0.0,-2.4834,-2.4727,-2.4942,-2.4601,-2.446,-2.4687,-2.3889,-2.2978,-2.1962,-2.1013,-2.0009,-1.8985,-1.9129,0.0,0.0,0.0,-2.1978,-2.335,-2.4791,-2.5573,-2.5824,-2.7142,-2.7751,-2.7768,-2.7968,0.0,0.0,-2.8433,-2.8233,-2.7819,0.0,0.0,0.0,0.0,0.0,0.0,-2.2858,-2.252,-2.2209,-2.0689,-2.0456,-2.0721,0.0,0.0,0.0,0.0,0.0,0.0,0.0,0.0,0.0,0.0,0.0,0.0,0.0,0.0,0.0,0.0,0.0,0.0,0.0,0.0,0.0,0.0,0.0,0.0,0.0,0.0,0.0,-2.6823,-2.724,-2.7575,-2.7955,-2.8054,-2.8152,-2.8323,-2.8381,-2.8453,-2.8612,-2.8621,-2.831,-2.7581,-2.7741,-2.7809,-2.7695,-2.8451,-2.8779,-2.8748,-2.8284,-2.7959,-2.776,-2.6832,-2.5934,-2.5137,-2.5217,-2.5482,-2.5873,-2.6523,-2.7405,-2.8326,-2.8629,-2.886,-2.9004,0.0,0.0,0.0,0.0,0.0,0.0,0.0,0.0,0.0,0.0,0.0,0.0,0.0,0.0,-2.5289,-2.4875,-2.4849,-2.4832,-2.4753,-2.4241,-2.3494,-2.2441,-2.1467,-2.0428,-1.9363,-1.9227,0.0,0.0,0.0,0.0,0.0,-2.4669,-2.5415,-2.5403,-2.7074,-2.7947,0.0,0.0,0.0,-2.9012,0.0,-2.8536,-2.8441,0.0,0.0,0.0,0.0,0.0,0.0,0.0,0.0,0.0,0.0,0.0,0.0,0.0,0.0,0.0,0.0,0.0,0.0,0.0,0.0,0.0,0.0,0.0,0.0,0.0,0.0,0.0,0.0,0.0,0.0,0.0,0.0,0.0,0.0,0.0,0.0,0.0,0.0,0.0,0.0,-2.6849,-2.7265,-2.7815,-2.7905,0.0,-2.8177,-2.8186,-2.8332,-2.8597,-2.8261,-2.7805,-2.7156,-2.7285,-2.7353,-2.7323,-2.8162,-2.8685,-2.8928,-2.8486,-2.8253,-2.8076,-2.7378,-2.641,-2.5305,-2.5414,-2.527,-2.5049,-2.561,-2.6399,-2.7243,-2.7421,-2.7948,-2.8544,0.0,0.0,0.0,0.0,0.0,0.0,0.0,0.0,0.0,0.0,0.0,0.0,0.0,0.0,0.0,-2.4781,-2.476,-2.476,-2.4623,-2.4706,-2.4289,-2.3244,-2.2345,-2.1349,-2.0255,-2.0031,0.0,0.0,0.0,0.0,0.0,0.0,-2.5333,-2.5279,-2.7031,-2.82,-2.8895,0.0,-2.9546,-3.0395,0.0,-2.9602,-2.985,0.0,0.0,0.0,-2.6504,-2.6232,0.0,-2.5336,0.0,0.0,0.0,0.0,0.0,0.0,0.0,0.0,0.0,0.0,0.0,0.0,0.0,0.0,0.0,0.0,0.0,0.0,0.0,0.0,0.0,0.0,0.0,0.0,0.0,0.0,0.0,0.0,0.0,0.0,0.0,0.0,0.0,-2.6467,-2.7071,-2.7534,-2.77,-2.779,-2.779,-2.8039,-2.8308,-2.8573,-2.7845,-2.7217,-2.6704,-2.6673,-2.6607,-2.6543,-2.7585,-2.8276,-2.8597,-2.8503,-2.8238,-2.7815,-2.7529,-2.699,-2.6312,-2.5866,-2.5267,-2.4654,-2.5252,-2.5796,-2.6218,-2.5988,-2.7016,-2.8368,0.0,0.0,0.0,0.0,0.0,0.0,0.0,0.0,0.0,0.0,0.0,0.0,0.0,-2.7551,-2.6381,-2.4831,-2.4817,-2.4868,-2.4813,-2.5473,-2.5116,-2.342,-2.3464,-2.2713,-2.0962,-2.073,0.0,0.0,0.0,0.0,0.0,0.0,0.0,0.0,-2.7095,-2.8267,-2.886,-2.8295,0.0,0.0,-2.9132,-2.9218,0.0,0.0,0.0,0.0,0.0,-2.5438,-2.5643,0.0,-2.5344,-2.5344,0.0,0.0,0.0,0.0,0.0,0.0,-2.1322,0.0,0.0,0.0,0.0,0.0,0.0,0.0,0.0,0.0,0.0,0.0,0.0,0.0,0.0,0.0,0.0,0.0,0.0,0.0,0.0,0.0,0.0,0.0,0.0,-2.6176,-2.6695,0.0,-2.7437,-2.7539,-2.765,-2.7815,-2.794,-2.8014,-2.7055,-2.6572,-2.655,-2.6162,-2.6275,-2.6869,-2.7592,-2.8253,-2.8803,-2.835,-2.8326,-2.8542,-2.7524,-2.7242,-2.7364,-2.6305,-2.538,-2.4687,-2.4859,-2.4875,-2.4975,-2.5814,-2.6333,-2.6722,0.0,0.0,0.0,0.0,0.0,0.0,0.0,0.0,0.0,0.0,0.0,0.0,0.0,0.0,-2.7184,-2.5777,-2.5811,-2.5729,-2.5341,-2.6254,-2.5963,-2.4073,-2.4197,-2.3529,-2.1814,-2.1565,0.0,0.0,0.0,0.0,0.0,0.0,0.0,0.0,0.0,0.0,0.0,0.0,0.0,0.0,-2.9779,0.0,0.0,-2.8854,-2.8209,0.0,0.0,0.0,-2.6842,-2.6439,-2.619,0.0,0.0,0.0,0.0,0.0,0.0,0.0,0.0,0.0,0.0,0.0,0.0,0.0,-1.8208,-1.8043,-1.8034,0.0,0.0,0.0,0.0,0.0,0.0,0.0,0.0,0.0,0.0,0.0,0.0,0.0,0.0,0.0,0.0,-2.5632,-2.6203,-2.6867,-2.7074,-2.7295,-2.7499,-2.7539,-2.7615,-2.77,-2.6727,-2.6259,-2.6371,-2.5737,-2.5734,-2.6381,-2.7202,-2.7709,-2.7905,-2.8097,-2.8132,-2.7997,-2.753,-2.7198,-2.6896,-2.6287,-2.551,-2.4669,-2.4273,-2.4365,-2.4781,-2.5202,-2.5925,-2.6681,0.0,0.0,0.0,0.0,0.0,0.0,0.0,0.0,0.0,0.0,0.0,0.0,0.0,0.0,0.0,-2.7065,-2.7158,-2.6924,-2.608,-2.7009,-2.6813,-2.5095,-2.4883,-2.4174,-2.2835,-2.255,-2.2247,0.0,0.0,0.0,0.0,0.0,0.0,0.0,0.0,0.0,0.0,0.0,0.0,-3.1119,-3.094,-3.111,0.0,0.0,-2.9489,-2.9618,-2.8879,-2.8716,-2.8745,-2.8135,-2.7251,0.0,0.0,0.0,0.0,0.0,-2.2296,0.0,0.0,0.0,0.0,0.0,0.0,0.0,-1.7974,-1.7505,-1.7369,-1.8684,0.0,0.0,0.0,0.0,0.0,0.0,0.0,0.0,0.0,0.0,0.0,0.0,0.0,0.0,-2.4509,-2.5009,-2.5617,-2.6351,-2.668,-2.6982,-2.7284,-2.7181,-2.7218,-2.7484,-2.6519,-2.6039,-2.6077,-2.5242,-2.5061,-2.5521,-2.653,-2.6839,-2.6596,-2.7845,-2.7832,-2.6922,-2.7504,-2.699,-2.5756,-2.5956,-2.5437,-2.441,-2.3591,-2.4014,-2.5022,-2.4448,-2.5646,-2.748,0.0,0.0,0.0,0.0,0.0,0.0,0.0,0.0,0.0,0.0,0.0,0.0,0.0,0.0,0.0,0.0,-2.7,-2.6995,-2.6868,-2.7567,-2.7522,-2.645,-2.662,-2.5922,-2.4177,-2.3912,-2.3379,0.0,0.0,0.0,0.0,0.0,0.0,0.0,0.0,0.0,0.0,0.0,0.0,-3.0234,-3.0914,0.0,-3.1257,-3.0403,-2.9471,-2.8561,-2.8187,-2.7938,-2.7761,-2.7531,-2.7317,-2.7024,0.0,0.0,0.0,0.0,0.0,0.0,0.0,0.0,0.0,0.0,0.0,0.0,-1.8051,-1.802,-1.8276,0.0,0.0,0.0,0.0,0.0,0.0,0.0,0.0,0.0,0.0,0.0,0.0,0.0,0.0,0.0,-2.4681,-2.4751,-2.505,-2.5797,-2.6203,-2.6496,-2.6669,-2.6537,-2.659,-2.6867,-2.5503,-2.4921,-2.5304,-2.4261,-2.4306,-2.5495,-2.5726,-2.6186,-2.6839,-2.7426,-2.7636,-2.752,-2.7489,-2.7126,-2.6479,-2.5428,-2.4304,-2.3242,-2.3178,-2.3409,-2.3825,-2.4339,-2.5392,-2.6623,0.0,0.0,0.0,0.0,0.0,0.0,0.0,0.0,0.0,0.0,0.0,0.0,0.0,0.0,0.0,0.0,0.0,0.0,-2.7541,-2.8285,-2.8133,-2.6763,-2.7178,-2.6537,-2.458,-2.4353,-2.392,-2.325,0.0,0.0,0.0,0.0,0.0,0.0,0.0,0.0,0.0,0.0,-2.9524,-3.0007,-3.0763,0.0,-3.127,-3.0924,-3.0191,-2.9316,-2.9046,-2.8493,-2.7859,-2.7586,-2.7425,0.0,0.0,-2.6102,-2.5837,0.0,-2.2803,-2.2603,0.0,0.0,0.0,-2.0381,0.0,0.0,0.0,-1.8625,-1.8377,-1.9221,0.0,0.0,0.0,0.0,0.0,0.0,0.0,0.0,0.0,0.0,0.0,0.0,0.0,0.0,-2.3644,-2.3677,-2.4108,-2.516,-2.606,-2.6486,-2.6312,-2.6231,-2.619,-2.6149,-2.4966,-2.4498,-2.4839,-2.3888,-2.3859,-2.4816,-2.5203,-2.5559,-2.5885,-2.6938,-2.7257,-2.7025,-2.7279,-2.7051,-2.64,-2.5282,-2.402,-2.2776,-2.253,-2.2944,-2.3658,-2.3851,-2.5,-2.6512,0.0,0.0,0.0,0.0,0.0,0.0,0.0,0.0,0.0,0.0,0.0,0.0,0.0,0.0,0.0,0.0,0.0,0.0,0.0,-2.8921,-2.8582,-2.7037,-2.744,-2.6742,-2.4775,-2.4706,-2.4432,-2.3857,0.0,0.0,0.0,0.0,0.0,0.0,0.0,0.0,0.0,0.0,0.0,-3.015,0.0,-3.1057,-3.1374,-3.1237,-3.0841,-3.0338,-2.9941,-2.9166,-2.8273,-2.791,-2.7561,-2.714,-2.6452,-2.6319,0.0,0.0,0.0,0.0,0.0,0.0,0.0,0.0,0.0,-2.0066,0.0,0.0,0.0,0.0,0.0,0.0,0.0,0.0,0.0,0.0,0.0,0.0,0.0,0.0,0.0,0.0,0.0,0.0,-2.2424,-2.2654,-2.325,-2.4455,-2.5692,-2.6234,-2.5914,-2.5932,-2.5852,-2.5632,-2.4655,-2.4185,-2.4341,-2.3613,-2.343,-2.3831,-2.4576,-2.4914,-2.4911,-2.6423,-2.6873,-2.6489,-2.7051,-2.6834,-2.6021,-2.5096,-2.3879,-2.2563,-2.1924,-2.2454,-2.3508,-2.323,-2.4512,-2.6325,-2.441,-2.4532,0.0,0.0,0.0,0.0,0.0,0.0,0.0,0.0,0.0,0.0,0.0,0.0,0.0,0.0,0.0,0.0,-3.0072,0.0,-2.8603,-2.8373,-2.8107,-2.7097,-2.5256,-2.5838,-2.5467,-2.4073,0.0,0.0,0.0,0.0,0.0,0.0,-2.74,0.0,0.0,0.0,-2.9596,0.0,-3.0855,-3.1289,0.0,-3.1021,-3.0593,-3.0204,-2.9325,-2.879,-2.8447,0.0,-2.7692,-2.7164,0.0,-2.7351,-2.6937,0.0,0.0,0.0,0.0,0.0,0.0,0.0,-2.1678,0.0,0.0,0.0,-1.9989,-1.9654,0.0,0.0,0.0,0.0,0.0,0.0,0.0,0.0,0.0,0.0,0.0,0.0,0.0,0.0,-2.1955,-2.2604,-2.3137,-2.3546,-2.4358,-2.4945,-2.5119,-2.5354,-2.555,-2.5688,-2.427,-2.3459,-2.3372,-2.2873,-2.2692,-2.2875,-2.3371,-2.4143,-2.5102,-2.6012,-2.6627,-2.7008,-2.6975,-2.6473,-2.5568,-2.4484,-2.3354,-2.2273,-2.1544,-2.1677,-2.2356,-2.277,-2.3835,-2.5129,-2.4595,-2.3803,0.0,0.0,0.0,0.0,0.0,0.0,0.0,0.0,0.0,0.0,0.0,0.0,0.0,0.0,0.0,-2.9569,0.0,0.0,0.0,-2.8435,-2.8146,-2.7399,-2.6076,-2.6176,-2.5932,-2.5327,-2.5757,0.0,0.0,0.0,0.0,0.0,-2.7509,0.0,-2.8501,0.0,0.0,0.0,0.0,0.0,0.0,-3.0797,-3.0342,-2.975,-2.922,-2.877,-2.8427,0.0,-2.7767,0.0,0.0,0.0,0.0,0.0,0.0,0.0,0.0,0.0,0.0,0.0,0.0,0.0,-2.1801,0.0,-2.0996,0.0,0.0,0.0,0.0,0.0,0.0,0.0,-1.6816,0.0,0.0,0.0,0.0,0.0,0.0,0.0,-2.0129,-2.1305,-2.2017,-2.2055,-2.332,-2.4295,-2.4805,-2.4749,-2.4805,-2.4992,-2.4039,-2.3404,-2.3147,-2.2711,-2.261,-2.2824,-2.3012,-2.3726,-2.4894,-2.5614,-2.6374,-2.7076,-2.6777,-2.6214,-2.5386,-2.4343,-2.3305,-2.2338,-2.1524,-2.1586,-2.2176,-2.2145,-2.3164,-2.4681,-2.4651,0.0,0.0,0.0,0.0,0.0,0.0,0.0,0.0,0.0,0.0,0.0,-2.9606,-3.072,0.0,0.0,-2.9704,-2.9682,0.0,0.0,-2.8393,0.0,0.0,0.0,-2.6567,-2.6539,-2.6479,-2.6342,-2.6771,-2.7303,0.0,0.0,0.0,0.0,0.0,-2.8132,-2.878,0.0,0.0,-3.0321,-3.0822,-3.0853,-3.0558,-3.0429,-3.0,-2.9418,-2.9098,-2.874,-2.8396,-2.8356,-2.792,0.0,-2.7686,0.0,0.0,0.0,0.0,0.0,-2.4646,0.0,0.0,0.0,0.0,0.0,0.0,0.0,0.0,0.0,0.0,0.0,0.0,0.0,0.0,0.0,0.0,0.0,0.0,0.0,0.0,0.0,0.0,0.0,0.0,-2.0117,-2.0914,-2.1077,-2.2384,-2.3501,-2.4221,-2.4297,-2.434,-2.4368,-2.3985,-2.3567,-2.3085,-2.2792,-2.2644,-2.2622,-2.2758,-2.3368,-2.4409,-2.5125,-2.5952,-2.6781,-2.6509,-2.5926,-2.5102,-2.4138,-2.3216,-2.2342,-2.1454,-2.1468,-2.1989,-2.1783,-2.2629,-2.3919,-2.4465,-2.4441,0.0,0.0,0.0,0.0,0.0,0.0,0.0,0.0,0.0,0.0,0.0,0.0,0.0,0.0,0.0,-2.9781,-2.9669,0.0,-2.8219,0.0,0.0,-2.7291,0.0,-2.7224,-2.7326,-2.669,-2.7533,-2.8021,0.0,0.0,0.0,0.0,0.0,-2.8896,-2.9691,-3.03,-3.0714,-3.0988,-3.1069,-3.0921,-3.0622,0.0,-2.9499,-2.9243,-2.885,0.0,0.0,-2.8629,-2.821,0.0,0.0,0.0,0.0,0.0,0.0,0.0,0.0,0.0,0.0,-2.4947,0.0,0.0,0.0,0.0,-2.0419,0.0,0.0,0.0,0.0,0.0,0.0,0.0,0.0,0.0,0.0,0.0,0.0,0.0,0.0,0.0,0.0,-1.9539,-2.0057,-2.1018,-2.1583,-2.2248,-2.3105,-2.4142,-2.4491,-2.4037,-2.4192,-2.3872,-2.301,-2.2985,-2.2622,-2.195,-2.2401,-2.2954,-2.3564,-2.4438,-2.5277,-2.6038,-2.6081,-2.5542,-2.4553,-2.3697,-2.2907,-2.22,-2.1188,-2.1095,-2.1552,-2.1876,-2.2198,-2.2573,0.0,0.0,0.0,0.0,0.0,0.0,0.0,-2.7872,0.0,0.0,0.0,0.0,0.0,-3.1543,-3.2104,0.0,0.0,-3.1026,-3.0341,-2.993,0.0,0.0,0.0,-2.8019,0.0,0.0,-2.7156,-2.6957,-2.7217,-2.7369,0.0,0.0,0.0,0.0,0.0,-2.8562,0.0,0.0,0.0,0.0,0.0,-3.0074,-3.0235,0.0,0.0,-2.9396,-2.8656,-2.8146,0.0,-2.8244,-2.7969,-2.7552,-2.8091,-2.8107,-2.7881,-2.7819,-2.7973,0.0,0.0,0.0,-2.6927,-2.6759,0.0,0.0,0.0,0.0,0.0,0.0,0.0,0.0,0.0,0.0,0.0,0.0,0.0,0.0,0.0,0.0,0.0,0.0,0.0,0.0,0.0,0.0,0.0,-1.9753,-2.0414,-2.1342,-2.277,-2.3277,-2.3634,-2.3849,-2.3649,-2.3365,-2.3069,-2.2805,-2.2413,-2.1886,-2.2007,-2.2264,-2.2666,-2.3069,-2.3677,-2.4357,-2.4363,-2.3656,-2.2498,-2.2738,-2.2286,-2.1436,-2.1343,-2.1374,-2.1469,-2.1859,-2.2102,-2.2297,-2.5809,0.0,0.0,0.0,0.0,0.0,0.0,0.0,0.0,0.0,-3.0688,0.0,-3.0374,0.0,-3.2397,0.0,-3.1339,-3.158,-3.0579,-3.0394,0.0,-2.9378,-2.8926,0.0,0.0,0.0,0.0,-2.7103,-2.7086,-2.7084,0.0,0.0,0.0,0.0,0.0,0.0,-2.9171,0.0,-3.0013,0.0,0.0,-2.969,0.0,0.0,-2.9275,-2.936,0.0,-2.7986,-2.7549,-2.7775,-2.7715,-2.759,-2.7875,-2.8101,-2.8242,-2.8148,-2.8367,-2.8624,-2.8534,-2.8183,0.0,-2.7428,-2.6662,0.0,-2.4053,0.0,0.0,0.0,0.0,0.0,0.0,0.0,0.0,0.0,0.0,0.0,0.0,-1.5341,0.0,0.0,0.0,0.0,0.0,0.0,-1.8235,-1.9291,-2.0,-2.0957,0.0,-2.2789,-2.3218,-2.365,-2.3354,-2.3221,-2.3275,-2.2862,-2.245,-2.2036,-2.1859,-2.1825,-2.1987,-2.2266,-2.2658,-2.3169,-2.3403,-2.281,-2.1719,-2.2129,-2.1799,-2.1087,-2.1313,-2.1521,-2.1694,-2.1918,-2.2046,-2.2117,0.0,0.0,0.0,0.0,-2.5892,0.0,0.0,0.0,-2.9717,0.0,-3.0766,-3.087,-3.2276,-3.2324,-3.193,-3.1106,-3.1534,-3.1467,-3.0556,-3.0382,0.0,0.0,-2.9051,-2.8522,-2.8372,0.0,0.0,0.0,0.0,0.0,0.0,0.0,0.0,0.0,-2.8319,0.0,-2.9046,-2.9928,-3.0177,-2.993,-2.936,-2.9799,-3.0678,-2.9643,-2.9261,-2.921,-2.8737,-2.8085,-2.742,-2.7248,-2.7423,-2.7775,-2.7815,-2.8116,-2.8425,-2.8474,-2.8486,-2.8508,-2.8569,-2.8536,-2.8224,-2.7101,-2.6709,0.0,0.0,0.0,-2.2392,0.0,0.0,0.0,0.0,0.0,0.0,0.0,0.0,0.0,0.0,0.0,0.0,0.0,0.0,0.0,0.0,-1.7861,-1.8675,-1.9587,-2.0263,0.0,0.0,-2.2608,-2.3252,-2.3355,-2.3339,-2.3376,-2.3526,-2.3058,-2.2616,-2.223,-2.1842,-2.1589,-2.1524,-2.1937,-2.2192,-2.2392,-2.307,-2.2873,-2.2052,-2.1769,-2.148,-2.1188,-2.1059,-2.1476,-2.2136,-2.2074,-2.1967,-2.1888,-2.6253,-2.5612,-2.499,0.0,-2.6293,-2.7111,0.0,0.0,0.0,0.0,-3.0858,-3.1148,-3.1437,-3.2393,-3.2616,-3.1616,-3.2197,0.0,0.0,0.0,0.0,-3.0646,-3.0318,-2.9817,-2.9128,-2.8169,0.0,-2.7537,0.0,0.0,-2.6261,0.0,0.0,0.0,0.0,0.0,-2.8732,-2.9071,-2.9437,-2.9752,-2.9493,-2.9912,0.0,0.0,-3.0083,-2.9881,-2.8708,-2.8169,-2.7909,-2.7251,-2.7115,-2.7203,-2.7174,-2.7826,-2.8599,-2.8405,-2.9016,-2.9711,-2.9648,-2.9077,-2.8501,-2.8486,-2.692,-2.528,0.0,0.0,0.0,0.0,0.0,0.0,0.0,0.0,0.0,0.0,0.0,0.0,0.0,0.0,0.0,0.0,0.0,0.0,0.0,-1.8195,-1.8461,-1.8993,-1.9426,0.0,0.0,0.0,-2.2183,-2.2641,-2.231,-2.2342,-2.2789,-2.2228,-2.1734,-2.1325,-2.1145,-2.0704,-2.0141,-2.0543,-2.0625,-2.0527,-2.1316,-2.1173,-2.0463,-2.0857,-2.1041,-2.1059,-2.1103,-2.1355,-2.1672,-2.2278,-2.2036,-2.1381,-2.6693,0.0,0.0,-2.5443,0.0,0.0,-2.7042,0.0,0.0,-3.0118,-3.0788,0.0,-3.1561,-3.2227,-3.2534,-3.2242,-3.2553,0.0,-3.2423,0.0,0.0,-3.1323,-3.0815,-3.0293,-2.972,-2.8669,0.0,-2.752,0.0,0.0,-2.5954,0.0,0.0,0.0,0.0,-2.7342,0.0,-2.8932,-2.9311,-2.9544,-2.9562,0.0,0.0,-3.0463,-3.0562,-3.051,-2.9251,-2.8408,-2.7813,-2.7287,-2.6994,-2.6893,-2.7097,-2.7874,-2.8709,-2.885,-2.9506,-3.0124,-2.981,-2.9327,-2.875,-2.8189,-2.7033,-2.5778,-2.4822,-2.3891,-2.3008,0.0,0.0,0.0,0.0,0.0,0.0,0.0,0.0,0.0,0.0,0.0,0.0,0.0,0.0,0.0,0.0,0.0,-1.8299,-1.8486,-1.9091,0.0,0.0,0.0,-2.1694,-2.252,-2.1809,-2.1614,-2.1977,-2.1731,-2.135,-2.0832,-2.0815,-2.0461,-1.9871,-1.9986,-1.9955,-1.9823,-2.0411,-2.036,-1.9939,-2.0489,-2.0772,-2.0921,-2.1421,-2.1457,-2.1276,-2.2056,-2.168,-2.0779,0.0,0.0,0.0,0.0,0.0,0.0,0.0,-2.9034,0.0,-3.0256,0.0,-3.1374,-3.2209,-3.208,-3.2181,-3.2782,0.0,-3.2506,-3.2336,-3.2055,-3.1839,-3.1763,-3.0941,-3.043,-3.026,-2.9259,0.0,0.0,0.0,0.0,0.0,0.0,0.0,0.0,0.0,0.0,0.0,-2.9145,-2.948,-2.9277,-2.9647,-2.9919,-3.0091,-3.0443,-3.0774,-3.094,-2.9915,-2.877,-2.772,-2.7381,-2.7034,-2.6811,-2.7163,-2.7874,-2.8709,-2.9203,-2.9744,-3.0038,-2.9512,-2.9316,-2.8861,-2.7274,-2.708,-2.6698,-2.45,-2.4055,-2.384,-2.2883,-2.1664,-2.0605,0.0,0.0,0.0,0.0,0.0,0.0,0.0,0.0,0.0,0.0,0.0,0.0,0.0,0.0,0.0,0.0,0.0,0.0,0.0,0.0,-2.1393,-2.2465,-2.1484,-2.1042,-2.1275,-2.1353,-2.1167,-2.0682,-2.0781,-2.0617,-2.0235,-2.0033,-1.993,-1.9894,-2.0141,-2.0142,-1.9988,-2.0285,-2.0471,-2.0639,-2.16,-2.1454,-2.0805,-2.137,-2.09,-1.9982,0.0,0.0,0.0,0.0,0.0,-2.7671,-2.9022,-2.9026,-2.9588,-3.1551,-3.1301,-3.1409,-3.2634,-3.2733,-3.2645,-3.2507,-3.2457,0.0,0.0,0.0,0.0,-3.1574,-3.1227,-3.1043,-3.1004,-2.9973,-2.9046,0.0,0.0,0.0,0.0,0.0,0.0,0.0,0.0,0.0,-2.8128,-2.8887,0.0,-2.9053,-3.003,-3.0248,-3.0004,-3.0667,-3.0896,-3.0718,-2.9635,-2.9261,-2.9016,-2.7569,-2.7003,-2.6832,-2.6198,-2.6938,-2.8046,-2.8091,-2.8911,-2.9726,-2.9403,-2.8896,-2.8401,-2.795,-2.6971,-2.6002,-2.5677,-2.4336,-2.3038,-2.2696,-2.0955,-1.9476,-1.9319,0.0,0.0,0.0,0.0,0.0,0.0,0.0,0.0,0.0,0.0,0.0,0.0,0.0,0.0,0.0,0.0,0.0,0.0,0.0,-2.0475,0.0,-2.0526,0.0,0.0,0.0,-2.0564,-2.1009,-2.0908,-2.0712,-2.0442,-2.0645,-2.0591,-2.0382,-2.0439,-2.0185,-1.9749,-1.9519,-1.9594,-1.9849,-2.0452,-2.0366,-1.9828,-1.9858,-1.9252,-1.8587,0.0,0.0,0.0,0.0,0.0,0.0,0.0,-3.0019,0.0,-3.1204,-3.1699,-3.2007,-3.221,-3.2475,-3.2541,-3.2319,-3.2161,-3.1982,-3.1709,-3.1576,-3.1443,-3.1363,-3.1092,0.0,-3.0834,-3.024,-2.949,-2.8664,0.0,0.0,0.0,0.0,0.0,0.0,0.0,-2.7595,0.0,0.0,0.0,-2.942,-3.0083,-3.0173,-2.9977,-3.0658,-3.0631,-3.0104,-2.9253,-2.8806,-2.8497,-2.7343,-2.6666,-2.6356,-2.6476,-2.7067,-2.7799,-2.8401,-2.8919,-2.9198,-2.8787,-2.828,-2.7799,-2.7373,-2.6656,-2.5966,-2.5646,-2.4745,-2.3733,-2.2832,-2.1703,-2.0465,-1.9186,-1.7812,0.0,0.0,0.0,0.0,0.0,0.0,0.0,0.0,0.0,0.0,0.0,0.0,0.0,0.0,0.0,0.0,-2.013,0.0,-2.0278,0.0,0.0,0.0,-2.0097,0.0,-2.0164,-2.0481,-2.0758,-2.0706,-2.0297,-2.0429,-2.0405,-2.0286,-2.017,-1.9999,-1.974,-1.9493,-1.9387,-1.946,-2.0234,-2.0023,-1.9239,-1.9354,-1.8751,-1.7959,0.0,-2.618,0.0,0.0,-2.8443,0.0,-3.1293,-3.1175,-3.0891,-3.1058,-3.1941,-3.2362,-3.1822,-3.2121,-3.2284,-3.2126,-3.1874,-3.1671,-3.1523,-3.1291,-3.1131,-3.1092,-3.0814,-3.0609,-3.0485,-3.0274,-2.9717,0.0,0.0,0.0,0.0,0.0,0.0,0.0,0.0,0.0,0.0,0.0,-2.9075,-2.953,-2.9843,-2.992,-2.9894,-3.0333,-3.0178,-2.9624,-2.8766,-2.8104,-2.7539,-2.6863,-2.6288,-2.5952,-2.6616,-2.7067,-2.7525,-2.8321,-2.8638,-2.8606,-2.8027,-2.768,-2.7302,-2.6642,-2.6379,-2.6131,-2.5449,-2.5091,-2.4555,-2.3259,-2.2501,-2.136,-1.9195,-1.8081,0.0,0.0,0.0,0.0,0.0,0.0,0.0,0.0,0.0,0.0,0.0,0.0,0.0,0.0,0.0,-1.862,-1.962,-1.9716,-1.9815,0.0,0.0,-1.9124,-1.92,0.0,-1.9991,-2.0107,-2.0682,-2.075,-2.0322,-2.0292,-2.0263,-2.0251,-1.9938,-1.9705,-1.9543,-1.9436,-1.9287,-1.9209,-1.9915,-1.964,-1.8863,-1.8953,-1.8378,-1.75,0.0,0.0,0.0,0.0,0.0,0.0,-3.1201,-3.1889,-3.2361,-3.2576,-3.1933,-3.1662,-3.2264,-3.2214,-3.2054,-3.1838,-3.1653,-3.1445,-3.1249,-3.1095,-3.0935,-3.0753,-3.0609,-3.0485,-3.0417,-3.0146,-2.9632,0.0,0.0,-2.6995,0.0,0.0,0.0,0.0,0.0,0.0,0.0,-2.8493,-2.8491,-2.859,-2.9202,-2.9576,-2.9699,-2.952,-2.9628,-2.9681,-2.815,-2.7411,-2.7046,-2.6106,-2.605,-2.6199,-2.5451,-2.6027,-2.6834,-2.6291,-2.7115,-2.7987,-2.7236,-2.7214,-2.7233,-2.6486,-2.6313,-2.6192,-2.5741,-2.5132,-2.4514,-2.4068,-2.2296,-2.0419,-1.8971,-1.8102,-1.7503,0.0,0.0,0.0,0.0,0.0,0.0,0.0,0.0,0.0,0.0,-1.4766,0.0,0.0,-1.6645,-1.7179,-1.7898,-1.7938,-1.8142,-1.8558,-1.8748,-1.9063,-1.9539,-1.9886,-2.0313,-2.0819,-2.1066,-2.1161,-2.1083,-2.0925,-2.083,-2.0796,-2.0146,-1.9429,-1.8726,-1.8767,-1.8849,-1.8906,-1.8555,-1.8563,-1.8617,-1.7947,-1.7331,-1.6803,0.0,0.0,0.0,0.0,0.0,0.0,0.0,-3.216,-3.2301,-3.2266,-3.1969,-3.1899,-3.2179,-3.1965,-3.1765,-3.169,-3.1464,-3.1252,-3.1075,-3.0834,-3.0634,-3.0472,-3.022,-3.0044,-2.9989,-2.9792,-2.947,0.0,0.0,0.0,0.0,0.0,0.0,0.0,0.0,-2.8455,-2.8925,-2.8394,-2.8396,-2.8793,-2.8961,-2.9256,-2.9535,-2.9195,-2.9094,-2.8999,-2.7583,-2.6777,-2.6286,-2.5536,-2.5394,-2.553,-2.5313,-2.5632,-2.6092,-2.6065,-2.6412,-2.6753,-2.6347,-2.6228,-2.6109,-2.5633,-2.5633,-2.5701,-2.5439,-2.4941,-2.4475,-2.4245,-2.2498,-2.0476,-1.8706,-1.8031,-1.7605,-1.7204,0.0,0.0,0.0,0.0,0.0,0.0,0.0,0.0,0.0,0.0,0.0,0.0,0.0,-1.6816,-1.737,-1.7869,-1.8091,-1.8029,0.0,-1.8971,-1.9472,-1.9802,-2.0279,-2.0903,-2.0914,-2.0882,-2.0882,-2.083,-2.0646,-2.0387,-2.0135,-1.9497,-1.8636,-1.8563,-1.8343,-1.8073,-1.8298,-1.818,-1.7901,-1.779,-1.7269,-1.6504,-3.0731,0.0,-3.0616,0.0,-3.1461,-3.1636,-3.2162,-3.2161,-3.2055,-3.1893,-3.1911,-3.1929,-3.1947,-3.1691,-3.1504,-3.1466,-3.1269,-3.1052,-3.0855,-3.0589,-3.0326,-3.0161,-2.9919,0.0,-2.9653,-2.9457,-2.9298,-2.9098,-2.8313,0.0,0.0,0.0,0.0,0.0,-2.7871,-2.8287,-2.8758,-2.8177,-2.8203,-2.8642,-2.8695,-2.891,-2.9197,-2.8805,-2.8557,-2.8275,-2.7184,-2.6397,-2.5811,-2.53,-2.5048,-2.4977,-2.5049,-2.5245,-2.5425,-2.555,-2.57,-2.5782,-2.5563,-2.5508,-2.5425,-2.509,-2.5175,-2.5258,-2.4963,-2.4609,-2.4317,-2.4115,-2.2757,-2.0966,-1.896,-1.8218,-1.7702,-1.7101,0.0,0.0,0.0,0.0,0.0,0.0,-1.5814,-1.5694,-1.4485,-1.4706,0.0,0.0,0.0,0.0,-1.6492,-1.7303,-1.7519,0.0,0.0,0.0,-1.8905,-1.9576,-2.0106,-2.0518,-2.059,-2.0572,-2.0529,-2.0432,-2.0161,-1.9813,-1.9748,-1.9315,-1.86,-1.8218,-1.7942,-1.7761,-1.7846,-1.7673,-1.7364,-1.7387,-1.689,-1.6098,-3.2039,-3.1481,-3.1133,-3.1951,-3.209,-3.2037,-3.1912,-3.1894,-3.1875,-3.1818,-3.1632,-3.1519,-3.1598,-3.1428,-3.1274,-3.121,-3.1012,-3.0794,-3.051,-3.0316,-3.0087,0.0,0.0,-2.9653,-2.9496,-2.9252,-2.9098,-2.9098,0.0,0.0,-2.7989,0.0,-2.7519,-2.7048,-2.7692,-2.793,-2.7831,-2.779,-2.779,-2.7851,-2.8319,-2.8551,-2.8581,-2.8234,-2.7952,-2.7634,-2.7012,-2.6394,-2.5866,-2.5522,-2.5147,-2.475,-2.4408,-2.4637,-2.4892,-2.4316,-2.4736,-2.5328,-2.4907,-2.5244,-2.5578,-2.5118,-2.509,-2.502,-2.4276,-2.4102,-2.4015,-2.3675,-2.2996,-2.1875,-1.9853,-1.8783,-1.7828,-1.6686,0.0,0.0,0.0,0.0,0.0,-1.4958,-1.5154,-1.5236,-1.4819,0.0,0.0,0.0,0.0,0.0,0.0,0.0,0.0,-1.5359,-1.706,0.0,-1.7734,-1.916,-1.9794,-1.9627,-2.0167,-2.0291,-2.0107,-1.9758,-1.944,-1.9108,-1.8908,-1.8707,-1.8445,-1.7562,-1.7663,-1.8258,-1.6881,-1.673,-1.7214,-1.6477,-1.5871,-1.5391,-3.1985,-3.1846,-3.1759,-3.1932,-3.1966,-3.1948,-3.1894,-3.1785,-3.1673,-3.1595,-3.1464,-3.1351,-3.1329,-3.1193,-3.1134,0.0,-3.0834,-3.0589,0.0,-3.0151,-2.987,-2.9732,-2.9531,-2.935,-2.9229,-2.9036,-2.8936,-2.8897,0.0,0.0,0.0,-2.801,-2.7856,-2.7676,-2.7725,-2.77,-2.765,-2.7564,-2.7463,-2.7401,-2.7543,-2.7768,-2.7947,-2.751,-2.7399,-2.7348,-2.6689,-2.6069,-2.5467,-2.4964,-2.4481,-2.4125,-2.4215,-2.4294,-2.4332,-2.4171,-2.4376,-2.4538,-2.4102,-2.4363,-2.4609,-2.4057,-2.4187,-2.4332,-2.3852,-2.359,-2.319,-2.2279,-2.1993,-2.1234,-1.913,-1.8304,-1.7665,-1.6843,-1.5998,0.0,0.0,0.0,0.0,-1.4829,-1.4985,-1.4857,-1.4133,-1.435,0.0,0.0,0.0,0.0,0.0,0.0,0.0,0.0,-1.7247,0.0,-1.7986,-1.9358,-1.9812,-1.9334,-1.981,-1.9868,-1.9561,-1.933,-1.9065,-1.8687,-1.862,-1.8428,-1.8104,-1.7524,-1.7244,-1.7175,-1.6658,-1.6487,-1.6525,-1.635,-1.5992,-1.561,-3.1875,-3.1875,-3.1893,-3.1785,-3.1802,-3.1784,-3.1747,-3.1653,-3.1557,-3.1517,-3.1349,-3.1252,-3.121,-3.0995,0.0,-3.1072,-3.0733,-3.0443,-3.0316,-2.9957,-2.9687,-2.948,-2.9305,-2.9167,-2.9029,-2.8912,0.0,-2.8794,-2.8565,-2.8356,-2.821,-2.8113,-2.8029,-2.793,-2.7765,-2.76,-2.7448,-2.7325,-2.7196,-2.7133,-2.7264,-2.7375,-2.7411,-2.72,-2.7041,-2.6869,-2.6334,-2.577,-2.5175,-2.4595,-2.4337,-2.4231,-2.4346,-2.4585,-2.4773,-2.4342,-2.4324,-2.4305,-2.368,-2.3734,-2.3839,-2.333,-2.3314,-2.3295,-2.2866,-2.2752,-2.2482,-2.1577,-2.1313,-2.0671,-1.8915,-1.8093,-1.7427,-1.6626,-1.5679,-1.5227,-1.5696,0.0,0.0,0.0,0.0,0.0,0.0,-1.4535,-1.4696,0.0,0.0,0.0,0.0,0.0,0.0,-1.5382,-1.6945,-1.7761,-1.7756,-1.9057,-1.944,-1.891,-1.9208,-1.9111,-1.8652,-1.876,-1.8596,-1.8206,-1.807,-1.7876,-1.7662,-1.6987,-1.6538,-1.6322,-1.6126,-1.5892,-1.5668,-1.5877,-1.5678,-1.5231,-3.1781,-3.1671,-3.1579,0.0,-3.1579,0.0,-3.1517,-3.1498,-3.1479,-3.1479,-3.1288,-3.1171,-3.1171,-3.0945,-3.0816,-3.0955,0.0,0.0,0.0,-2.9895,-2.9573,-2.9121,-2.9098,-2.9029,-2.8904,-2.885,-2.8794,-2.8794,-2.8396,-2.821,-2.821,-2.8186,-2.8039,-2.779,-2.779,-2.7564,-2.7181,-2.7041,-2.7006,-2.7042,-2.7297,-2.725,-2.7015,-2.7176,-2.6813,-2.6233,-2.5948,-2.5439,-2.4863,-2.439,-2.4478,-2.4754,-2.4692,-2.5327,-2.587,-2.4795,-2.4584,-2.4546,-2.3633,-2.3403,-2.33,-2.2939,-2.2551,-2.2068,-2.1492,-2.1686,-2.1837,-2.1393,-2.0899,-2.02,-1.9115,-1.8145,-1.7183,-1.6232,-1.5623,-1.5288,-1.5127,-1.5032,-1.4984,0.0,0.0,0.0,-1.4932,-1.5167,-1.5303,0.0,0.0,0.0,0.0,0.0,-1.4649,-1.4981,-1.6291,-1.7074,-1.722,-1.8462,-1.8828,-1.8358,-1.8321,-1.8061,-1.7625,-1.8028,-1.8022,-1.7638,-1.7304,-1.7166,-1.707,-1.6095,-1.5686,-1.5629,-1.5369,-1.504,-1.476,-1.5174,-1.4992,-1.4495,0.0,0.0,-3.1519,-3.1519,-3.1519,-3.1517,-3.1498,-3.1383,-3.1269,-3.1269,-3.1092,-3.0972,-3.0972,-3.1312,-3.152,-3.1435,-3.1242,-3.103,-3.0859,-3.0555,-3.0055,-2.9291,-2.9059,-2.899,-2.9052,-2.8897,-2.8747,-2.866,-2.8444,-2.8299,-2.821,-2.8103,-2.7955,-2.779,-2.7604,-2.7325,-2.7055,-2.6884,-2.7016,-2.719,-2.6751,-2.6754,-2.6956,-2.6656,-2.6238,-2.5811,-2.5481,-2.4809,-2.4011,-2.3656,-2.3486,-2.3548,-2.4147,-2.5074,-2.5814,-2.5175,-2.5039,-2.4831,-2.3705,-2.3407,-2.3245,-2.2653,-2.1977,-2.1378,-2.1107,-2.0789,-2.053,-2.0426,-2.0101,-1.9628,-1.8953,-1.8255,-1.753,-1.6725,-1.5969,-1.5161,-1.4321,-1.4449,-1.441,0.0,-1.4428,-1.4677,-1.4126,-1.4549,-1.4906,0.0,0.0,0.0,-1.6129,-1.5128,-1.4867,-1.5716,-1.6662,-1.7265,-1.7508,-1.8297,-1.8503,-1.8071,-1.7502,-1.7374,-1.7592,-1.749,-1.7407,-1.7304,-1.7072,-1.6795,-1.6473,-1.5983,-1.5506,-1.5094,-1.5128,-1.4942,-1.4664,-1.4858,-1.4738,-1.4449,-3.1566,-3.144,-3.1346,-3.1346,-3.1308,-3.1368,-3.1667,-3.1351,-3.117,-3.1523,-3.1113,-3.0944,-3.1278,-3.1494,-3.1863,-3.2458,-3.2087,-3.171,-3.1512,-3.0937,-3.0328,-2.9744,-2.9186,-2.8943,-2.9013,-2.9123,-2.9102,-2.898,-2.8882,-2.8784,-2.8669,-2.857,-2.8445,-2.8258,-2.8275,-2.7809,-2.7021,-2.7308,-2.7391,-2.7296,-2.7059,-2.7045,-2.7087,-2.6691,-2.616,-2.5647,-2.5133,-2.4368,-2.3522,-2.3293,-2.328,-2.346,-2.3914,-2.5074,-2.6082,-2.5191,-2.513,-2.5066,-2.3576,-2.2962,-2.2521,-2.1638,-2.1445,-2.1305,-2.0801,-2.056,-2.0369,-2.0063,-1.9706,-1.9318,-1.8875,-1.8121,-1.7347,-1.6777,-1.5734,-1.4773,-1.4163,-1.4297,-1.4346,-1.3968,-1.4501,-1.4706,-1.4264,-1.4604,-1.4824,-1.4649,-1.4777,0.0,-1.5735,-1.5373,-1.5575,-1.6504,-1.6854,-1.723,-1.7633,-1.7728,-1.7586,-1.7226,-1.6784,-1.6763,-1.7112,-1.7167,-1.727,-1.7407,-1.6959,-1.6656,-1.6368,-1.5692,-1.5121,-1.4676,-1.4737,-1.4496,-1.414,-1.4493,-1.4417,-1.4108,-3.1842,-3.1588,-3.1469,-3.1469,-3.1372,-3.1493,-3.2064,-3.1608,-3.1441,-3.2056,-3.1466,-3.1216,-3.1827,-3.1775,-3.2202,-3.3442,-3.2997,-3.2523,-3.2174,-3.1373,-3.0752,-3.0362,-2.9596,-2.9124,-2.903,-2.9408,-2.9568,-2.9541,-2.9433,-2.9296,-2.9129,-2.9037,-2.8839,-2.8613,-2.8955,-2.8275,-2.6972,-2.7907,-2.7954,-2.7469,-2.7725,-2.7697,-2.7484,-2.7046,-2.6399,-2.5633,-2.4958,-2.407,-2.3223,-2.3023,-2.3199,-2.3523,-2.3673,-2.4953,-2.6135,-2.4923,-2.502,-2.5132,-2.3452,-2.2466,-2.1635,-2.0486,-2.081,-2.121,-2.0381,-2.0438,-2.0502,-1.989,-1.9529,-1.9218,-1.8875,-1.7929,-1.7075,-1.6642,-1.5545,-1.4639,-1.4373,0.0,-1.4629,-1.4617,-1.485,-1.4924,-1.4706,-1.489,-1.487,-1.4423,-1.5199,-1.5539,-1.5175,-1.5678,-1.6389,-1.7264,-1.7019,-1.7118,-1.7595,-1.6952,-1.6454,-1.6122,-1.6116,-1.6201,-1.6367,-1.6861,-1.7235,-1.7501,-1.6881,-1.6568,-1.6429,-1.5365,-1.4733,-1.4402,-1.4316,-1.3968,-1.3578,-1.4037,-1.4,-1.3643,-3.2794,-3.2739,-3.2718,-3.2718,-3.2696,-3.273,-3.2825,-3.2689,-3.2629,-3.2762,-3.2448,-3.2248,-3.2364,-3.2804,-3.3146,-3.324,-3.3608,-3.3583,-3.2975,-3.257,-3.1964,-3.1081,-3.0691,-3.0239,-2.9668,-2.9623,-2.9799,-3.0248,-2.9547,-2.9103,-2.8848,-2.8172,-2.7764,-2.7631,-2.7965,-2.754,-2.6664,-2.8032,-2.8411,-2.8068,-2.7982,-2.8251,-2.8547,-2.7511,-2.662,-2.578,-2.4975,-2.3961,-2.2885,-2.242,-2.2147,-2.2144,-2.2695,-2.381,-2.4859,-2.4448,-2.473,-2.4906,-2.3664,-2.2634,-2.1549,-2.0062,-1.9958,-2.0008,-1.9282,-1.9395,-1.956,-1.9275,-1.9274,-1.9218,-1.8875,-1.8287,-1.7639,-1.6959,-1.6506,-1.5835,-1.463,0.0,-1.5369,-1.4308,-1.4675,-1.4887,-1.456,-1.4682,-1.4763,-1.4804,-1.5362,-1.5893,-1.6301,-1.6376,-1.6774,-1.7605,-1.7414,-1.7253,-1.7124,-1.6241,-1.5642,-1.5381,-1.5589,-1.5703,-1.5762,-1.6217,-1.6542,-1.6777,-1.6638,-1.6438,-1.6132,-1.5453,-1.4851,-1.4355,-1.4021,-1.3716,-1.3498,-1.3397,-1.3346,-1.3258,-3.2934,-3.2763,-3.2718,-3.2718,-3.2657,-3.2767,-3.3164,-3.2854,-3.271,-3.3129,-3.2724,-3.2534,-3.2952,-3.3108,-3.3323,-3.3665,-3.3806,-3.3744,-3.3423,-3.2903,-3.2335,-3.176,-3.0786,-3.0176,-3.0027,-3.0027,-3.0263,-3.0727,-2.9909,-2.9403,-2.915,-2.8386,-2.7958,-2.7846,-2.8186,-2.761,-2.6478,-2.7926,-2.8088,-2.7423,-2.7953,-2.8126,-2.7999,-2.7151,-2.6283,-2.5405,-2.4514,-2.3352,-2.2188,-2.2113,-2.1655,-2.1293,-2.2331,-2.3352,-2.409,-2.3647,-2.3847,-2.3966,-2.2765,-2.2055,-2.1381,-2.0312,-2.025,-2.0263,-1.9695,-1.9658,-1.9694,-1.9447,-1.9325,-1.9252,-1.9108,-1.8472,-1.7837,-1.7267,-1.6581,0.0,-1.5616,-1.584,-1.6016,-1.584,-1.5979,-1.5958,-1.5616,-1.577,-1.5619,-1.4959,-1.5535,-1.5781,-1.5443,-1.5677,-1.6081,-1.6652,-1.7116,-1.7279,-1.7144,-1.6017,-1.5333,-1.5102,-1.5079,-1.5171,-1.5393,-1.5953,-1.6473,-1.6925,-1.6821,-1.6612,-1.6333,-1.5762,-1.5133,-1.4461,-1.3992,-1.3593,-1.3331,-1.3156,-1.3003,-1.282,-3.3251,-3.3044,-3.2975,-3.2975,-3.2889,-3.3006,-3.358,-3.3186,-3.3023,-3.358,-3.3146,-3.2969,-3.35,-3.3348,-3.3411,-3.3951,-3.3745,-3.3607,-3.3607,-3.2984,-3.2538,-3.2404,-3.0935,-3.0294,-3.0674,-3.0409,-3.0487,-3.0928,-2.9946,-2.9379,-2.9134,-2.8388,-2.8033,-2.8089,-2.8286,-2.7749,-2.6772,-2.8002,-2.8005,-2.728,-2.7953,-2.8005,-2.7566,-2.6707,-2.5845,-2.4975,-2.4094,-2.2997,-2.1927,-2.2076,-2.15,-2.0891,-2.1934,-2.2707,-2.3167,-2.2705,-2.2775,-2.2773,-2.1711,-2.1363,-2.1115,-2.0496,-2.0529,-2.0603,-2.0107,-1.9944,-1.9813,-1.9539,-1.9308,-1.9185,-1.9119,-1.8549,-1.7934,-1.7482,0.0,-1.6154,0.0,-1.6395,-1.6514,-1.6969,-1.6937,-1.675,-1.6386,-1.6481,-1.6128,-1.4959,-1.5543,-1.5508,-1.4486,-1.4952,-1.5489,-1.5974,-1.6534,-1.6805,-1.6806,-1.56,-1.4974,-1.4898,-1.4792,-1.4906,-1.5283,-1.5791,-1.6342,-1.6864,-1.676,-1.6621,-1.6438,-1.5982,-1.5346,-1.4597,-1.4013,-1.3513,-1.3038,-1.2784,-1.2529,-1.2261,-3.4374,-3.4357,-3.4357,-3.4357,-3.4333,-3.4366,-3.4415,-3.4366,-3.4366,-3.4415,-3.4268,-3.4145,-3.407,-3.3919,-3.3799,-3.3745,-3.3477,-3.3335,-3.3335,-3.3022,-3.2926,-3.3018,-3.1778,-3.1404,-3.2038,-3.0615,-3.0096,-3.0623,-2.92,-2.8376,-2.8094,-2.729,-2.7224,-2.7737,-2.7492,-2.7569,-2.7924,-2.859,-2.8799,-2.8693,-2.8229,-2.8187,-2.8241,-2.657,-2.5478,-2.474,-2.4042,-2.3368,-2.2738,-2.2333,-2.1698,-2.1083,-2.1165,-2.1422,-2.1686,-2.1763,-2.1673,-2.1433,-2.1,-2.09,-2.081,-2.0248,-2.0139,-2.0074,-1.9736,-1.9473,-1.9308,-1.9175,-1.8975,-1.8774,-1.8583,-1.8414,-1.81,-1.7594,0.0,0.0,-1.6309,-1.6731,-1.6886,-1.6244,-1.6437,-1.6417,-1.59,-1.5754,-1.5445,-1.484,-1.5227,-1.5183,-1.4634,-1.5139,-1.5807,-1.6518,-1.5773,-1.5337,-1.5343,-1.4519,-1.4292,-1.4617,-1.4912,-1.5202,-1.5477,-1.5722,-1.5832,-1.5903,-1.607,-1.6167,-1.6132,-1.5894,-1.5426,-1.4796,-1.4078,-1.3324,-1.2569,-1.2029,-1.1688,-1.1446,-3.4025,-3.4,-3.4,-3.4,-3.4,-3.4,-3.4,-3.4,-3.4,-3.4,-3.3949,-3.3899,-3.3848,-3.372,-3.3607,-3.345,-3.3282,-3.3081,-3.2888,-3.2784,-3.2544,-3.2204,-3.1616,-3.1159,-3.0833,-3.0171,-2.982,-2.9871,-2.9104,-2.8607,-2.8429,-2.7974,-2.7675,-2.7463,-2.7641,-2.7513,-2.7184,-2.7806,-2.7762,-2.7269,-2.6958,-2.6786,-2.6561,-2.5311,-2.4522,-2.4075,-2.3766,-2.3058,-2.2318,-2.256,-2.2,-2.1282,-2.1655,-2.1711,-2.1563,-2.1297,-2.0897,-2.0576,-2.0552,-2.0553,-2.059,-2.0486,-2.048,-2.0356,-1.99,-1.9638,-1.9407,-1.9142,-1.8942,-1.8741,-1.8549,-1.8279,-1.7954,-1.7456,0.0,-1.6671,-1.6792,-1.664,-1.6625,-1.6919,-1.7024,-1.7012,-1.6821,-1.6655,-1.6332,-1.5667,-1.5761,-1.5536,-1.483,-1.5104,-1.5338,-1.5427,-1.5095,-1.5332,-1.6247,-1.5375,-1.4985,-1.5026,-1.499,-1.4976,-1.501,-1.5442,-1.5611,-1.5611,-1.5964,-1.6035,-1.5938,-1.5964,-1.5568,-1.4856,-1.4453,-1.3768,-1.2884,-1.2355,-1.174,-1.1135,-3.3668,-3.3658,-3.3658,-3.3658,-3.3658,-3.3658,-3.3658,-3.3658,-3.3658,-3.3658,-3.3607,-3.3555,-3.3529,-3.3424,-3.3335,-3.3176,-3.3043,-3.2839,-3.2547,-3.2468,-3.224,-3.1886,-3.1693,-3.1262,-3.0549,-3.0078,-2.9699,-2.945,-2.895,-2.8623,-2.8525,-2.8354,-2.8097,-2.7798,-2.7838,-2.7562,-2.7131,-2.7417,-2.7178,-2.659,-2.6129,-2.5814,-2.5507,-2.4189,-2.3633,-2.3477,-2.328,-2.2917,-2.2586,-2.2874,-2.2445,-2.1737,-2.1745,-2.1391,-2.0875,-2.0565,-2.0237,-1.9987,-2.0205,-2.028,-2.0366,-2.0625,-2.054,-2.027,-1.9966,-1.9671,-1.9341,-1.8998,-1.8731,-1.8432,-1.8077,-1.7769,-1.7432,-1.7096,-1.6501,-1.6254,-1.6743,-1.6542,-1.6531,-1.7015,-1.7249,-1.7287,-1.6987,-1.6889,-1.6541,-1.5848,-1.5755,-1.5431,-1.4756,-1.4756,-1.4756,-1.4745,-1.471,-1.5334,-1.6656,-1.5701,-1.5281,-1.5368,-1.5112,-1.5001,-1.504,-1.5317,-1.5355,-1.5328,-1.5603,-1.5682,-1.5611,-1.5682,-1.539,-1.4856,-1.4605,-1.3985,-1.3111,-1.2488,-1.1797,-1.0986,-3.3529,-3.3503,-3.3503,-3.3503,-3.3503,-3.3503,-3.3503,-3.3503,-3.3503,-3.3503,-3.3372,-3.3256,-3.3096,-3.3096,-3.3043,-3.2912,-3.2718,-3.2551,-3.2398,-3.215,-3.2122,-3.2398,-3.215,-3.1896,-3.1695,-3.0511,-2.9798,-2.9581,-2.8656,-2.8211,-2.8211,-2.8067,-2.832,-2.8856,-2.7939,-2.7769,-2.8171,-2.7615,-2.7382,-2.7309,-2.6095,-2.5697,-2.5563,-2.343,-2.281,-2.3059,-2.2583,-2.3051,-2.3838,-2.3349,-2.2975,-2.2471,-2.1206,-2.0117,-1.9351,-1.9539,-1.9605,-1.9638,-1.9846,-1.9987,-2.0204,-2.0593,-2.014,-1.9671,-1.9835,-1.9473,-1.8965,-1.8576,-1.8226,-1.7779,-1.704,-1.6712,-1.6562,-1.6418,-1.6069,-1.5831,-1.5993,-1.6498,-1.6721,-1.6256,-1.6897,-1.7008,-1.6062,-1.6001,-1.573,-1.5142,-1.4985,-1.4748,-1.4329,-1.3991,-1.4146,-1.4882,-1.4754,-1.5144,-1.6096,-1.5169,-1.4988,-1.5512,-1.5291,-1.542,-1.577,-1.539,-1.5106,-1.4908,-1.4908,-1.5007,-1.5169,-1.4979,-1.49,-1.4867,-1.4446,-1.384,-1.3083,-1.2305,-1.1632,-1.0925,-3.3085,-3.3085,-3.3085,-3.3085,-3.3085,-3.3027,-3.2888,-3.2873,-3.2819,-3.2753,-3.2699,-3.2699,-3.2753,-3.2753,-3.2699,-3.2551,-3.2496,-3.2358,-3.215,-3.194,-3.194,-3.2122,-3.2038,-3.1713,-3.1089,-3.0501,-2.9764,-2.8899,-2.8842,-2.8766,-2.869,-2.8979,-2.8914,-2.8554,-2.8759,-2.8529,-2.8013,-2.8171,-2.7819,-2.703,-2.6108,-2.5545,-2.5133,-2.4117,-2.3722,-2.3723,-2.3537,-2.3535,-2.3583,-2.2926,-2.267,-2.235,-2.0812,-1.9671,-1.9042,-1.9473,-1.9605,-1.9671,-1.9944,-1.9987,-2.002,-2.0215,-2.0226,-2.0031,-1.9584,-1.9287,-1.8898,-1.8114,-1.7964,-1.7702,-1.6669,-1.6418,-1.6421,-1.6469,-1.5892,-1.5699,-1.6401,-1.6026,-1.5735,-1.5762,-1.6247,-1.6254,-1.5452,-1.5893,-1.5982,-1.542,-1.5807,-1.5953,-1.5575,-1.5472,-1.5385,-1.532,-1.5145,-1.5195,-1.5453,-1.5348,-1.5462,-1.5931,-1.5582,-1.5387,-1.539,-1.524,-1.4955,-1.4557,-1.4911,-1.497,-1.4949,-1.5276,-1.5154,-1.4814,-1.4704,-1.405,-1.3083,-1.2305,-1.1521,-1.07,-3.2703,-3.2664,-3.2636,-3.2676,-3.2664,-3.2594,-3.2453,-3.2437,-3.241,-3.2342,-3.2259,-3.2231,-3.2244,-3.2315,-3.2287,-3.2148,-3.2135,-3.2094,-3.194,-3.1784,-3.1756,-3.1912,-3.1798,-3.1501,-3.1011,-3.0612,-3.0002,-2.9203,-2.9206,-2.9193,-2.9191,-2.9341,-2.9018,-2.8341,-2.8623,-2.8195,-2.7379,-2.785,-2.7674,-2.6972,-2.5995,-2.5501,-2.5192,-2.392,-2.356,-2.3709,-2.3547,-2.3417,-2.3221,-2.2563,-2.1837,-2.1014,-2.002,-1.922,-1.8798,-1.9308,-1.9473,-1.9539,-1.9824,-1.9791,-1.9693,-1.9748,-1.9868,-1.9878,-1.9485,-1.9343,-1.8954,-1.7915,-1.7816,-1.7552,-1.6386,-1.5824,-1.5776,-1.6482,-1.5704,-1.5355,-1.6376,-1.6008,-1.5588,-1.5465,-1.5974,-1.5978,-1.5013,-1.5747,-1.6061,-1.5541,-1.6096,-1.6298,-1.5885,-1.585,-1.5709,-1.539,-1.5098,-1.4991,-1.507,-1.5106,-1.5355,-1.5736,-1.5355,-1.5106,-1.507,-1.5145,-1.4956,-1.4579,-1.4914,-1.4956,-1.4782,-1.5111,-1.4958,-1.4568,-1.4673,-1.4141,-1.3236,-1.2489,-1.1744,-1.085,-3.2398,-3.2274,-3.2219,-3.2342,-3.2274,-3.2163,-3.2135,-3.2135,-3.2135,-3.2107,-3.201,-3.184,-3.1682,-3.184,-3.1868,-3.1682,-3.1712,-3.1756,-3.1756,-3.1597,-3.1568,-3.1756,-3.1438,-3.1263,-3.1263,-3.0807,-3.0431,-3.008,-2.9634,-2.9446,-2.9571,-2.9226,-2.8778,-2.8253,-2.7933,-2.7416,-2.6727,-2.714,-2.7298,-2.7152,-2.5831,-2.549,-2.5501,-2.3282,-2.2836,-2.336,-2.303,-2.2923,-2.2799,-2.2089,-2.0547,-1.8946,-1.9021,-1.8754,-1.8519,-1.9108,-1.9218,-1.9241,-1.944,-1.9353,-1.922,-1.9227,-1.9206,-1.9262,-1.9493,-1.9468,-1.9058,-1.7885,-1.7722,-1.7415,-1.617,-1.5174,-1.5005,-1.6437,-1.5562,-1.5065,-1.6111,-1.6257,-1.5986,-1.53,-1.6042,-1.6044,-1.4669,-1.5524,-1.5956,-1.5568,-1.6026,-1.6096,-1.5603,-1.5568,-1.5453,-1.5275,-1.4848,-1.4713,-1.4908,-1.4721,-1.4812,-1.5204,-1.482,-1.4713,-1.488,-1.5011,-1.4948,-1.4763,-1.4889,-1.4863,-1.4736,-1.4743,-1.4504,-1.4245,-1.4464,-1.4096,-1.3346,-1.2709,-1.2003,-1.1149,-3.2094,-3.2066,-3.2038,-3.2066,-3.2066,-3.1938,-3.1695,-3.1667,-3.1581,-3.1366,-3.1307,-3.1336,-3.1365,-3.1438,-3.1423,-3.1394,-3.1409,-3.1438,-3.1568,-3.1438,-3.1351,-3.1409,-3.1249,-3.1073,-3.091,-3.0702,-3.0431,-3.008,-2.9588,-2.9355,-2.9415,-2.9035,-2.8807,-2.8684,-2.8779,-2.8602,-2.8302,-2.8311,-2.8126,-2.7682,-2.6161,-2.5528,-2.5345,-2.4126,-2.392,-2.426,-2.3998,-2.3479,-2.2568,-2.0572,-1.9281,-1.8452,-1.8472,-1.8134,-1.7862,-1.8674,-1.8607,-1.8337,-1.8654,-1.862,-1.8552,-1.872,-1.862,-1.8606,-1.8957,-1.8794,-1.8341,-1.7466,-1.744,-1.7106,-1.5626,-1.556,-1.5851,-1.6184,-1.5794,-1.5743,-1.6634,-1.6229,-1.5727,-1.5486,-1.6105,-1.5965,-1.4346,-1.4561,-1.507,-1.57,-1.6219,-1.6473,-1.6368,-1.621,-1.5974,-1.5691,-1.5284,-1.5034,-1.4908,-1.4721,-1.4812,-1.5204,-1.4963,-1.4792,-1.4677,-1.4684,-1.4581,-1.4404,-1.4434,-1.4718,-1.515,-1.4951,-1.468,-1.441,-1.4147,-1.3535,-1.2709,-1.1929,-1.1335,-1.0657,-3.1728,-3.1611,-3.1597,-3.164,-3.1611,-3.1496,-3.1351,-3.1307,-3.1263,-3.1102,-3.1117,-3.1073,-3.1058,-3.1146,-3.1205,-3.1205,-3.1205,-3.1234,-3.1307,-3.1234,-3.1205,-3.1205,-3.0969,-3.0791,-3.0702,-3.0326,-3.0127,-3.008,-2.9495,-2.9275,-2.9383,-2.9004,-2.8662,-2.8374,-2.85,-2.8406,-2.8139,-2.8139,-2.7916,-2.7411,-2.6045,-2.5262,-2.4731,-2.3556,-2.3289,-2.3512,-2.3175,-2.2364,-2.1137,-1.931,-1.8331,-1.7906,-1.7896,-1.7759,-1.7691,-1.8124,-1.8134,-1.8042,-1.8226,-1.81,-1.7988,-1.8247,-1.8027,-1.7934,-1.85,-1.8442,-1.8004,-1.7,-1.7,-1.6872,-1.5835,-1.5446,-1.5522,-1.621,-1.5804,-1.5583,-1.6288,-1.6017,-1.5627,-1.5267,-1.57,-1.5771,-1.4982,-1.4732,-1.5026,-1.5982,-1.6473,-1.6682,-1.6603,-1.649,-1.6263,-1.5797,-1.5426,-1.5098,-1.4908,-1.4792,-1.4784,-1.4812,-1.4605,-1.4461,-1.4353,-1.4517,-1.4445,-1.4185,-1.4341,-1.4477,-1.4587,-1.4794,-1.4536,-1.3954,-1.4002,-1.3446,-1.2526,-1.1892,-1.1074,-1.0024,-3.1471,-3.1205,-3.1043,-3.1205,-3.1087,-3.1014,-3.1014,-3.0984,-3.0955,-3.0925,-3.094,-3.0866,-3.0717,-3.0806,-3.0895,-3.0925,-3.0925,-3.0955,-3.1043,-3.0984,-3.0984,-3.1014,-3.0672,-3.0447,-3.0447,-2.9867,-2.9696,-3.0019,-2.9383,-2.9131,-2.9289,-2.894,-2.8507,-2.8033,-2.8122,-2.7966,-2.7561,-2.7782,-2.7507,-2.6897,-2.578,-2.4855,-2.4017,-2.2633,-2.2201,-2.2275,-2.1988,-2.1047,-1.972,-1.8384,-1.7735,-1.7461,-1.7417,-1.7442,-1.7535,-1.7672,-1.7784,-1.7872,-1.7906,-1.7701,-1.7514,-1.7856,-1.7499,-1.7269,-1.7908,-1.8116,-1.7825,-1.6679,-1.6741,-1.6773,-1.6165,-1.5314,-1.5066,-1.6201,-1.5679,-1.5273,-1.5685,-1.5753,-1.5549,-1.4979,-1.515,-1.5426,-1.5657,-1.5223,-1.5259,-1.6167,-1.6656,-1.683,-1.6647,-1.6603,-1.6333,-1.5761,-1.539,-1.5098,-1.4908,-1.4828,-1.4649,-1.4353,-1.4137,-1.4029,-1.4,-1.4281,-1.4216,-1.3914,-1.417,-1.4161,-1.3949,-1.4526,-1.4252,-1.3491,-1.3864,-1.347,-1.2594,-1.2059,-1.0925,-0.9544,-3.1761,-3.1171,-3.0702,-3.0851,-3.0762,-3.0672,-3.0672,-3.0507,-3.0357,-3.0264,-3.0233,-3.0233,-3.0203,-3.0052,-3.0068,-3.0221,-3.0251,-3.0417,-3.0791,-3.0568,-3.0477,-3.0672,-3.019,-2.9901,-2.9901,-2.9529,-2.9449,-2.9665,-2.9099,-2.8844,-2.8876,-2.8716,-2.8578,-2.8529,-2.8816,-2.8675,-2.8198,-2.8387,-2.7884,-2.6794,-2.5621,-2.4525,-2.3506,-2.2471,-2.2082,-2.2076,-2.2116,-2.1425,-2.0201,-1.8354,-1.7579,-1.7417,-1.7461,-1.7141,-1.6881,-1.7501,-1.751,-1.7348,-1.7539,-1.7426,-1.7285,-1.7508,-1.7111,-1.6746,-1.7036,-1.7376,-1.7523,-1.7138,-1.7125,-1.6893,-1.6005,-1.5851,-1.5825,-1.5665,-1.5658,-1.5676,-1.5559,-1.5541,-1.5399,-1.4944,-1.4685,-1.4748,-1.5232,-1.5046,-1.5223,-1.5974,-1.6586,-1.6908,-1.6864,-1.6682,-1.6263,-1.5568,-1.5311,-1.5098,-1.4908,-1.4613,-1.4353,-1.4129,-1.3928,-1.3754,-1.3564,-1.3645,-1.36,-1.3469,-1.3429,-1.378,-1.4382,-1.4201,-1.4108,-1.402,-1.3477,-1.3134,-1.2797,-1.1646,-1.0625,-0.9733,-3.1529,-3.1061,-3.0727,-3.0443,-3.0355,-3.0325,-3.0325,-3.0249,-3.0249,-3.0462,-3.0492,-3.0492,-3.0492,-3.0189,-2.9943,-2.9837,-2.9991,-3.0097,-3.0127,-3.0158,-3.0219,-3.0325,-2.9822,-2.9529,-2.9529,-2.9012,-2.8771,-2.8881,-2.8798,-2.8798,-2.8785,-2.883,-2.878,-2.8605,-2.8601,-2.8216,-2.7565,-2.7327,-2.6456,-2.5248,-2.4608,-2.354,-2.2266,-2.1853,-2.1447,-2.1038,-2.0619,-2.0084,-1.9391,-1.8139,-1.7579,-1.7426,-1.722,-1.7072,-1.6915,-1.6925,-1.7063,-1.7222,-1.7324,-1.7188,-1.7095,-1.743,-1.6981,-1.6475,-1.6685,-1.6813,-1.68,-1.6473,-1.6411,-1.6201,-1.5713,-1.5505,-1.5355,-1.5185,-1.5248,-1.5248,-1.5034,-1.4999,-1.482,-1.4333,-1.4361,-1.4497,-1.474,-1.5061,-1.5455,-1.6,-1.6475,-1.6652,-1.6465,-1.6377,-1.6061,-1.5541,-1.5311,-1.5169,-1.507,-1.4828,-1.4541,-1.4281,-1.4065,-1.3819,-1.3492,-1.3492,-1.3352,-1.3133,-1.3066,-1.3239,-1.3608,-1.3651,-1.3575,-1.3464,-1.331,-1.2948,-1.2329,-1.1415,-1.0588,-0.9765]},{"header":{"parameterUnit":"m.s-1","parameterCategory":1,"la1":30.6,"la2":28.766,"lo1":-90.7593,"lo2":-88.6598,"dy":0.0162,"dx":0.0183,"nx":116,"ny":114,"refTime":"2023-03-07T18:00:00:Z","depth":0,"parameterNumber":3,"parameterNumberName":"V-component_of_WINDS"},"data":[0.0,0.0,0.0,0.0,0.0,0.0,0.0,0.0,0.0,0.0,0.0,0.0,0.0,0.0,0.0,0.0,0.0,0.0,0.0,0.0,0.0,0.0,0.0,0.0,0.0,0.0,0.0,0.0,0.0,0.0,0.0,0.0,0.0,0.0,0.0,0.0,0.0,0.0,0.0,0.0,0.0,0.0,0.0,0.0,0.0,0.0,0.0,0.0,0.0,0.0,0.0,0.0,0.0,0.0,0.0,0.0,0.0,0.0,0.0,0.0,0.0,0.0,0.0,0.0,0.0,0.0,0.0,0.0,0.0,0.0,0.0,0.0,0.0,0.0,0.0,0.0,0.0,0.0,0.0,0.0,0.0,0.0,0.0,0.0,0.0,0.0,0.0,0.0,0.0,0.0,0.0,0.0,0.0,0.0,0.0,0.0,0.0,0.0,0.0,0.0,0.0,0.0,0.0,0.0,0.0,0.0,0.0,0.0,0.0,0.0,0.0,0.0,0.0,0.0,0.0,0.0,0.0,0.0,0.0,0.0,0.0,0.0,0.0,0.0,0.0,0.0,0.0,0.0,0.0,0.0,0.0,0.0,0.0,0.0,0.0,0.0,0.0,0.0,0.0,0.0,0.0,0.0,0.0,0.0,0.0,0.0,0.0,0.0,0.0,0.0,0.0,0.0,0.0,0.0,0.0,0.0,0.0,0.0,0.0,0.0,0.0,0.0,0.0,0.0,0.0,0.0,0.0,0.0,0.0,0.0,0.0,0.0,0.0,0.0,0.0,0.0,0.0,0.0,0.0,0.0,0.0,0.0,0.0,0.0,0.0,0.0,0.0,0.0,0.0,0.0,0.0,0.0,0.0,0.0,0.0,0.0,0.0,0.0,0.0,0.0,0.0,0.0,0.0,0.0,0.0,0.0,0.0,0.0,0.0,0.0,0.0,0.0,0.0,0.0,0.0,0.0,0.0,0.0,0.0,0.0,0.0,0.0,0.0,0.0,0.0,0.0,0.0,0.0,0.0,0.0,0.0,0.0,0.0,0.0,0.0,0.0,0.0,0.0,0.0,0.0,0.0,0.0,0.0,0.0,0.0,0.0,0.0,0.0,0.0,0.0,0.0,0.0,0.0,0.0,0.0,0.0,0.0,0.0,0.0,0.0,0.0,0.0,0.0,0.0,0.0,0.0,0.0,0.0,0.0,0.0,0.0,0.0,0.0,0.0,0.0,0.0,0.0,0.0,0.0,0.0,0.0,0.0,0.0,0.0,0.0,0.0,0.0,0.0,0.0,0.0,0.0,0.0,0.0,0.0,0.0,0.0,0.0,0.0,0.0,0.0,0.0,0.0,0.0,0.0,0.0,0.0,0.0,0.0,0.0,0.0,0.0,0.0,0.0,0.0,0.0,0.0,0.0,0.0,0.0,0.0,0.0,0.0,0.0,0.0,0.0,0.0,0.0,0.0,0.0,0.0,0.0,0.0,0.0,0.0,0.0,0.0,0.0,0.0,0.0,0.0,0.0,0.0,0.0,0.0,0.0,0.0,0.0,0.0,0.0,0.0,0.0,0.0,0.0,0.0,0.0,0.0,0.0,0.0,0.0,0.0,0.0,0.0,0.0,0.0,0.0,0.0,0.0,0.0,0.0,0.0,0.0,0.0,0.0,0.0,0.0,0.0,0.0,0.0,0.0,0.0,0.0,0.0,0.0,0.0,0.0,0.0,0.0,0.0,0.0,0.0,0.0,0.0,0.0,0.0,0.0,0.0,0.0,0.0,0.0,0.0,0.0,0.0,0.0,0.0,0.0,0.0,0.0,0.0,0.0,0.0,0.0,0.0,0.0,0.0,0.0,0.0,0.0,0.0,0.0,0.0,0.0,0.0,0.0,0.0,0.0,0.0,0.0,0.0,0.0,0.0,0.0,0.0,0.0,0.0,0.0,0.0,0.0,0.0,0.0,0.0,0.0,0.0,0.0,0.0,0.0,0.0,0.0,0.0,0.0,0.0,0.0,0.0,0.0,0.0,0.0,0.0,0.0,0.0,0.0,0.0,0.0,0.0,0.0,0.0,0.0,0.0,0.0,0.0,0.0,0.0,0.0,0.0,0.0,0.0,0.0,0.0,0.0,0.0,0.0,0.0,0.0,0.0,0.0,0.0,0.0,0.0,0.0,0.0,0.0,0.0,0.0,0.0,0.0,0.0,0.0,0.0,0.0,0.0,0.0,0.0,0.0,0.0,0.0,0.0,0.0,0.0,0.0,0.0,0.0,0.0,0.0,0.0,0.0,0.0,0.0,0.0,0.0,0.0,0.0,0.0,0.0,0.0,0.0,0.0,0.0,0.0,0.0,0.0,0.0,0.0,0.0,0.0,0.0,0.0,0.0,0.0,0.0,0.0,0.0,0.0,0.0,0.0,0.0,0.0,0.0,0.0,0.0,0.0,0.0,0.0,0.0,0.0,0.0,0.0,0.0,0.0,0.0,0.0,0.0,0.0,0.0,0.0,0.0,0.0,0.0,0.0,0.0,0.0,0.0,0.0,0.0,0.0,0.0,0.0,0.0,0.0,0.0,0.0,0.0,0.0,0.0,0.0,0.0,0.0,0.0,0.0,0.0,0.0,0.0,0.0,0.0,0.0,0.0,0.0,0.0,0.0,0.0,0.0,0.0,0.0,0.0,0.0,0.0,0.0,0.0,0.0,0.0,0.0,0.0,0.0,0.0,0.0,0.0,0.0,0.0,0.0,0.0,0.0,0.0,0.0,0.0,0.0,0.0,0.0,0.0,0.0,0.0,0.0,0.0,0.0,0.0,0.0,0.0,0.0,0.0,0.0,0.0,0.0,0.0,0.0,0.0,0.0,0.0,0.0,0.0,0.0,0.0,0.0,0.0,0.0,0.0,0.0,0.0,0.0,0.0,0.0,0.0,0.0,0.0,0.0,0.0,0.0,0.0,0.0,0.0,0.0,0.0,0.0,0.0,0.0,0.0,0.0,0.0,0.0,0.0,0.0,0.0,0.0,0.0,0.0,0.0,0.0,0.0,0.0,0.0,0.0,0.0,0.0,0.0,0.0,0.0,0.0,0.0,0.0,0.0,0.0,0.0,0.0,0.0,0.0,0.0,0.0,0.0,0.0,0.0,0.0,0.0,0.0,0.0,0.0,0.0,0.0,0.0,0.0,0.0,0.0,0.0,0.0,0.0,0.0,0.0,0.0,0.0,0.0,0.0,0.0,0.0,0.0,0.0,0.0,0.0,0.0,0.0,0.0,0.0,0.0,0.0,0.0,0.0,0.0,0.0,0.0,0.0,0.0,0.0,0.0,0.0,0.0,0.0,0.0,0.0,0.0,0.0,0.0,0.0,0.0,0.0,0.0,0.0,0.0,0.0,0.0,0.0,0.0,0.0,0.0,0.0,0.0,0.0,0.0,0.0,0.0,0.0,0.0,0.0,0.0,0.0,0.0,0.0,0.0,0.0,0.0,0.0,0.0,0.0,0.0,0.0,0.0,0.0,0.0,0.0,0.0,0.0,0.0,0.0,0.0,0.0,0.0,0.0,0.0,0.0,0.0,0.0,0.0,0.0,0.0,0.0,0.0,0.0,0.0,0.0,0.0,0.0,0.0,0.0,0.0,0.0,0.0,0.0,0.0,0.0,0.0,0.0,0.0,0.0,0.0,0.0,0.0,0.0,0.0,0.0,0.0,0.0,0.0,0.0,0.0,0.0,0.0,0.0,0.0,0.0,0.0,0.0,0.0,0.0,0.0,0.0,0.0,0.0,0.0,0.0,0.0,0.0,0.0,0.0,0.0,0.0,0.0,0.0,0.0,0.0,0.0,0.0,0.0,0.0,0.0,0.0,0.0,0.0,0.0,0.0,0.0,0.0,0.0,0.0,0.0,0.0,0.0,0.0,0.0,0.0,0.0,0.0,0.0,0.0,0.0,0.0,0.0,0.0,0.0,0.0,0.0,0.0,0.0,0.0,0.0,0.0,0.0,0.0,0.0,0.0,0.0,0.0,0.0,0.0,0.0,0.0,0.0,0.0,0.0,0.0,0.0,0.0,0.0,0.0,0.0,0.0,0.0,0.0,0.0,0.0,0.0,0.0,0.0,0.0,0.0,0.0,0.0,0.0,0.0,0.0,0.0,0.0,0.0,0.0,0.0,0.0,0.0,0.0,0.0,0.0,0.0,0.0,0.0,0.0,0.0,0.0,0.0,0.0,0.0,0.0,0.0,0.0,0.0,0.0,0.0,0.0,0.0,0.0,0.0,0.0,0.0,0.0,0.0,0.0,0.0,0.0,0.0,0.0,0.0,0.0,0.0,0.0,0.0,0.0,0.0,0.0,0.0,0.0,0.0,0.0,0.0,0.0,0.0,0.0,0.0,0.0,0.0,0.0,0.0,0.0,0.0,0.0,0.0,0.0,0.0,0.0,0.0,0.0,0.0,0.0,0.0,0.0,0.0,0.0,0.0,0.0,0.0,0.0,0.0,0.0,0.0,0.0,0.0,0.0,0.0,0.0,0.0,0.0,0.0,0.0,0.0,0.0,0.0,0.0,0.0,0.0,0.0,0.0,0.0,0.0,0.0,0.0,0.0,0.0,0.0,0.0,0.0,0.0,0.0,0.0,0.0,0.0,0.0,0.0,0.0,0.0,0.0,0.0,0.0,0.0,0.0,0.0,0.0,0.0,0.0,0.0,0.0,0.0,0.0,0.0,0.0,0.0,0.0,0.0,0.0,0.0,0.0,0.0,0.0,0.0,0.0,0.0,0.0,0.0,0.0,0.0,0.0,0.0,0.0,0.0,0.0,0.0,0.0,0.0,0.0,0.0,0.0,0.0,0.0,0.0,0.0,0.0,0.0,0.0,0.0,0.0,0.0,0.0,0.0,0.0,0.0,0.0,0.0,0.0,0.0,0.0,0.0,0.0,0.0,0.0,0.0,0.0,0.0,0.0,0.0,0.0,0.0,0.0,0.0,0.0,0.0,0.0,0.0,0.0,0.0,0.0,0.0,0.0,0.0,0.0,0.0,0.0,0.0,0.0,0.0,0.0,0.0,0.0,0.0,0.0,0.0,0.0,0.0,0.0,0.0,0.0,0.0,0.0,0.0,0.0,0.0,0.0,0.0,0.0,0.0,0.0,0.0,0.0,0.0,0.0,0.0,0.0,0.0,0.0,0.0,0.0,0.0,0.0,0.0,0.0,0.0,0.0,0.0,0.0,0.0,0.0,0.0,0.0,0.0,0.0,0.0,0.0,0.0,0.0,0.0,0.0,0.0,0.0,0.0,0.0,0.0,0.0,0.0,0.0,0.0,0.0,0.0,0.0,0.0,0.0,0.0,0.0,0.0,0.0,0.0,0.0,0.0,0.0,0.0,0.0,0.0,0.0,0.0,0.0,0.0,0.0,0.0,0.0,0.0,0.0,0.0,0.0,0.0,0.0,0.0,0.0,0.0,0.0,0.0,0.0,0.0,0.0,0.0,0.0,0.0,0.0,0.0,0.0,0.0,0.0,0.0,0.0,0.0,0.0,0.0,0.0,0.0,0.0,0.0,0.0,0.0,0.0,0.0,0.0,0.0,0.0,0.0,0.0,0.0,0.0,0.0,0.0,0.0,0.0,0.0,0.0,0.0,0.0,0.0,0.0,0.0,0.0,0.0,0.0,0.0,0.0,0.0,0.0,0.0,0.0,0.0,0.0,0.0,0.0,0.0,0.0,0.0,0.0,0.0,0.0,0.0,0.0,0.0,0.0,0.0,0.0,0.0,0.0,0.0,0.0,0.0,0.0,0.0,0.0,0.0,0.0,0.0,0.0,0.0,0.0,0.0,0.0,0.0,0.0,0.0,0.0,0.0,0.0,0.0,0.0,0.0,0.0,0.0,0.0,0.0,0.0,0.0,0.0,0.0,0.0,0.0,0.0,0.0,0.0,0.0,0.0,0.0,0.0,0.0,0.0,0.0,0.0,0.0,0.0,0.0,0.0,0.0,0.0,0.0,0.0,0.0,0.0,0.0,0.0,0.0,0.0,0.0,0.0,0.0,0.0,0.0,0.0,0.0,0.0,0.0,0.0,0.0,0.0,0.0,0.0,0.0,0.0,0.0,0.0,0.0,0.0,0.0,0.0,0.0,2.5487,0.0,0.0,0.0,0.0,0.0,0.0,0.0,0.0,0.0,0.0,0.0,0.0,0.0,0.0,0.0,0.0,0.0,0.0,0.0,0.0,0.0,0.0,0.0,0.0,0.0,0.0,0.0,0.0,0.0,0.0,0.0,0.0,0.0,0.0,0.0,0.0,0.0,0.0,0.0,0.0,0.0,0.0,0.0,0.0,0.0,0.0,0.0,0.0,0.0,0.0,0.0,0.0,0.0,0.0,0.0,0.0,0.0,0.0,0.0,0.0,0.0,0.0,0.0,0.0,0.0,0.0,0.0,0.0,0.0,0.0,0.0,0.0,0.0,0.0,0.0,0.0,0.0,0.0,0.0,0.0,0.0,0.0,0.0,0.0,0.0,0.0,0.0,0.0,0.0,0.0,0.0,0.0,0.0,0.0,0.0,0.0,0.0,0.0,0.0,0.0,0.0,0.0,0.0,0.0,0.0,0.0,0.0,0.0,0.0,0.0,0.0,0.0,0.0,0.0,0.0,0.0,2.7317,0.0,0.0,0.0,0.0,0.0,0.0,0.0,0.0,0.0,0.0,0.0,0.0,0.0,0.0,0.0,0.0,0.0,0.0,0.0,0.0,0.0,0.0,0.0,0.0,0.0,0.0,0.0,0.0,0.0,0.0,0.0,0.0,0.0,0.0,0.0,0.0,0.0,0.0,0.0,0.0,0.0,0.0,0.0,0.0,0.0,0.0,0.0,0.0,0.0,0.0,0.0,0.0,0.0,0.0,0.0,0.0,0.0,0.0,0.0,0.0,0.0,0.0,0.0,0.0,0.0,0.0,0.0,0.0,0.0,0.0,0.0,0.0,0.0,0.0,0.0,0.0,0.0,0.0,0.0,0.0,0.0,0.0,0.0,0.0,0.0,0.0,0.0,0.0,0.0,0.0,0.0,0.0,0.0,0.0,0.0,0.0,0.0,0.0,0.0,0.0,0.0,0.0,0.0,0.0,0.0,0.0,0.0,0.0,3.1668,3.2096,3.3191,3.3929,3.4302,3.42,3.2035,3.0957,3.0705,3.0858,0.0,0.0,0.0,0.0,0.0,0.0,0.0,0.0,0.0,0.0,0.0,0.0,0.0,0.0,0.0,0.0,0.0,0.0,0.0,0.0,0.0,0.0,0.0,0.0,0.0,0.0,0.0,0.0,0.0,0.0,0.0,0.0,0.0,0.0,0.0,0.0,0.0,0.0,3.0338,3.1367,3.1363,3.0464,0.0,0.0,0.0,0.0,0.0,0.0,0.0,0.0,0.0,0.0,0.0,0.0,0.0,0.0,0.0,0.0,0.0,0.0,0.0,0.0,0.0,0.0,0.0,0.0,0.0,0.0,0.0,0.0,0.0,0.0,0.0,0.0,0.0,0.0,0.0,0.0,0.0,0.0,0.0,0.0,0.0,0.0,0.0,0.0,1.8667,1.9238,0.0,0.0,0.0,0.0,0.0,0.0,0.0,0.0,0.0,0.0,0.0,0.0,0.0,2.9944,3.112,3.1387,3.2239,3.3587,3.4151,3.4891,3.5736,3.6589,3.7189,3.7558,3.7274,0.0,3.3884,3.4935,0.0,0.0,0.0,0.0,0.0,0.0,0.0,0.0,0.0,0.0,0.0,0.0,0.0,0.0,0.0,0.0,0.0,0.0,0.0,0.0,0.0,0.0,0.0,0.0,0.0,0.0,0.0,0.0,0.0,0.0,0.0,0.0,0.0,0.0,0.0,0.0,3.0239,3.1337,3.2452,3.2748,3.2953,3.3027,3.2568,3.1185,2.9146,2.7832,0.0,0.0,0.0,0.0,0.0,0.0,0.0,0.0,0.0,0.0,0.0,0.0,0.0,0.0,0.0,0.0,0.0,0.0,0.0,0.0,0.0,0.0,0.0,0.0,0.0,0.0,0.0,0.0,0.0,0.0,0.0,0.0,0.0,0.0,0.0,0.0,0.0,0.0,0.0,1.9797,2.0411,2.0752,2.1827,2.2616,0.0,0.0,0.0,0.0,0.0,0.0,0.0,0.0,0.0,2.985,3.068,3.1486,3.2222,3.2545,3.3534,3.5193,3.4949,3.5824,3.7605,3.8042,3.8639,3.9408,3.9928,3.9487,3.838,3.7689,3.702,3.6524,0.0,0.0,0.0,0.0,3.7475,3.7987,0.0,0.0,0.0,0.0,0.0,0.0,0.0,0.0,0.0,0.0,0.0,0.0,0.0,0.0,0.0,1.7153,0.0,0.0,0.0,0.0,0.0,0.0,0.0,0.0,0.0,0.0,0.0,0.0,3.2609,3.3545,3.4866,3.4845,3.5101,3.558,3.536,3.3781,3.1119,2.9392,2.8329,0.0,0.0,0.0,0.0,0.0,0.0,0.0,0.0,0.0,0.0,0.0,0.0,0.0,0.0,0.0,0.0,0.0,0.0,0.0,0.0,0.0,0.0,0.0,0.0,0.0,0.0,0.0,0.0,0.0,0.0,0.0,0.0,0.0,0.0,0.0,0.0,0.0,0.0,2.1246,2.1961,2.2324,2.3177,2.384,0.0,0.0,0.0,0.0,0.0,0.0,2.888,2.9752,3.0247,3.0336,3.1813,3.2801,3.3212,3.3684,3.4713,3.6249,3.56,3.6322,3.8344,3.8999,3.9613,4.0292,4.1453,4.1866,4.1576,4.0019,3.937,3.9451,4.0422,4.0647,4.0479,4.0686,4.0839,4.1065,0.0,0.0,0.0,0.0,0.0,0.0,0.0,0.0,0.0,0.0,0.0,0.0,0.0,0.0,1.4837,1.6423,1.7388,1.8534,0.0,0.0,0.0,0.0,0.0,0.0,0.0,0.0,0.0,3.295,3.517,3.6801,3.781,3.8607,3.9125,3.925,3.7938,3.5519,3.2398,3.1957,3.0703,2.8956,0.0,0.0,0.0,0.0,0.0,0.0,0.0,0.0,0.0,0.0,0.0,0.0,0.0,0.0,0.0,0.0,0.0,0.0,0.0,0.0,0.0,0.0,0.0,0.0,0.0,0.0,0.0,0.0,0.0,0.0,0.0,0.0,0.0,0.0,0.0,0.0,0.0,0.0,0.0,2.2975,2.3394,0.0,0.0,0.0,0.0,2.7083,2.8277,2.8996,2.9075,3.0134,3.077,3.077,3.2524,3.3717,3.4306,3.5014,3.5768,3.6507,3.6692,3.6951,3.7333,3.9578,4.0388,4.0126,4.2156,4.2586,4.1915,4.2268,4.2314,4.2236,4.2767,4.2691,4.2269,4.2269,4.2558,4.3068,0.0,0.0,0.0,0.0,0.0,0.0,0.0,0.0,0.0,0.0,0.0,0.0,0.0,1.3292,1.4815,1.6669,1.7678,1.8946,2.0611,0.0,0.0,0.0,0.0,0.0,0.0,0.0,3.2237,3.3974,3.5319,3.6783,3.8323,3.8775,3.9309,3.9876,3.9259,3.809,3.6429,3.4394,3.2959,3.1936,3.0514,2.9425,0.0,0.0,0.0,0.0,0.0,0.0,0.0,0.0,0.0,0.0,0.0,0.0,0.0,0.0,0.0,0.0,0.0,0.0,0.0,0.0,0.0,0.0,0.0,0.0,0.0,0.0,0.0,0.0,0.0,0.0,0.0,0.0,0.0,0.0,0.0,0.0,0.0,2.383,2.4175,0.0,2.4855,2.5588,2.6126,2.6377,2.7154,2.7834,2.8297,2.9396,3.0273,3.0775,3.2099,3.3148,3.3939,3.4638,3.5321,3.599,3.599,3.6708,3.8067,3.8686,3.9598,4.0766,4.1598,4.2105,4.2416,4.3293,4.3279,4.2828,4.4038,4.4682,4.4944,4.5304,4.5789,4.6355,0.0,0.0,0.0,0.0,0.0,0.0,0.0,0.0,0.0,0.0,0.0,1.148,1.1727,1.2852,1.4418,1.6402,1.7357,1.8701,2.0728,0.0,0.0,0.0,0.0,0.0,0.0,3.1187,3.2989,3.4887,3.5903,3.7294,3.8962,3.943,4.0108,4.0935,4.0693,4.0276,3.9668,3.7479,3.5844,3.4575,3.2898,3.1706,3.086,0.0,0.0,0.0,0.0,0.0,0.0,0.0,0.0,0.0,0.0,0.0,0.0,0.0,0.0,0.0,0.0,0.0,0.0,0.0,0.0,0.0,0.0,0.0,0.0,0.0,0.0,0.0,0.0,0.0,0.0,0.0,0.0,0.0,0.0,0.0,2.4128,2.4891,2.4808,2.4845,2.5197,2.5413,2.5699,2.6141,2.6701,2.7415,2.8358,2.9203,3.0027,3.0835,3.2016,3.2932,3.3622,3.4391,3.507,3.5621,3.5604,3.6313,3.7731,3.8256,3.923,4.0531,4.1421,4.2056,4.2547,4.3871,4.3983,4.3526,4.5323,4.625,4.6638,4.723,4.7675,4.8082,0.0,0.0,0.0,0.0,0.0,0.0,0.0,0.0,0.0,0.0,0.0,1.1523,1.166,1.2325,1.3588,1.5565,1.6386,1.7787,2.0159,2.131,0.0,0.0,0.0,0.0,2.9869,3.2258,3.4197,3.564,3.708,3.8451,3.9783,4.0795,4.1719,4.2569,4.2258,4.2037,4.1789,4.1138,3.9305,3.6761,3.5438,3.4472,3.3697,0.0,0.0,0.0,0.0,0.0,0.0,0.0,0.0,0.0,0.0,0.0,0.0,0.0,0.0,0.0,0.0,0.0,0.0,0.0,0.0,0.0,0.0,0.0,0.0,0.0,0.0,0.0,0.0,0.0,0.0,0.0,0.0,0.0,2.3378,2.3872,2.4759,2.6157,2.5265,2.4849,2.5665,2.5712,2.5913,2.6459,2.7026,2.7934,2.9248,2.9613,3.0135,3.0922,3.2224,3.3094,3.3455,3.4453,3.5118,3.5474,3.5606,3.5879,3.6273,3.8435,3.9361,3.9424,4.1719,4.249,4.2286,4.4025,4.4555,4.4427,4.6557,4.728,4.7209,4.7855,4.8044,4.8089,0.0,0.0,0.0,0.0,0.0,0.0,0.0,0.0,0.0,0.0,1.0107,1.0646,1.1056,1.2032,1.3212,1.4646,1.5876,1.7188,1.8572,0.0,0.0,0.0,0.0,0.0,2.9508,3.1911,3.3575,3.4468,3.6168,3.7684,3.902,3.9998,4.0949,4.1904,4.2429,4.2637,4.2541,4.2008,4.1324,4.0414,3.8153,3.6872,3.6158,0.0,0.0,0.0,0.0,0.0,0.0,0.0,0.0,0.0,0.0,0.0,0.0,0.0,0.0,0.0,0.0,0.0,0.0,0.0,0.0,0.0,0.0,0.0,0.0,0.0,0.0,0.0,0.0,0.0,0.0,0.0,0.0,2.5175,2.4862,2.5038,2.547,2.6205,2.601,2.5929,2.6246,2.5827,2.5756,2.6235,2.639,2.681,2.7616,2.8541,2.9331,2.9898,3.099,3.1827,3.2418,3.3654,3.4371,3.4565,3.525,3.5782,3.6226,3.7242,3.829,3.9345,4.0387,4.1611,4.2957,4.3853,4.4541,4.5101,4.6173,4.7028,4.77,4.789,4.8548,4.9433,0.0,0.0,0.0,0.0,0.0,0.0,0.0,0.0,0.0,0.0,0.9953,1.0443,1.0813,1.1709,1.2814,1.4165,1.5404,1.6733,1.8199,0.0,0.0,0.0,0.0,2.7989,2.9451,3.1582,3.3186,3.4197,3.5691,3.7157,3.8537,3.9239,4.0278,4.1612,4.2187,4.2621,4.2943,4.2582,4.2463,4.2346,4.041,3.9133,3.8274,3.7204,3.5847,3.4453,3.3852,3.2819,3.1578,3.0348,0.0,0.0,0.0,0.0,0.0,0.0,0.0,0.0,0.0,0.0,0.0,0.0,0.0,0.0,0.0,0.0,0.0,0.0,0.0,0.0,0.0,0.0,0.0,0.0,2.5641,2.6322,2.6305,2.5959,2.5883,2.6443,2.6314,2.6214,2.6266,2.5928,2.6045,2.6807,2.6571,2.6903,2.8112,2.8463,2.9075,2.9991,3.0489,3.1205,3.2212,3.2968,3.3535,3.3928,3.4709,3.5247,3.5595,3.6487,3.7619,3.8929,3.9662,4.0898,4.2501,4.3705,4.4461,4.4971,0.0,0.0,0.0,0.0,4.9252,4.9931,0.0,0.0,0.0,0.0,0.0,0.0,0.0,0.0,0.0,0.0,0.0,1.0745,1.0889,1.1481,1.2453,1.3873,1.4992,1.6567,0.0,0.0,0.0,2.4897,2.6534,2.8052,2.9453,3.1144,3.2768,3.4291,3.5297,3.6598,3.8074,3.8489,3.963,4.1261,4.1508,4.205,4.2776,4.2767,4.2782,4.2757,4.1945,4.1029,4.0066,3.944,3.8193,3.6655,3.6149,3.4863,3.3274,3.2345,0.0,0.0,0.0,0.0,0.0,0.0,0.0,0.0,0.0,0.0,0.0,0.0,0.0,0.0,0.0,0.0,0.0,0.0,0.0,0.0,0.0,0.0,0.0,0.0,2.6662,2.7039,2.7525,2.6645,2.6176,2.6711,2.6393,2.6091,2.6114,2.6114,2.6559,2.77,2.7124,2.756,2.9422,0.0,0.0,0.0,0.0,3.0877,3.2184,3.2378,3.2736,3.3319,3.4053,3.4491,3.4676,3.5914,3.7122,3.829,3.9205,4.03,4.1527,4.3545,4.4417,4.4708,4.6945,4.7861,4.8051,4.9426,4.9892,4.9876,0.0,0.0,0.0,0.0,0.0,0.0,0.0,0.0,0.0,1.1226,1.1274,1.1334,1.1592,1.2063,1.2645,1.3324,1.49,1.7124,0.0,0.0,2.322,2.5152,2.5872,2.7013,2.8753,2.9873,3.1243,3.2898,3.4008,3.5316,3.6801,3.7701,3.8541,3.9283,4.0071,4.0591,4.0873,4.1563,4.1634,4.1295,4.1629,4.1615,4.1379,4.0807,3.9532,3.8054,3.8199,3.7058,3.5245,3.3931,3.2834,3.1662,2.9694,0.0,0.0,0.0,0.0,0.0,0.0,0.0,0.0,0.0,0.0,0.0,0.0,0.0,0.0,0.0,0.0,0.0,0.0,0.0,0.0,2.6371,2.6892,2.7329,2.7423,2.7138,2.6902,2.6808,2.6714,2.6687,2.6812,2.6726,2.6922,2.759,2.6927,2.6847,2.7661,2.8039,2.8311,2.8466,2.9456,3.0103,3.0411,3.1515,3.2151,3.2315,3.3242,0.0,3.4299,3.4838,3.6082,3.7857,3.8363,3.9861,4.2016,4.2965,4.4528,4.6407,4.7606,4.7959,4.7981,4.9371,4.9797,4.9717,0.0,0.0,0.0,0.0,0.0,0.0,0.0,0.0,0.0,0.0,1.1018,1.1144,1.1427,1.1863,1.2398,1.303,1.5367,0.0,0.0,2.1566,2.2894,2.4816,2.5396,2.6404,2.8026,2.9064,3.0192,3.139,3.2521,3.3805,3.5207,3.6027,3.6956,3.7966,3.8731,3.9233,3.9581,4.018,4.0303,4.0107,4.0521,4.0757,4.0768,4.0531,3.983,3.8922,3.8707,3.7711,3.6273,3.5118,3.3942,3.2673,3.1137,2.9824,2.8764,0.0,0.0,0.0,0.0,0.0,0.0,0.0,0.0,0.0,0.0,0.0,0.0,0.0,0.0,2.6548,0.0,0.0,2.6921,2.675,2.6964,2.7196,2.7196,2.7144,2.7104,2.7091,2.7111,2.7111,2.7111,2.7111,2.7265,2.7724,2.7166,2.7026,2.7504,2.7589,2.7736,2.8045,2.8624,2.9122,2.9486,3.0528,3.1058,3.1073,3.2198,3.2866,3.3145,3.4049,3.5419,3.7124,3.774,3.9225,4.1303,4.2572,4.438,4.646,4.8025,4.858,4.8647,4.9942,5.0246,5.0129,0.0,0.0,0.0,0.0,0.0,0.0,0.0,0.0,0.0,0.0,0.0,1.0821,1.1003,1.1608,1.2493,0.0,0.0,0.0,0.0,2.1474,2.2567,2.4189,2.4834,2.5816,2.7157,2.8164,2.914,3.0053,3.1063,3.2249,3.363,3.4122,3.5178,3.6697,3.7077,3.7668,3.8335,3.8699,3.8842,3.8858,3.8968,3.909,3.9129,3.9014,3.9174,3.9321,3.8622,3.7697,3.6678,3.5709,3.4512,3.3261,3.228,3.1209,3.0315,3.0165,2.914,0.0,0.0,0.0,0.0,0.0,0.0,0.0,0.0,0.0,2.7554,2.7895,2.7974,2.7846,2.7483,2.7368,2.7199,2.6913,2.6873,2.6841,2.6776,2.6837,2.6989,2.7248,2.7325,2.731,2.7207,2.7284,2.7454,2.7664,2.7345,2.7272,2.7571,2.7147,2.7196,2.7853,2.7908,2.823,2.8824,2.9498,2.9822,2.9837,3.1043,3.1632,3.1793,3.3189,3.4716,3.6264,3.7429,3.8933,4.0622,4.2388,4.4105,4.5913,4.7961,4.8964,4.9407,5.0592,5.0778,5.0457,0.0,0.0,0.0,0.0,0.0,0.0,0.0,0.0,0.0,0.0,0.0,0.0,0.0,0.0,0.0,0.0,0.0,0.0,2.0528,2.1307,2.2217,2.329,2.405,2.4897,2.5985,2.6649,2.7681,2.9161,2.9748,3.0783,3.2234,3.2591,3.3495,3.4794,3.4685,3.5329,3.6519,3.7052,3.7216,3.717,3.7048,3.6947,3.6701,3.5992,3.7096,3.8983,3.8418,3.7552,3.6413,3.5015,3.4281,3.374,3.2279,3.1711,3.1452,3.0742,0.0,2.8552,2.8233,2.8091,2.8029,2.8157,2.8874,2.9646,0.0,0.0,2.9425,2.9295,2.9283,2.908,2.8405,2.7927,2.7376,2.6506,2.6367,2.6273,2.5981,2.6295,2.663,2.6832,2.7093,2.7233,2.7207,2.7207,2.7133,2.6934,2.6875,2.6729,2.6494,2.6541,2.6606,2.6691,2.7364,2.7766,2.7866,2.8519,2.8867,2.8881,2.9739,3.0338,3.0788,3.1988,3.3472,3.5307,3.7767,3.9756,4.1296,4.2554,4.3961,4.5399,4.6771,4.8217,4.9629,5.1012,5.0889,5.005,0.0,0.0,0.0,0.0,0.0,0.0,0.0,0.0,0.0,0.0,0.0,0.0,0.0,0.0,0.0,0.0,0.0,0.0,1.9424,2.0293,2.1095,2.1874,2.2293,2.3014,2.4145,2.4633,2.5578,2.6894,2.7439,2.8563,3.0262,3.0806,3.1586,3.2609,3.3042,3.3412,3.3817,3.482,3.5228,3.5226,3.5444,3.5493,3.5353,3.4868,3.5248,3.6096,3.6151,3.5839,0.0,0.0,3.3203,3.3195,3.1677,3.1221,3.1159,3.0914,2.9884,0.0,2.8817,2.9083,2.9363,0.0,2.9624,3.0008,3.0479,3.0325,3.0197,3.0499,3.0504,3.0158,2.9276,2.8928,2.8309,0.0,2.6649,2.6518,2.5932,2.6101,2.6326,2.6474,2.6671,2.6762,2.6671,2.6843,2.6765,2.6313,2.634,2.6313,2.6084,2.6192,2.6285,2.6379,2.6784,2.6955,2.6903,2.7631,2.7948,2.7893,2.8583,2.9203,2.9822,3.0848,3.2645,3.5152,3.7573,3.9425,4.0821,4.2109,4.3547,4.5049,4.6617,4.7423,4.7965,4.9859,5.0823,5.1202,0.0,0.0,0.0,0.0,0.0,0.0,0.0,0.0,0.0,0.0,0.0,0.0,0.0,0.0,0.0,0.0,0.0,0.0,0.0,1.8818,1.9463,2.0219,2.0522,0.0,2.2128,2.2772,2.3556,2.4533,2.5124,2.6202,2.7815,2.8602,2.9468,3.0422,3.1231,3.1675,3.1856,3.2818,3.336,3.3603,3.365,3.3857,3.4014,3.329,3.3032,3.3165,3.3983,3.4072,0.0,0.0,3.1804,3.1794,3.0719,3.0348,3.0433,3.0837,3.0107,2.9107,2.891,0.0,0.0,2.9966,3.0093,3.0336,3.0799,3.0722,3.0671,3.113,3.1087,3.0719,2.9884,2.9491,2.8696,2.696,2.6722,2.6484,2.5753,2.5876,2.6084,2.6233,2.6365,2.6365,2.6206,2.6527,2.65,2.5948,2.5975,2.5989,2.5798,2.5921,2.6056,2.6206,2.6312,2.6365,2.6313,2.6852,2.7066,2.7026,2.7612,2.814,2.8624,2.9954,3.2021,3.472,3.6772,3.8568,4.0186,4.1438,4.2998,4.4717,4.6155,4.6859,4.7235,4.8967,5.0349,5.1397,0.0,0.0,0.0,0.0,0.0,0.0,0.0,0.0,0.0,0.0,0.0,0.0,0.0,0.0,0.0,0.0,0.0,0.0,0.0,1.6864,1.72,1.8341,1.8959,1.9486,1.9981,2.115,2.1932,2.2309,2.302,2.3841,2.475,2.5825,2.704,2.8335,2.8999,3.0002,3.1221,3.1268,3.1762,3.246,3.1504,3.1694,3.2348,3.047,3.0158,3.093,3.2625,0.0,0.0,0.0,3.0255,2.9486,2.9307,2.9252,0.0,3.0508,3.0235,0.0,0.0,0.0,2.9277,2.986,3.0633,3.1276,3.145,3.1263,3.1087,3.1102,3.0851,3.0507,3.0162,2.9163,2.7971,2.6614,2.6249,2.588,2.5124,2.5514,2.5948,2.6084,2.6218,2.6206,0.0,2.6285,2.6324,2.5921,2.5893,2.5798,2.5522,2.5633,2.5784,2.5921,2.6029,2.6179,2.6313,2.6193,2.6207,2.6342,2.6887,2.7102,2.7131,2.9388,3.1539,3.3636,3.5189,3.7268,3.9601,4.0702,4.2353,4.4304,4.4996,4.6554,4.8466,4.8869,4.9153,4.9557,0.0,0.0,0.0,0.0,0.0,0.0,0.0,0.0,0.0,0.0,0.0,0.0,0.0,0.0,0.0,0.0,0.0,0.0,0.0,1.4646,1.5038,1.5259,1.5478,1.6103,1.7154,1.7805,1.8662,1.9742,2.0456,2.1474,2.2817,2.3664,2.4633,2.5644,2.6356,2.7048,2.7768,2.9017,2.9513,2.9602,3.0502,3.0587,3.0145,2.974,2.9305,2.8986,0.0,0.0,0.0,0.0,0.0,0.0,2.7866,0.0,0.0,2.7684,0.0,0.0,0.0,0.0,3.0205,3.0103,3.061,3.1043,3.0542,3.069,3.0821,3.0612,3.0477,3.0266,2.9837,2.9451,2.8784,2.76,2.7116,2.6638,2.5825,2.5744,2.5784,2.5839,2.6029,0.0,0.0,0.0,0.0,2.5647,2.5439,2.5286,2.53,2.5258,2.5355,2.5619,2.5771,2.5866,2.5893,2.5948,2.5975,2.6043,2.6539,2.6863,2.713,2.9136,3.0971,3.2689,3.4728,3.7033,3.9449,4.0571,4.2133,4.3981,4.4843,4.5502,4.616,4.77,4.8304,4.865,0.0,0.0,0.0,0.0,0.0,0.0,0.0,0.0,0.0,0.0,0.0,0.0,0.0,0.0,0.0,0.0,0.0,0.0,0.0,0.0,1.2763,1.2731,1.2742,1.318,1.4153,1.4973,1.5928,1.6988,1.7868,1.8949,2.028,2.1073,2.195,2.2835,2.3818,2.4513,2.4999,2.6643,2.7223,2.7193,2.8528,2.8719,2.8222,2.8116,2.7821,0.0,0.0,0.0,0.0,0.0,0.0,0.0,0.0,0.0,0.0,0.0,0.0,0.0,0.0,2.904,2.9507,2.9354,2.9941,3.0368,2.9694,3.009,3.048,2.9903,2.98,2.9645,2.9233,2.8969,2.8498,2.7509,2.704,2.6571,2.5899,2.5645,2.5536,2.5633,2.5771,2.5853,0.0,0.0,0.0,2.5397,2.5159,2.5005,2.4977,2.4892,2.499,2.5229,2.5328,2.5425,2.5536,2.5619,2.5688,2.5743,2.6106,2.6512,2.6962,2.8292,2.9984,3.1916,3.3693,3.5981,3.8592,4.0004,4.1562,4.317,4.4363,4.5035,4.5509,4.7137,4.8049,4.8785,0.0,0.0,0.0,0.0,0.0,0.0,0.0,0.0,0.0,0.0,0.0,0.0,0.0,0.0,0.0,0.0,0.0,0.0,0.0,0.0,0.0,1.0859,1.0716,1.0822,1.1217,1.2746,1.3737,1.4188,1.5391,1.6379,1.7172,1.8113,1.9048,2.0014,2.138,2.2347,2.3026,2.4227,2.4931,2.5253,2.5665,2.6153,2.6514,2.574,0.0,0.0,0.0,0.0,0.0,0.0,0.0,0.0,0.0,0.0,0.0,0.0,0.0,2.8534,2.8033,2.7615,2.7395,2.779,2.8708,2.9392,2.8907,2.9508,2.9932,2.9018,2.8801,2.8682,0.0,0.0,2.7131,2.6427,2.6162,2.5857,2.532,2.5242,2.5299,0.0,0.0,0.0,0.0,0.0,0.0,2.5174,0.0,2.4863,2.4591,2.4578,2.4635,2.4778,2.4778,2.492,2.5174,2.5202,2.53,2.5494,2.5633,2.5981,2.6566,2.6947,2.8639,3.1289,3.2257,3.4317,3.7169,3.8995,4.0594,4.2029,4.3567,4.5013,4.6339,4.711,4.8305,4.969,0.0,0.0,0.0,0.0,0.0,0.0,0.0,0.0,0.0,0.0,0.0,0.0,0.0,0.0,0.0,0.0,0.0,0.0,0.0,0.0,0.0,0.0,0.0,0.0,0.0,0.0,0.0,0.0,0.0,1.4593,1.5315,1.6262,1.7068,0.0,1.8833,1.9862,2.0861,2.2087,2.2634,2.2867,0.0,2.4758,2.429,0.0,0.0,0.0,0.0,0.0,0.0,0.0,0.0,0.0,0.0,0.0,2.772,0.0,0.0,2.7677,2.7739,2.7596,2.744,2.7466,2.7995,2.8369,2.764,2.7982,2.8333,2.7942,2.7781,2.7555,0.0,0.0,0.0,2.6656,2.6502,0.0,2.6069,2.5851,0.0,2.5326,0.0,2.5494,2.5494,2.5328,0.0,0.0,2.4778,2.4607,2.4392,2.4392,2.4379,2.4421,2.4578,2.4734,2.4892,2.509,2.53,2.5494,2.5383,2.5494,2.5813,2.6972,2.8526,3.045,3.2571,3.4984,3.7452,3.8699,4.0169,4.1812,4.3113,4.3911,4.4557,4.6454,4.7659,4.8477,0.0,0.0,0.0,0.0,0.0,0.0,0.0,0.0,0.0,0.0,0.0,0.0,0.0,0.0,0.0,0.0,0.0,0.0,0.0,0.0,0.0,0.0,0.0,0.0,0.0,0.0,0.0,0.0,0.0,0.0,0.0,1.4737,1.5449,1.6246,1.701,1.7938,1.9028,0.0,0.0,0.0,0.0,0.0,0.0,0.0,0.0,0.0,0.0,0.0,0.0,0.0,0.0,2.6897,2.723,2.7602,2.7975,2.8402,0.0,2.814,2.8201,2.7792,2.7271,2.706,2.7287,2.74,2.661,2.703,2.7386,2.674,2.6656,0.0,2.5919,2.6065,0.0,0.0,0.0,0.0,2.5669,2.5415,2.5126,0.0,2.4774,0.0,2.486,2.4681,2.4486,0.0,2.4502,2.4463,2.4144,2.4173,2.4203,2.4115,2.4303,2.4476,2.4706,2.4977,2.5188,2.5285,2.5244,2.5272,2.5383,2.6284,2.7669,2.9561,3.1663,3.3981,3.6393,3.8088,3.963,4.1041,4.2164,4.3312,4.4489,4.5652,4.7167,4.8687,0.0,0.0,0.0,0.0,0.0,0.0,0.0,0.0,0.0,0.0,0.0,0.0,0.0,0.0,0.0,0.0,0.0,0.0,0.0,0.0,0.0,0.0,0.0,0.0,0.0,0.0,0.0,0.0,0.0,0.0,0.0,0.0,0.0,0.0,0.0,0.0,0.0,0.0,0.0,0.0,0.0,0.0,0.0,0.0,0.0,0.0,0.0,0.0,0.0,0.0,2.6374,2.6937,2.7775,2.8267,2.8719,2.9664,2.9517,2.902,2.8812,2.7921,2.7004,2.6635,2.6693,2.6624,2.5786,2.634,2.6685,2.5504,0.0,2.5382,2.4754,2.4779,2.4925,2.4785,0.0,2.462,2.4624,2.4403,2.4197,2.4211,2.3801,2.3646,2.3892,2.3781,2.3697,2.3669,2.4201,2.4345,2.3891,2.4008,2.4037,2.3891,2.3946,2.4179,2.4591,2.4754,2.4895,2.5005,2.5118,2.5174,2.5146,2.5369,2.661,2.8681,3.0309,3.2375,3.4833,3.7303,3.9022,4.0171,4.1102,4.2935,4.5032,4.4968,4.6727,4.9178,0.0,0.0,0.0,0.0,0.0,0.0,0.0,0.0,0.0,0.0,0.6921,0.71,0.0,0.0,0.0,0.0,0.0,0.0,0.0,0.0,0.0,0.0,0.0,0.0,0.0,0.0,0.0,0.0,0.0,0.0,0.0,0.0,0.0,0.0,0.0,0.0,0.0,0.0,0.0,0.0,0.0,0.0,0.0,0.0,0.0,0.0,0.0,0.0,0.0,0.0,2.709,2.8224,2.8255,2.8698,2.9213,2.9071,2.8702,2.8324,2.7971,2.7467,2.6884,2.6344,2.658,2.6652,2.5395,2.5339,0.0,0.0,2.423,2.3914,2.3699,2.3679,2.3651,2.3536,0.0,0.0,0.0,0.0,2.3434,0.0,0.0,0.0,0.0,0.0,0.0,0.0,2.3929,2.4024,2.3658,2.3819,2.392,2.3891,2.3556,2.3745,2.4578,2.4252,2.4391,2.5005,2.5033,2.4977,2.4863,2.5173,2.6272,2.8081,3.0105,0.0,3.4447,3.656,3.8456,4.0044,4.0506,4.1924,4.3881,4.5158,4.6257,4.7454,0.0,0.0,0.0,0.0,0.0,0.0,0.0,0.4664,0.5301,0.6299,0.6908,0.7239,0.7212,0.7366,0.7461,0.0,0.0,0.0,0.0,0.0,0.0,0.0,0.0,0.0,0.0,0.0,0.0,0.0,0.0,0.0,0.0,0.0,0.0,0.0,0.0,0.0,0.0,0.0,0.0,0.0,0.0,0.0,0.0,0.0,0.0,0.0,0.0,0.0,0.0,0.0,2.5743,2.6939,2.7774,2.8398,2.8817,2.8817,2.8643,2.8455,2.823,2.7781,2.72,2.6511,2.6411,2.6185,2.4928,0.0,0.0,0.0,2.3484,2.3198,2.2702,2.2846,0.0,0.0,0.0,0.0,0.0,0.0,0.0,0.0,0.0,0.0,0.0,0.0,2.291,2.321,2.3355,2.3438,2.3497,2.348,2.3569,2.373,2.3467,2.358,2.4138,2.3743,2.3852,2.4446,2.4446,2.451,2.4692,2.4538,2.5379,2.7067,2.8669,3.0793,3.3276,3.5427,3.7431,3.9182,3.9945,4.1319,4.3073,4.469,4.5912,4.7047,0.0,0.0,0.0,0.0,0.0,0.0,0.0,0.4325,0.494,0.6189,0.6795,0.723,0.7552,0.7475,0.7348,0.0,0.0,0.0,0.0,0.0,0.0,0.0,0.0,0.0,0.0,0.0,0.0,0.0,0.0,0.0,0.0,0.0,0.0,0.0,0.0,0.0,0.0,0.0,0.0,0.0,0.0,0.0,0.0,0.0,0.0,0.0,0.0,0.0,0.0,0.0,2.3723,2.4728,2.6232,2.7203,2.7826,2.8007,2.8263,2.8449,2.8281,2.7978,2.753,2.6635,2.64,2.6019,2.4625,2.4551,0.0,0.0,2.2975,2.2641,2.2002,0.0,2.2274,0.0,0.0,0.0,0.0,0.0,0.0,0.0,0.0,0.0,0.0,0.0,0.0,2.2915,2.2856,2.2963,2.3318,2.312,2.3168,2.3467,2.3236,2.3232,2.36,2.3138,2.3177,2.3716,2.3823,2.3968,2.4205,2.3738,2.4417,2.5984,2.7059,2.9146,3.1915,3.4242,3.6259,3.8042,3.9212,4.0669,4.2301,4.3784,4.5225,4.6631,0.0,0.0,0.0,0.0,0.0,0.0,0.0,0.398,0.4696,0.6279,0.6492,0.6845,0.7765,0.8325,0.8287,0.0,0.0,0.0,0.0,0.0,0.0,0.0,0.0,0.0,0.0,0.0,0.0,0.0,0.0,0.0,0.0,0.0,0.0,0.0,0.0,0.0,0.0,0.0,0.0,0.0,0.0,0.0,0.0,0.0,0.0,0.0,0.0,0.0,0.0,0.0,0.0,2.2546,2.2955,2.4476,2.608,2.5802,0.0,0.0,2.7162,2.7471,2.7511,2.6337,2.6681,2.6774,2.4776,0.0,0.0,2.3556,2.2641,2.2002,2.1908,2.1423,0.0,0.0,0.0,2.0673,0.0,0.0,0.0,0.0,0.0,0.0,0.0,0.0,0.0,2.2811,2.2845,2.2967,2.3138,2.2878,2.2848,2.3138,2.2436,2.2437,2.3239,2.2445,2.2389,2.3097,2.3499,2.3444,2.2951,2.3031,2.3784,2.5058,2.6034,2.8024,0.0,3.3156,3.5156,3.6863,3.8134,3.9703,4.1356,4.249,4.3783,4.524,0.0,0.0,0.0,0.0,0.0,0.0,0.3615,0.3665,0.4217,0.5717,0.6043,0.6584,0.7653,0.8059,0.797,0.7231,0.0,0.0,0.0,0.0,0.0,0.0,0.0,0.0,0.0,0.0,0.0,0.0,0.0,0.0,0.0,0.0,0.0,0.0,0.0,0.0,0.0,0.0,0.0,0.0,0.0,0.0,0.0,0.0,0.0,0.0,0.0,0.0,0.0,0.0,0.0,0.0,2.0791,2.1825,0.0,0.0,2.5333,2.5899,2.6348,2.6468,2.6367,2.5976,2.6028,2.5846,2.4474,0.0,2.4087,2.2757,2.2195,2.167,2.095,2.0794,2.0786,0.0,0.0,0.0,0.0,0.0,0.0,0.0,0.0,0.0,0.0,0.0,2.2106,2.1901,2.2448,2.2635,2.2273,2.2359,2.2482,2.2653,2.2285,2.2232,2.2548,2.2036,2.1967,2.2336,2.2524,2.2684,2.2791,2.2392,2.2698,2.3564,2.4518,2.6329,0.0,3.1603,3.3757,3.5536,3.7359,3.8638,3.9643,4.1644,4.2815,4.3702,0.0,0.0,0.0,0.0,0.0,0.3236,0.3392,0.335,0.3787,0.5185,0.5629,0.6258,0.7388,0.7721,0.7595,0.7026,0.7225,0.0,0.0,0.0,0.0,0.0,0.0,0.0,0.0,0.0,0.0,0.0,0.0,0.0,0.0,0.0,0.0,0.0,0.0,0.0,0.0,0.0,0.0,0.0,0.0,0.0,0.0,0.0,0.0,0.0,0.0,0.0,0.0,0.0,0.0,0.0,0.0,0.0,0.0,0.0,2.3853,2.4396,2.5122,2.5268,2.5189,2.5381,2.5384,2.5094,0.0,0.0,2.3613,2.213,2.1612,2.1172,2.0343,2.0272,2.0362,0.0,0.0,2.041,0.0,0.0,0.0,0.0,0.0,0.0,0.0,2.195,2.1956,2.1506,2.214,2.2266,2.1588,2.1737,2.1987,2.2328,2.2112,2.2038,2.2165,2.1718,2.1602,2.1835,2.1835,2.2019,2.2311,2.1928,2.197,2.2379,2.3353,2.5038,0.0,3.0057,3.2297,3.42,3.6259,3.7468,3.8325,4.0595,4.1805,4.2687,0.0,0.0,0.0,0.0,0.0,0.0,0.2968,0.3012,0.3511,0.4922,0.5282,0.5854,0.6991,0.7468,0.7481,0.6943,0.7199,0.0,0.0,0.0,0.0,0.0,0.0,0.0,0.0,0.0,0.8055,0.8395,0.8672,0.0,0.0,0.0,0.0,0.0,0.0,0.0,0.0,0.0,0.0,0.0,0.0,0.0,0.0,0.0,0.0,0.0,0.0,0.0,0.0,0.0,0.0,0.0,0.0,0.0,0.0,0.0,2.1801,2.2842,2.3392,2.3836,2.4173,2.4447,2.4858,2.4856,0.0,0.0,2.3082,2.1929,2.0962,2.0323,2.0381,1.9856,1.9646,2.0301,0.0,0.0,0.0,0.0,0.0,0.0,0.0,0.0,0.0,2.2073,2.261,2.1928,2.2099,0.0,2.1221,2.1031,2.1316,2.2154,2.1765,2.1758,2.2297,2.1451,2.1224,2.1706,2.1706,2.153,2.122,2.1696,2.1835,2.1771,2.2761,2.4354,0.0,2.8626,3.0832,3.2968,3.4652,3.623,3.7666,3.911,4.0722,4.2349,0.0,0.0,0.0,0.0,0.0,0.0,0.0,0.2726,0.3027,0.4018,0.4484,0.5214,0.6483,0.7099,0.7381,0.7315,0.7401,0.0,0.0,0.0,0.0,0.0,0.0,0.0,0.0,0.0,0.7892,0.8208,0.8511,0.8844,0.92,0.0,0.0,0.0,0.0,0.0,0.0,0.0,0.0,0.0,0.0,0.0,0.0,0.0,0.0,0.0,0.0,0.0,0.0,0.0,0.0,0.0,0.0,0.0,0.0,0.0,0.0,0.0,2.2613,2.2766,2.2864,2.401,2.3752,2.3247,2.3385,0.0,2.2069,2.0974,2.0507,2.0,1.908,1.9185,1.9431,1.9552,1.9982,0.0,0.0,0.0,0.0,0.0,0.0,0.0,0.0,0.0,2.2001,2.1471,2.1776,2.1714,2.1031,2.0732,2.0732,2.1094,2.1456,2.1553,2.1409,2.1469,2.1515,2.155,2.1286,2.1121,2.1071,2.1184,2.1202,2.1191,2.1797,2.3098,2.4997,2.7211,2.934,3.1384,3.3703,3.5089,3.6074,3.8244,3.9629,4.0674,0.0,0.0,0.0,0.0,0.0,0.0,0.0,0.2567,0.2763,0.3498,0.4028,0.4794,0.6027,0.6849,0.7321,0.741,0.7527,0.0,0.0,0.0,0.0,0.0,0.0,0.0,0.0,0.7515,0.7771,0.8105,0.8494,0.8914,0.9371,0.9668,0.9872,0.0,0.0,0.0,0.0,0.0,0.0,0.0,0.0,0.0,1.6391,0.0,0.0,0.0,0.0,0.0,0.0,0.0,0.0,0.0,0.0,0.0,0.0,0.0,0.0,0.0,0.0,2.1781,2.2013,2.3213,2.2979,0.0,0.0,0.0,2.1437,2.0398,2.0116,1.9845,1.9189,1.9392,1.9781,2.016,2.0529,0.0,0.0,0.0,0.0,0.0,0.0,0.0,0.0,2.115,2.1176,2.068,2.1004,2.1042,2.0624,2.0399,2.0302,2.0313,2.0816,2.0963,2.0742,2.1274,2.149,2.1346,2.1212,2.1073,2.0997,2.0924,2.0901,2.0927,2.1276,2.2273,0.0,2.5838,2.7888,2.9945,3.2281,3.3845,3.506,3.7169,3.8435,3.9424,0.0,0.0,0.0,0.0,0.0,0.0,0.0,0.2518,0.2682,0.3268,0.3817,0.4551,0.5628,0.6654,0.7253,0.7286,0.0,0.0,0.0,0.0,0.0,0.0,0.0,0.0,0.0,0.7381,0.7646,0.8072,0.8509,0.9025,0.9576,0.9722,0.9962,1.0275,1.0853,0.0,0.0,0.0,0.0,0.0,0.0,0.0,0.0,0.0,0.0,0.0,0.0,0.0,0.0,0.0,0.0,0.0,0.0,0.0,0.0,0.0,0.0,0.0,0.0,0.0,0.0,0.0,0.0,0.0,0.0,0.0,0.0,2.0181,1.9809,1.9791,2.0334,2.0268,2.0505,2.1602,2.1585,0.0,0.0,0.0,0.0,0.0,0.0,0.0,1.9715,2.0226,2.0323,1.9798,1.9952,2.0093,2.0117,2.0052,1.9977,1.9933,2.0009,2.0128,2.0301,2.0957,2.1226,2.1082,2.1361,2.1313,2.0972,2.0899,2.0901,0.0,2.116,2.1773,2.2778,2.4518,2.6507,2.8667,3.0588,3.2601,3.4581,3.5982,3.7266,3.8513,0.0,0.0,0.0,0.0,0.0,0.0,0.0,0.0,0.0,0.0,0.3318,0.4026,0.5222,0.6196,0.6864,0.0,0.0,0.0,0.0,0.0,0.0,0.0,0.0,0.0,0.0,0.6865,0.7267,0.7728,0.7977,0.849,0.9241,0.9612,0.9834,0.996,1.075,1.1404,0.0,0.0,0.0,0.0,0.0,0.0,0.0,0.0,0.0,0.0,1.7401,1.7111,0.0,0.0,0.0,0.0,0.0,0.0,0.0,0.0,1.9149,0.0,0.0,0.0,0.0,0.0,0.0,0.0,0.0,0.0,0.0,0.0,0.0,0.0,0.0,2.0229,2.0709,2.0749,2.1132,2.123,0.0,0.0,0.0,0.0,0.0,1.9813,1.9917,2.0069,2.0201,2.0311,2.0093,2.0104,2.0465,1.9497,1.934,2.0171,1.9726,1.9759,2.0387,2.0854,2.1026,2.0953,2.1213,2.1134,2.0774,2.0762,2.0737,2.075,2.0793,2.1287,2.2153,2.3905,2.5619,2.744,3.0376,3.2354,3.381,3.5888,3.7099,3.7854,0.0,0.0,0.0,0.0,0.0,0.0,0.0,0.0,0.0,0.0,0.0,0.0,0.0,0.0,0.0,0.0,0.0,0.0,0.0,0.0,0.0,0.0,0.0,0.0,0.6581,0.7079,0.7401,0.7493,0.7981,0.8555,0.9213,0.9556,0.9829,1.0051,1.0795,1.1439,0.0,0.0,0.0,0.0,0.0,0.0,0.0,0.0,0.0,0.0,1.6686,1.6435,0.0,1.623,1.632,1.6346,0.0,0.0,0.0,0.0,1.8972,1.9925,2.0911,2.1194,2.1381,2.2168,2.218,0.0,0.0,0.0,0.0,0.0,0.0,0.0,0.0,0.0,0.0,2.1626,2.1945,0.0,0.0,0.0,0.0,0.0,0.0,1.9513,0.0,1.9621,1.9854,2.0197,2.014,2.0352,2.0935,2.0284,2.0185,2.0794,2.0312,2.0096,2.0258,2.0637,2.0904,2.1086,2.103,2.1008,2.0964,2.0729,2.0637,2.0699,2.0637,2.0832,2.1351,2.3226,2.4997,2.6861,2.9723,3.1968,3.3786,3.5244,3.6263,3.7105,0.0,0.0,0.0,0.0,0.0,0.0,0.0,0.0,0.0,0.0,0.0,0.0,0.0,0.0,0.0,0.0,0.0,0.0,0.0,0.0,0.0,0.0,0.0,0.7229,0.6823,0.745,0.7668,0.7409,0.8193,0.8811,0.9268,0.9568,0.998,1.0465,1.0922,1.1402,0.0,0.0,0.0,0.0,1.3317,0.0,0.0,0.0,0.0,0.0,0.0,0.0,0.0,1.5249,1.5729,1.6448,1.551,0.0,0.0,0.0,0.0,0.0,2.1035,2.1889,2.2371,2.2481,2.226,2.2058,0.0,0.0,0.0,0.0,0.0,0.0,0.0,0.0,0.0,0.0,0.0,0.0,0.0,0.0,0.0,0.0,0.0,0.0,1.8948,1.9239,1.9602,1.9897,2.0153,2.0588,2.1284,2.1288,2.1307,2.1482,2.1115,2.0764,2.042,2.0634,2.0934,2.1308,2.1044,2.1073,2.125,2.0875,2.068,2.0624,0.0,0.0,2.0744,2.286,2.4818,2.6787,2.9233,3.1733,3.4041,3.4562,3.5378,3.6426,0.0,0.0,0.0,0.0,0.0,0.0,0.0,0.0,0.0,0.0,0.0,0.0,0.0,0.0,0.0,0.0,0.0,0.0,0.0,0.0,0.0,0.0,0.7228,0.6908,0.6399,0.7003,0.7323,0.7409,0.82,0.8752,0.9055,0.9886,1.0552,1.1084,1.1219,1.1452,1.1753,1.2002,1.22,1.2406,1.2842,0.0,0.0,0.0,0.0,0.0,0.0,0.0,0.0,1.4754,1.4933,1.5315,1.4911,0.0,0.0,0.0,0.0,0.0,2.0526,2.1442,2.2281,2.2783,2.3228,0.0,0.0,0.0,0.0,0.0,0.0,0.0,0.0,0.0,0.0,0.0,0.0,0.0,0.0,0.0,0.0,0.0,0.0,1.9897,1.9497,1.963,1.9809,1.9957,2.014,2.0437,2.0957,2.0693,2.0923,2.1803,2.1313,2.1336,2.1862,2.1494,2.1288,2.1308,2.1814,2.1741,2.1156,2.1514,2.1155,2.0309,0.0,2.112,2.1211,2.3668,2.5619,2.7353,3.0359,3.2526,3.41,3.4857,3.5499,3.6346,0.0,0.0,0.0,0.0,0.0,0.0,0.0,0.0,0.0,0.0,0.0,0.0,0.0,0.0,0.0,0.0,0.0,0.0,0.0,0.0,0.0,0.7202,0.7413,0.7236,0.6648,0.7351,0.7634,0.7471,0.8302,0.8831,0.9079,0.9888,1.0557,1.1027,1.114,1.1352,1.1612,1.1925,1.2101,1.2243,0.0,0.0,0.0,0.0,0.0,0.0,0.0,0.0,0.0,0.0,1.4715,1.5035,1.5233,0.0,0.0,0.0,0.0,0.0,2.0186,2.1511,2.2813,2.3354,2.3433,2.3355,0.0,0.0,0.0,0.0,0.0,0.0,0.0,0.0,0.0,0.0,0.0,0.0,0.0,0.0,0.0,0.0,0.0,2.0184,1.9758,1.9888,2.0156,2.0459,2.0673,2.1098,2.1743,2.1259,2.1312,2.2056,2.1368,2.1305,2.1925,2.1639,2.1677,2.2055,2.1769,2.1716,2.185,2.1519,2.11,2.0681,0.0,2.0823,2.0966,2.3669,2.5869,2.78,3.0665,3.2985,3.4732,3.5387,3.6169,3.7153,0.0,0.0,0.0,0.0,0.0,0.0,0.0,0.0,0.0,0.0,0.0,0.0,0.0,0.0,0.0,0.0,0.0,0.0,0.0,0.0,0.7175,0.6972,0.7504,0.755,0.7017,0.7834,0.809,0.7698,0.8592,0.9169,0.9404,1.0,1.0494,1.0857,1.1037,1.1251,1.1507,1.1842,1.1992,1.209,0.0,0.0,0.0,0.0,0.0,0.0,0.0,0.0,0.0,0.0,0.0,0.0,0.0,0.0,0.0,1.6461,1.7511,1.873,1.9724,2.1296,2.2825,2.3513,0.0,2.3505,2.3911,0.0,0.0,0.0,0.0,0.0,0.0,0.0,0.0,0.0,0.0,0.0,0.0,0.0,0.0,2.0287,2.038,2.0291,1.9706,1.9991,2.0322,2.0596,2.1027,2.1635,2.2372,2.1844,2.1729,2.2223,2.1411,2.121,2.1745,2.169,2.2013,2.2678,2.1892,2.1864,2.2416,2.1693,2.1245,2.1012,2.081,2.0707,2.0861,2.366,2.6078,2.8275,3.0928,3.3326,3.5374,3.6091,3.7043,3.8135,0.0,0.0,0.0,0.0,0.0,0.0,0.0,0.0,0.0,0.0,0.0,0.0,0.0,0.0,0.0,0.0,0.0,0.0,0.0,0.0,0.6941,0.6566,0.7164,0.7465,0.7374,0.81,0.8404,0.8248,0.9248,0.9925,1.0309,1.0428,1.0551,1.073,1.097,1.1214,1.1426,1.1771,1.1877,1.1851,1.228,0.0,0.0,0.0,0.0,0.0,0.0,0.0,0.0,0.0,0.0,0.0,0.0,0.0,0.0,0.0,1.7184,1.7617,1.8994,2.0144,2.1322,2.2722,0.0,0.0,2.4852,2.4669,0.0,0.0,0.0,0.0,0.0,0.0,0.0,0.0,0.0,0.0,0.0,0.0,2.0698,2.0238,2.038,2.0157,1.9314,1.9811,2.0067,1.9718,2.0692,2.1547,2.21,2.172,2.1765,2.2359,2.1588,2.14,2.1877,2.1877,2.2149,2.272,2.275,2.2603,2.2322,2.2625,2.2018,2.0743,2.1222,2.1297,2.1275,2.4026,2.6548,2.888,3.1454,3.3691,3.5644,3.6912,3.7958,3.8929,0.0,0.0,0.0,0.0,0.0,0.0,0.0,0.0,0.0,0.0,0.0,0.0,0.0,0.0,0.0,0.0,0.0,0.0,0.0,0.0,0.671,0.657,0.6964,0.7278,0.7456,0.803,0.834,0.8414,0.9376,1.0027,1.034,1.0539,1.0719,1.0887,1.1173,1.134,1.1419,1.1878,1.2048,1.2039,1.2482,1.2716,0.0,0.0,0.0,0.0,0.0,0.0,0.0,0.0,1.5191,0.0,0.0,0.0,0.0,0.0,0.0,1.8009,1.9469,2.0385,2.1276,2.276,0.0,0.0,0.0,0.0,0.0,0.0,0.0,0.0,0.0,0.0,0.0,0.0,0.0,0.0,0.0,0.0,2.1647,2.1231,2.1045,2.0735,2.0188,1.9868,1.9772,1.9952,2.0219,2.0718,2.1546,2.0906,2.0812,2.1499,2.0583,2.0396,2.1071,2.142,2.187,2.2383,2.2726,2.2827,2.2675,2.2491,2.1894,2.1016,2.0947,2.0839,2.0875,2.3809,2.6368,2.8854,3.2899,3.5043,3.5937,3.7086,3.7853,3.8543,0.0,0.0,0.0,0.0,0.0,0.0,0.0,0.0,0.0,0.0,0.0,0.0,0.0,0.0,0.0,0.0,0.0,0.0,0.6197,0.6455,0.6555,0.6349,0.6805,0.7112,0.7203,0.7937,0.8404,0.8673,0.9604,1.0218,1.0523,1.0776,1.1034,1.1333,1.1498,1.1613,1.1694,1.1917,1.2097,1.2242,1.2312,1.2429,0.0,0.0,0.0,0.0,0.0,0.0,0.0,0.0,0.0,0.0,0.0,0.0,0.0,0.0,0.0,0.0,1.9807,2.046,2.1086,0.0,0.0,0.0,0.0,0.0,0.0,0.0,0.0,0.0,0.0,0.0,0.0,0.0,0.0,0.0,0.0,0.0,2.2,2.1541,2.0929,2.0461,2.0198,1.9788,1.9591,1.9759,1.9914,2.0347,2.1066,2.0355,2.0261,2.1051,2.002,1.9859,2.07,2.1051,2.1526,2.2111,2.2543,2.2818,2.2957,2.2553,2.2068,2.1508,2.1029,2.0748,2.0798,2.332,2.6209,2.9576,3.4065,3.5863,3.6128,3.7214,3.7886,3.8513,0.0,0.0,0.0,0.0,0.0,0.0,0.0,0.0,0.0,0.0,0.0,0.0,0.0,0.0,0.0,0.0,0.0,0.0,0.5927,0.6399,0.6436,0.5826,0.669,0.7004,0.6609,0.7838,0.8666,0.9017,0.996,1.0601,1.1007,1.1216,1.1546,1.199,1.199,1.2116,1.2266,1.1828,1.1951,1.2443,1.1716,1.1803,1.2419,0.0,0.0,0.0,0.0,0.0,0.0,0.0,0.0,0.0,0.0,0.0,0.0,0.0,1.838,1.7518,1.9793,2.0227,0.0,0.0,0.0,0.0,0.0,0.0,0.0,0.0,0.0,0.0,0.0,0.0,0.0,0.0,0.0,0.0,0.0,0.0,2.1482,2.09,1.9876,1.9168,1.9037,1.9486,1.9514,1.8857,1.9849,2.0553,2.068,2.018,2.0306,2.1272,2.0182,1.9994,2.0892,2.0903,2.123,2.1877,2.2242,2.2622,2.3078,2.2969,2.27,2.2255,2.1603,2.1232,2.1207,2.2585,2.6199,3.1246,3.4651,3.6005,3.6145,3.7372,3.8212,3.8992,0.0,0.0,0.0,0.0,0.0,0.0,0.0,0.0,0.0,0.0,0.0,0.0,0.0,0.0,0.0,0.0,0.0,0.0,0.6192,0.6015,0.5922,0.5944,0.5982,0.6273,0.6863,0.7953,0.885,0.9574,0.9995,1.0544,1.1216,1.1501,1.1775,1.1998,1.2251,1.2332,1.2309,1.2381,1.2335,1.2171,1.2376,1.2429,1.2431,0.0,0.0,0.0,0.0,0.0,0.0,0.0,0.0,0.0,0.0,0.0,0.0,0.0,1.9076,1.885,2.0502,0.0,0.0,0.0,0.0,0.0,0.0,0.0,0.0,0.0,0.0,0.0,0.0,0.0,0.0,0.0,0.0,0.0,0.0,0.0,2.2128,2.194,2.1384,2.0884,2.0576,2.0182,1.9855,1.9667,1.9707,1.9911,2.0322,1.9747,1.9751,2.0505,1.97,1.9599,2.0324,2.0711,2.0987,2.1198,2.1636,2.2116,2.2592,2.2818,2.264,2.2135,2.1956,2.1584,2.1337,2.4625,2.7831,3.0977,3.4059,3.5462,3.5938,3.7135,3.7807,3.8245,0.0,0.0,0.0,0.0,0.0,0.0,0.0,0.0,0.0,0.0,0.0,0.0,0.0,0.0,0.0,0.0,0.0,0.0,0.0,0.0,0.6223,0.6167,0.618,0.6545,0.7327,0.7917,0.8743,0.9786,0.9971,1.0587,1.1576,1.1903,1.2267,1.2584,1.2805,1.282,1.2674,1.2621,1.2398,1.2143,1.243,1.2489,1.2381,0.0,0.0,0.0,0.0,0.0,0.0,0.0,0.0,0.0,0.0,0.0,0.0,1.8548,1.8649,1.8773,2.0137,0.0,0.0,0.0,0.0,0.0,0.0,0.0,0.0,0.0,0.0,0.0,0.0,0.0,0.0,0.0,0.0,0.0,0.0,2.3523,2.2457,2.2128,2.1677,2.1342,2.114,2.0499,2.0045,2.0017,1.9779,1.972,1.9952,1.963,1.9699,2.0267,1.9678,1.9608,2.0107,2.0432,2.0646,2.085,2.1222,2.1588,2.1971,2.229,2.2335,2.2176,2.2235,2.2144,2.2237,2.5695,2.8344,3.0513,3.3404,3.4964,3.5731,3.6653,3.7214,3.7666,0.0,0.0,0.0,0.0,0.0,0.0,0.0,0.0,0.0,0.0,0.0,0.0,0.0,0.0,0.0,0.0,0.0,0.0,0.0,0.0,0.6938,0.6424,0.6907,0.7394,0.7841,0.7843,0.8477,0.9749,0.9931,1.0714,1.1972,1.2334,1.2848,1.3459,1.3524,1.3459,1.3272,1.2674,1.2367,1.2205,1.2073,1.21,1.2133,1.1447,0.0,0.0,0.0,0.0,0.0,0.0,0.0,0.0,0.0,0.0,0.0,1.7447,1.7626,1.7891,0.0,0.0,0.0,0.0,0.0,0.0,0.0,0.0,0.0,0.0,0.0,0.0,0.0,0.0,0.0,0.0,0.0,0.0,0.0,0.0,2.2712,2.1811,2.1294,2.1035,2.1088,2.0662,2.0303,2.0098,2.0082,1.9964,1.9668,1.9759,1.9982,2.037,2.0001,1.9913,2.014,2.0118,2.0313,2.0701,2.0942,2.1105,2.1254,2.1571,2.1908,2.2263,2.2394,2.2747,2.3478,2.5864,2.7942,2.993,3.2713,3.4463,3.5537,3.5926,3.6529,3.7209,0.0,0.0,0.0,0.0,0.0,0.0,0.0,0.0,0.0,0.0,0.0,0.0,0.0,0.0,0.0,0.0,0.0,0.0,0.0,0.0,0.6781,0.6344,0.6783,0.7161,0.7432,0.8033,0.8647,0.9251,1.0008,1.0871,1.1777,1.227,1.2714,1.3138,1.3549,1.364,1.3459,1.3459,1.2773,1.1711,1.196,1.1583,1.0848,1.0997,1.0766,0.0,0.0,0.0,0.0,0.0,0.0,0.0,1.5314,1.6007,1.66,1.7679,1.8157,0.0,0.0,0.0,0.0,0.0,0.0,0.0,0.0,0.0,0.0,0.0,0.0,0.0,0.0,0.0,0.0,0.0,0.0,0.0,0.0,0.0,2.3913,2.2628,2.2533,2.2404,2.1894,2.1861,2.1537,2.0767,2.071,2.0524,2.0105,1.9914,1.9941,2.0238,1.9954,1.9973,2.0335,2.0346,2.0475,2.0701,2.0725,2.0737,2.0773,2.1577,2.1945,2.199,2.202,2.2403,2.3186,2.4964,2.7128,2.9572,3.1353,3.3351,3.5261,3.5198,3.5681,3.6393,0.0,0.0,0.0,0.0,0.0,0.0,0.0,0.0,0.0,0.0,0.0,0.0,0.0,0.0,0.0,0.0,0.0,0.0,0.0,0.0,0.0,0.6881,0.6991,0.7125,0.7253,0.8171,0.8896,0.9391,1.059,0.0,0.0,0.0,0.0,1.3104,1.3476,1.3511,1.326,1.3208,1.2303,1.1031,1.1562,1.113,1.0186,1.0127,0.9945,0.9721,0.9273,0.0,0.0,0.0,0.0,0.0,0.0,0.0,1.5688,1.6175,0.0,0.0,0.0,0.0,0.0,0.0,0.0,0.0,0.0,0.0,0.0,0.0,0.0,0.0,0.0,0.0,0.0,0.0,0.0,0.0,0.0,0.0,0.0,2.2946,2.2836,2.2712,2.2379,2.2031,2.1626,2.1074,2.0867,2.0685,2.05,2.0344,2.0363,2.0588,2.0446,2.0438,2.0529,2.054,2.0637,2.0775,2.061,2.0505,2.057,2.1291,2.1829,2.2237,2.2074,2.2577,2.3624,2.4936,2.708,2.9635,3.1035,3.2924,3.4817,3.4868,3.5264,3.5735,0.0,0.0,0.0,0.0,0.0,0.0,0.0,0.0,0.0,0.0,0.0,0.0,0.0,0.0,0.0,0.0,0.0,0.0,0.0,0.0,0.0,0.0,0.7249,0.7139,0.7291,0.8295,0.9105,0.9704,0.0,0.0,0.0,0.0,0.0,1.3249,1.3467,1.342,1.3161,1.275,1.1813,1.0609,1.101,1.0623,0.9714,0.9173,0.897,0.8825,0.7753,0.7911,0.8679,0.9191,0.0,0.0,0.0,0.0,1.462,1.462,0.0,0.0,0.0,0.0,0.0,0.0,0.0,0.0,0.0,0.0,0.0,0.0,0.0,0.0,0.0,0.0,0.0,0.0,0.0,0.0,0.0,0.0,0.0,2.3241,2.2927,2.2763,2.2732,2.2007,2.1491,2.1333,2.1039,2.0849,2.0884,2.0884,2.0921,2.1063,2.0996,2.0919,2.0786,2.0765,2.0818,2.0967,2.0702,2.0673,2.0938,2.1231,2.1764,2.2387,2.2306,2.292,2.4067,2.5175,2.7226,2.9763,3.1037,3.2725,3.4448,3.4702,3.5016,3.5311,0.0,0.0,0.0,0.0,0.0,0.0,0.0,0.0,0.0,0.0,0.0,0.0,0.0,0.0,0.0,0.0,0.0,0.0,0.0,0.0,0.0,0.8003,0.7325,0.718,0.7718,0.8541,0.9221,0.9704,0.0,0.0,0.0,0.0,0.0,1.3396,0.0,0.0,1.3821,1.3199,1.2327,1.1305,1.0546,0.9705,0.8844,0.8521,0.8104,0.7648,0.7649,0.7564,0.76,0.8756,0.9683,0.0,0.0,0.0,0.0,0.0,0.0,0.0,0.0,0.0,0.0,0.0,0.0,0.0,0.0,0.0,0.0,0.0,0.0,0.0,0.0,0.0,0.0,0.0,0.0,0.0,0.0,0.0,0.0,0.0,2.3675,2.342,2.33,2.2829,2.2333,2.1931,2.1849,2.167,2.135,2.12,2.119,2.1254,2.0978,2.0931,2.1126,2.0967,2.0967,2.1158,2.1235,2.1727,2.2583,2.2276,2.1933,2.1622,2.2496,2.3151,2.3667,2.4799,2.6915,2.9537,3.0524,3.2338,3.4414,3.4448,3.4883,3.5424,0.0,0.0,0.0,0.0,0.0,0.0,0.0,0.0,0.0,0.0,0.0,0.0,0.0,0.0,0.0,0.0,0.0,0.0,0.0,0.0,0.0,0.7646,0.7423,0.7398,0.7631,0.8379,0.9117,0.0,0.0,0.0,0.0,1.2987,1.3398,0.0,0.0,0.0,0.0,1.2812,1.1828,1.0574,1.0275,0.9449,0.835,0.0,0.7938,0.7553,0.7497,0.7441,0.7462,0.8014,0.8563,0.9203,1.0181,0.0,0.0,0.0,0.0,0.0,0.0,0.0,0.0,0.0,0.0,0.0,0.0,0.0,0.0,0.0,0.0,0.0,0.0,0.0,0.0,0.0,0.0,0.0,0.0,0.0,0.0,0.0,2.3767,2.3407,2.315,2.2708,2.2262,2.1896,2.1888,2.1819,2.1613,2.1473,2.1408,2.1507,2.1376,2.1315,2.1305,2.1328,2.124,2.1043,2.1093,2.1278,2.1601,2.1898,2.2261,2.2708,2.2911,2.3191,2.3595,2.4847,2.6575,2.851,2.9679,3.1507,3.3455,3.3542,3.4128,3.4916,0.0,0.0,0.0,0.0,0.0,0.0,0.0,0.0,0.0,0.0,0.0,0.0,0.0,0.0,0.0,0.0,0.0,0.0,0.0,0.0,0.0,0.741,0.7521,0.7576,0.7558,0.8278,0.0,0.0,0.0,0.0,1.214,1.2835,1.3252,0.0,1.3518,0.0,0.0,0.0,0.0,1.0292,1.0258,0.9479,0.0,0.0,0.0,0.0,0.7483,0.7445,0.7578,0.7503,0.775,0.8169,0.8629,0.9694,0.0,0.0,0.0,0.0,0.0,0.0,0.0,0.0,0.0,0.0,0.0,0.0,0.0,0.0,0.0,0.0,0.0,0.0,0.0,0.0,0.0,0.0,0.0,0.0,0.0,0.0,0.0,2.3442,2.3155,2.2635,2.2232,2.2028,2.1991,2.1962,2.1962,2.1692,2.16,2.1749,2.1635,2.1459,2.1202,2.1331,2.1194,2.0917,2.1028,2.1087,2.1075,2.1776,2.2689,2.3689,2.3284,2.3245,2.3553,2.4984,2.6174,2.7312,2.9024,3.0686,3.2217,3.2592,3.3369,3.4287,0.0,0.0,0.0,0.0,0.0,0.0,0.0,0.0,0.0,0.0,0.0,0.0,0.0,0.0,0.5501,0.5588,0.6424,0.7212,0.783,0.7876,0.7821,0.7685,0.7629,0.0,0.7677,0.8407,0.0,0.0,0.0,0.0,1.2464,1.2453,1.2789,1.3394,1.3655,1.383,1.386,0.0,0.0,0.0,1.0584,0.9781,0.0,0.0,0.0,0.0,0.0,0.0,0.7747,0.7479,0.7719,0.8128,0.8364,0.9351,1.0636,0.0,0.0,0.0,0.0,0.0,0.0,0.0,0.0,0.0,0.0,0.0,0.0,0.0,0.0,0.0,0.0,0.0,0.0,0.0,0.0,0.0,0.0,0.0,0.0,0.0,0.0,2.3972,2.3771,2.3108,2.2678,2.2641,2.2476,2.2384,2.2384,2.1932,2.1757,2.1894,2.1454,2.1065,2.0733,2.0569,2.0618,2.0917,2.1416,2.1901,2.231,2.2689,2.3195,2.3781,2.3491,2.3367,2.3434,2.5039,2.577,2.6163,2.8858,3.0216,3.086,3.194,3.2916,3.3779,0.0,0.0,0.0,0.0,0.0,0.0,0.0,0.0,0.0,0.0,0.0,0.0,0.0,0.5562,0.5766,0.5959,0.6362,0.6812,0.7225,0.6963,0.6943,0.7242,0.7364,0.7606,0.801,0.8367,0.0,0.0,0.0,1.0809,1.1865,1.2125,1.2438,1.277,1.3275,1.3498,1.3506,1.3042,0.0,0.0,1.1741,1.0873,0.9613,0.0,0.0,0.0,0.0,0.0,0.0,0.8179,0.8252,0.8359,0.8385,0.8842,0.9635,0.0,0.0,0.0,0.0,0.0,0.0,0.0,0.0,0.0,0.0,0.0,0.0,0.0,0.0,0.0,0.0,0.0,0.0,0.0,0.0,0.0,0.0,0.0,0.0,0.0,0.0,0.0,2.3888,2.3471,2.3138,2.2739,2.2616,2.2494,2.2278,2.2173,2.208,2.1906,2.1862,2.1625,2.1164,2.0857,2.0766,2.0917,2.144,2.1686,2.1663,2.2297,2.2641,2.2731,2.3376,2.3764,2.3959,2.4299,2.4447,2.466,2.6121,2.7285,2.8326,3.0103,3.1358,3.2283,0.0,0.0,0.0,0.0,0.0,0.0,0.0,0.0,0.0,0.0,0.0,0.0,0.0,0.0,0.6188,0.6549,0.6571,0.6712,0.7068,0.6723,0.6709,0.7156,0.7365,0.7714,0.8219,0.8485,0.0,0.0,0.0,0.0,0.0,1.2065,1.2361,1.2562,1.3059,1.3405,0.0,0.0,0.0,1.2577,0.0,1.1747,1.0316,0.0,0.0,0.0,0.0,0.0,0.0,0.0,0.0,0.0,0.0,0.0,0.0,0.0,0.0,0.0,0.0,0.0,0.0,0.0,0.0,0.0,0.0,0.0,0.0,0.0,0.0,0.0,0.0,0.0,0.0,0.0,0.0,0.0,0.0,0.0,0.0,0.0,0.0,0.0,0.0,2.3859,2.3442,2.2878,2.28,0.0,2.2463,2.242,2.2235,2.1894,2.1882,2.1577,2.0979,2.0748,2.0658,2.073,2.1077,2.1323,2.1454,2.2006,2.2273,2.2433,2.328,2.3676,2.3753,2.4065,2.3876,2.3512,2.4623,2.5437,2.6251,2.8148,2.9645,3.0879,0.0,0.0,0.0,0.0,0.0,0.0,0.0,0.0,0.0,0.0,0.0,0.0,0.0,0.0,0.0,0.7252,0.7041,0.7041,0.744,0.723,0.7195,0.7468,0.7694,0.7982,0.8312,0.884,0.0,0.0,0.0,0.0,0.0,0.0,1.2527,1.2811,1.3147,1.3602,1.4093,0.0,1.3817,1.3652,0.0,1.2337,1.1235,0.0,0.0,0.0,1.0574,1.0465,0.0,1.0076,0.0,0.0,0.0,0.0,0.0,0.0,0.0,0.0,0.0,0.0,0.0,0.0,0.0,0.0,0.0,0.0,0.0,0.0,0.0,0.0,0.0,0.0,0.0,0.0,0.0,0.0,0.0,0.0,0.0,0.0,0.0,0.0,0.0,2.4253,2.3636,2.3155,2.2987,2.2909,2.2909,2.2604,2.2266,2.1925,2.1463,2.0837,2.0123,2.01,2.0187,2.0367,2.0412,2.0923,2.1894,2.192,2.2261,2.2878,2.3253,2.3103,2.2722,2.4439,2.4135,2.279,2.46,2.4965,2.4664,2.6216,2.7915,2.9569,0.0,0.0,0.0,0.0,0.0,0.0,0.0,0.0,0.0,0.0,0.0,0.0,0.0,0.7125,0.7192,0.715,0.6766,0.6576,0.6707,0.6499,0.6554,0.6965,0.7737,0.8407,0.8952,0.9475,0.0,0.0,0.0,0.0,0.0,0.0,0.0,0.0,1.3105,1.3596,1.4076,1.3762,0.0,0.0,1.3779,1.3316,0.0,0.0,0.0,0.0,0.0,1.1997,1.1551,0.0,1.155,1.102,0.0,0.0,0.0,0.0,0.0,0.0,1.2248,0.0,0.0,0.0,0.0,0.0,0.0,0.0,0.0,0.0,0.0,0.0,0.0,0.0,0.0,0.0,0.0,0.0,0.0,0.0,0.0,0.0,0.0,0.0,0.0,2.4624,2.4089,0.0,2.333,2.321,2.3047,2.2878,2.2726,2.2635,2.152,2.0713,2.0326,1.9804,1.9621,1.9837,2.037,2.0954,2.1557,2.2149,2.218,2.1901,2.3198,2.3318,2.2658,2.3324,2.3155,2.2523,2.3029,2.2694,2.2291,2.5422,2.6972,2.7792,0.0,0.0,0.0,0.0,0.0,0.0,0.0,0.0,0.0,0.0,0.0,0.0,0.0,0.0,0.7731,0.7605,0.7128,0.6834,0.6849,0.6516,0.6473,0.6818,0.7629,0.839,0.9091,0.9714,0.0,0.0,0.0,0.0,0.0,0.0,0.0,0.0,0.0,0.0,0.0,0.0,0.0,0.0,1.4685,0.0,0.0,1.4308,1.4026,0.0,0.0,0.0,1.3787,1.38,1.3129,0.0,0.0,0.0,0.0,0.0,0.0,0.0,0.0,0.0,0.0,0.0,0.0,0.0,1.6758,1.8003,1.9128,0.0,0.0,0.0,0.0,0.0,0.0,0.0,0.0,0.0,0.0,0.0,0.0,0.0,0.0,0.0,0.0,2.5189,2.4595,2.3927,2.3691,2.3467,2.3228,2.321,2.312,2.2987,2.2081,2.1264,2.0557,1.9973,1.9657,1.961,1.9945,2.041,2.1028,2.1902,2.2078,2.1776,2.2947,2.328,2.2972,2.2901,2.2719,2.2457,2.234,2.2181,2.2362,2.4874,2.6497,2.775,0.0,0.0,0.0,0.0,0.0,0.0,0.0,0.0,0.0,0.0,0.0,0.0,0.0,0.0,0.0,0.8339,0.782,0.7498,0.754,0.7111,0.6934,0.7078,0.7726,0.8442,0.9226,0.9952,1.0611,0.0,0.0,0.0,0.0,0.0,0.0,0.0,0.0,0.0,0.0,0.0,0.0,1.4968,1.5595,1.5342,0.0,0.0,1.568,1.505,1.6464,1.6747,1.6304,1.5716,1.4604,0.0,0.0,0.0,0.0,0.0,1.1607,0.0,0.0,0.0,0.0,0.0,0.0,0.0,1.5284,1.6539,1.7598,1.8522,0.0,0.0,0.0,0.0,0.0,0.0,0.0,0.0,0.0,0.0,0.0,0.0,0.0,0.0,2.6283,2.5672,2.5065,2.4465,2.4076,2.3767,2.3509,2.3628,2.3556,2.3215,2.2901,2.2141,2.0929,2.0441,1.9979,1.9583,1.9408,1.9679,2.0362,2.1366,2.1892,2.1996,2.2673,2.3103,2.3293,2.2863,2.2654,2.2565,2.2241,2.2788,2.3797,2.4662,2.6442,2.8581,0.0,0.0,0.0,0.0,0.0,0.0,0.0,0.0,0.0,0.0,0.0,0.0,0.0,0.0,0.0,0.0,0.8351,0.8028,0.7768,0.8231,0.8447,0.8276,0.9722,1.0605,1.0764,1.1341,1.172,0.0,0.0,0.0,0.0,0.0,0.0,0.0,0.0,0.0,0.0,0.0,0.0,1.491,1.5078,0.0,1.4951,1.6208,1.6844,1.7161,1.7914,1.823,1.8071,1.6788,1.5337,1.403,0.0,0.0,0.0,0.0,0.0,0.0,0.0,0.0,0.0,0.0,0.0,0.0,1.2935,1.3765,1.4767,0.0,0.0,0.0,0.0,0.0,0.0,0.0,0.0,0.0,0.0,0.0,0.0,0.0,0.0,0.0,2.6122,2.5241,2.4778,2.5021,2.4595,2.4279,2.4118,2.4263,2.4205,2.3927,2.3165,2.2439,2.1708,2.0584,1.9858,1.9519,1.9474,1.9643,2.0041,2.095,2.1254,2.1212,2.266,2.2913,2.2317,2.2546,2.2565,2.2493,2.2334,2.2854,2.3877,2.5369,2.6874,2.8425,0.0,0.0,0.0,0.0,0.0,0.0,0.0,0.0,0.0,0.0,0.0,0.0,0.0,0.0,0.0,0.0,0.0,0.0,0.865,0.8952,0.9107,0.902,1.0128,1.0857,1.1105,1.155,1.1991,1.2395,0.0,0.0,0.0,0.0,0.0,0.0,0.0,0.0,0.0,0.0,1.476,1.4798,1.5296,0.0,1.6365,1.7009,1.7784,1.8542,1.8998,1.9264,1.9326,1.8827,1.722,0.0,0.0,1.4469,1.3307,0.0,1.1902,1.161,0.0,0.0,0.0,1.1008,0.0,0.0,0.0,1.3408,1.4325,1.5461,0.0,0.0,0.0,0.0,0.0,0.0,0.0,0.0,0.0,0.0,0.0,0.0,0.0,0.0,2.6202,2.567,2.5184,2.4778,2.4461,2.4376,2.4536,2.4622,2.4637,2.4652,2.4109,2.3299,2.2268,2.1368,2.0423,1.9345,1.9514,1.9436,1.9197,2.0623,2.1105,2.0831,2.2638,2.3001,2.2349,2.2417,2.2497,2.2578,2.2188,2.3348,2.5314,2.5802,2.7583,2.9769,0.0,0.0,0.0,0.0,0.0,0.0,0.0,0.0,0.0,0.0,0.0,0.0,0.0,0.0,0.0,0.0,0.0,0.0,0.0,0.9712,0.9737,0.9774,1.043,1.0974,1.1291,1.1718,1.2148,1.2585,0.0,0.0,0.0,0.0,0.0,0.0,0.0,0.0,0.0,0.0,0.0,1.4991,0.0,1.66,1.7526,1.7808,1.8486,1.9374,1.9911,2.0045,2.0028,2.0465,1.8898,1.6754,1.6529,1.5195,0.0,0.0,0.0,0.0,0.0,0.0,0.0,0.0,0.0,1.2448,0.0,0.0,0.0,0.0,0.0,0.0,0.0,0.0,0.0,0.0,0.0,0.0,0.0,0.0,0.0,0.0,0.0,0.0,2.5796,2.5776,2.5373,2.4296,2.4169,2.4304,2.4645,2.4824,2.502,2.5189,2.5034,2.4291,2.2897,2.2359,2.1235,1.9514,1.968,1.9377,1.8771,2.0459,2.109,2.0882,2.2698,2.3224,2.2819,2.2596,2.276,2.301,2.2213,2.3765,2.6455,2.6257,2.8198,3.089,0.7057,0.7471,0.0,0.0,0.0,0.0,0.0,0.0,0.0,0.0,0.0,0.0,0.0,0.0,0.0,0.0,0.0,0.0,1.0391,0.0,1.1267,1.1105,1.2112,1.2599,1.242,1.2917,1.2871,1.2167,0.0,0.0,0.0,0.0,0.0,0.0,1.4112,0.0,0.0,0.0,1.4877,0.0,1.5721,1.6029,0.0,1.8182,1.8931,1.9474,2.0773,2.0583,1.978,0.0,1.8811,1.6974,0.0,1.5356,1.3985,0.0,0.0,0.0,0.0,0.0,0.0,0.0,1.2016,0.0,0.0,0.0,1.3325,1.2947,0.0,0.0,0.0,0.0,0.0,0.0,0.0,0.0,0.0,0.0,0.0,0.0,0.0,0.0,2.3803,2.4187,2.4275,2.3961,2.42,2.43,2.4204,2.4915,2.5273,2.5188,2.5408,2.4992,2.394,2.3225,2.2106,2.0597,2.0182,1.9902,1.9834,2.0414,2.0991,2.1579,2.309,2.3576,2.3326,2.3286,2.3766,2.4413,2.2852,2.3502,2.5492,2.7016,2.8468,2.9881,0.7052,0.7249,0.0,0.0,0.0,0.0,0.0,0.0,0.0,0.0,0.0,0.0,0.0,0.0,0.0,0.0,0.0,1.0982,0.0,0.0,0.0,1.1888,1.2605,1.2922,1.2788,1.3373,1.3463,1.2974,1.2947,0.0,0.0,0.0,0.0,0.0,1.3941,0.0,1.4916,0.0,0.0,0.0,0.0,0.0,0.0,1.8596,1.933,2.0161,2.0987,2.124,2.1179,0.0,2.0593,0.0,0.0,0.0,0.0,0.0,0.0,0.0,0.0,0.0,0.0,0.0,0.0,0.0,1.3392,0.0,1.357,0.0,0.0,0.0,0.0,0.0,0.0,0.0,1.8473,0.0,0.0,0.0,0.0,0.0,0.0,0.0,2.3054,2.3048,2.3049,2.3039,2.2916,2.3257,2.4164,2.4749,2.5297,2.5824,2.6292,2.605,2.5095,2.4355,2.321,2.1659,2.0766,2.0308,2.0249,2.0788,2.1215,2.1682,2.3379,2.3863,2.3466,2.3405,2.3923,2.4592,2.3696,2.4452,2.6137,2.7104,2.8415,2.9873,0.7069,0.0,0.0,0.0,0.0,0.0,0.0,0.0,0.0,0.0,0.0,0.0,1.0122,1.0728,0.0,0.0,1.1291,1.1617,0.0,0.0,1.2089,0.0,0.0,0.0,1.3029,1.3522,1.3638,1.3349,1.3057,1.2986,0.0,0.0,0.0,0.0,0.0,1.4567,1.5182,0.0,0.0,1.7638,1.802,1.8768,1.9609,1.9339,1.9857,2.0743,2.119,2.1706,2.2185,2.2204,2.1716,0.0,2.0768,0.0,0.0,0.0,0.0,0.0,1.3139,0.0,0.0,0.0,0.0,0.0,0.0,0.0,0.0,0.0,0.0,0.0,0.0,0.0,0.0,0.0,0.0,0.0,0.0,0.0,0.0,0.0,0.0,0.0,0.0,2.1858,2.1752,2.1921,2.1806,2.2449,2.4116,2.451,2.5205,2.6361,2.6814,2.6638,2.5864,2.5313,2.423,2.2622,2.1643,2.1041,2.0801,2.1317,2.1729,2.2076,2.3712,2.4176,2.3769,2.3617,2.4199,2.5087,2.4464,2.5303,2.6853,2.702,2.8069,2.9538,0.7218,0.7765,0.0,0.0,0.0,0.0,0.0,0.0,0.0,0.0,0.0,0.0,0.0,0.0,0.0,0.0,0.0,1.2108,1.2176,0.0,1.249,0.0,0.0,1.3459,0.0,1.3462,1.3254,1.273,1.2912,1.2881,0.0,0.0,0.0,0.0,0.0,1.5002,1.5251,1.5984,1.7025,1.8162,1.7983,1.9181,2.0997,0.0,2.056,2.0955,2.1494,0.0,0.0,2.1819,2.1403,0.0,0.0,0.0,0.0,0.0,0.0,0.0,0.0,0.0,0.0,1.3651,0.0,0.0,0.0,0.0,1.702,0.0,0.0,0.0,0.0,0.0,0.0,0.0,0.0,0.0,0.0,0.0,0.0,0.0,0.0,0.0,0.0,2.05,2.0544,2.0745,2.1395,2.2443,2.3926,2.4195,2.5031,2.6637,2.6575,2.6338,2.6009,2.5979,2.5125,2.3435,2.2895,2.2312,2.1783,2.2101,2.2511,2.3036,2.4268,2.4666,2.4447,2.4114,2.4998,2.6398,2.5029,2.559,2.7155,2.6894,2.7413,2.8314,0.0,0.0,0.0,0.0,0.0,0.0,0.0,0.9699,0.0,0.0,0.0,0.0,0.0,1.1559,1.2123,0.0,0.0,1.2931,1.2997,1.3208,0.0,0.0,0.0,1.397,0.0,0.0,1.4325,1.4033,1.4168,1.4172,0.0,0.0,0.0,0.0,0.0,1.571,0.0,0.0,0.0,0.0,0.0,2.0621,2.1616,0.0,0.0,2.2101,2.2138,2.2439,0.0,2.2316,2.2348,2.2461,2.175,2.0327,1.8984,1.9075,1.7778,0.0,0.0,0.0,1.5704,1.5449,0.0,0.0,0.0,0.0,0.0,0.0,0.0,0.0,0.0,0.0,0.0,0.0,0.0,0.0,0.0,0.0,0.0,0.0,0.0,0.0,0.0,0.0,0.0,1.9496,2.0105,2.125,2.297,2.3842,2.5069,2.6779,2.7086,2.7176,2.707,2.6525,2.5727,2.4683,2.3703,2.3055,2.2716,2.267,2.2914,2.3419,2.3889,2.4072,2.4073,2.3494,2.4428,2.6119,2.5435,2.6044,2.7295,2.6933,2.7415,2.8284,0.8792,0.0,0.0,0.0,0.0,0.0,0.0,0.0,0.0,0.0,1.0642,0.0,1.0943,0.0,1.2558,0.0,1.2941,1.3527,1.3575,1.3891,0.0,1.417,1.4383,0.0,0.0,0.0,0.0,1.4715,1.4745,1.4667,0.0,0.0,0.0,0.0,0.0,0.0,1.6462,0.0,1.8937,0.0,0.0,2.1571,0.0,0.0,2.2261,2.2887,0.0,2.307,2.3168,2.2896,2.3,2.315,2.2775,2.1417,2.0005,2.0171,1.882,1.7284,1.7357,1.7144,0.0,1.6808,1.7397,0.0,1.8125,0.0,0.0,0.0,0.0,0.0,0.0,0.0,0.0,0.0,0.0,0.0,0.0,1.7226,0.0,0.0,0.0,0.0,0.0,0.0,1.8556,1.8711,1.9271,2.0416,0.0,2.3089,2.4414,2.6381,2.6747,2.7069,2.7433,2.7066,2.6519,2.5744,2.4707,2.3923,2.3373,2.3108,2.3108,2.3372,2.3608,2.3723,2.365,2.332,2.4263,2.5925,2.574,2.6755,2.8209,2.7187,2.6983,2.7252,0.0,0.0,0.0,0.0,0.9939,0.0,0.0,0.0,1.0341,0.0,1.1008,1.1122,1.2108,1.2692,1.2941,1.2686,1.3386,1.3887,1.4006,1.4289,0.0,0.0,1.5043,1.5086,1.5325,0.0,0.0,0.0,0.0,0.0,0.0,0.0,0.0,0.0,1.6145,0.0,1.6643,1.852,1.9551,1.9998,2.0894,2.205,2.3223,2.3317,2.3328,2.3391,2.3848,2.3775,2.3471,2.3582,2.3318,2.2896,2.2725,2.1429,1.9949,1.9845,1.8854,1.7771,1.7636,1.7616,1.7636,1.7726,1.8789,0.0,0.0,0.0,2.0835,0.0,0.0,0.0,0.0,0.0,0.0,0.0,0.0,0.0,0.0,0.0,0.0,0.0,0.0,0.0,0.0,1.8375,1.8113,1.8345,1.8937,0.0,0.0,2.2024,2.3151,2.5488,2.5582,2.6076,2.7063,2.754,2.7374,2.6551,2.5857,2.4891,2.3696,2.3474,2.3233,2.2986,2.3579,2.3635,2.3339,2.355,2.4493,2.5817,2.5948,2.7612,2.9711,2.7688,2.6237,2.5458,0.9979,1.0121,1.0097,0.0,1.0258,1.0305,0.0,0.0,0.0,0.0,1.127,1.1723,1.2225,1.3047,1.3635,1.3788,1.4167,0.0,0.0,0.0,0.0,1.5657,1.5824,1.5896,1.5815,1.5695,0.0,1.5898,0.0,0.0,1.6132,0.0,0.0,0.0,0.0,0.0,1.7179,1.8744,1.9716,2.04,2.1774,2.2746,0.0,0.0,2.5131,2.5129,2.4519,2.4218,2.4101,2.3846,2.3675,2.3543,2.3518,2.2433,2.121,2.1404,2.0364,1.9157,1.9254,1.92,1.9043,1.8676,1.9335,2.0019,0.0,0.0,0.0,0.0,0.0,0.0,0.0,0.0,0.0,0.0,0.0,0.0,0.0,0.0,0.0,0.0,0.0,0.0,0.0,1.8155,1.8024,1.775,1.8515,0.0,0.0,0.0,2.2971,2.4871,2.5272,2.5815,2.6564,2.7085,2.6959,2.6159,2.6054,2.5228,2.3791,2.4321,2.4149,2.3459,2.3935,2.3931,2.3489,2.3113,2.4151,2.5948,2.5886,2.7211,2.9155,2.8967,2.7518,2.5708,1.0414,0.0,0.0,1.0539,0.0,0.0,1.0212,0.0,0.0,1.1074,1.1626,0.0,1.2551,1.3349,1.3978,1.4355,1.4664,0.0,1.577,0.0,0.0,1.6262,1.6471,1.6576,1.6602,1.6594,0.0,1.6618,0.0,0.0,1.6694,0.0,0.0,0.0,0.0,1.7713,0.0,1.9241,2.0145,2.0735,2.2075,0.0,0.0,2.5224,2.5987,2.6289,2.5653,2.5133,2.4715,2.457,2.4253,2.3897,2.3607,2.2622,2.1585,2.1396,2.0516,1.9704,2.0107,2.0156,2.0131,2.0247,2.0884,2.1297,2.0644,2.1277,2.1691,0.0,0.0,0.0,0.0,0.0,0.0,0.0,0.0,0.0,0.0,0.0,0.0,0.0,0.0,0.0,0.0,0.0,1.8022,1.7774,1.8356,0.0,0.0,0.0,2.2221,2.3783,2.4542,2.5307,2.6075,2.6836,2.6841,2.613,2.6168,2.5551,2.4321,2.4353,2.41,2.3625,2.3792,2.3733,2.3501,2.3518,2.4537,2.6184,2.7233,2.8218,2.9084,2.9136,2.7874,2.6123,0.0,0.0,0.0,0.0,0.0,0.0,0.0,1.1073,0.0,1.1652,0.0,1.2596,1.3136,1.37,1.4202,1.4724,0.0,1.5461,1.5903,1.6377,1.6751,1.6978,1.7019,1.7173,1.7471,1.7364,0.0,0.0,0.0,0.0,0.0,0.0,0.0,0.0,0.0,0.0,0.0,1.9938,2.069,2.1076,2.2189,2.3218,2.4259,2.5432,2.6341,2.7015,2.6818,2.6191,2.5401,2.5422,2.4935,2.4194,2.356,2.2622,2.1585,2.0878,2.0204,1.9835,2.0473,2.0719,2.1017,2.1841,2.2572,2.2903,2.206,2.2431,2.2574,2.1339,2.0921,2.0605,0.0,0.0,0.0,0.0,0.0,0.0,0.0,0.0,0.0,0.0,0.0,0.0,0.0,0.0,0.0,0.0,0.0,0.0,0.0,0.0,2.1254,2.2613,2.3652,2.4692,2.5694,2.6664,2.6911,2.6472,2.642,2.5977,2.5157,2.4465,2.407,2.3973,2.3791,2.3688,2.3716,2.4282,2.5167,2.6357,2.8795,2.9461,2.8967,2.8553,2.761,2.6517,0.0,0.0,0.0,0.0,0.0,1.1639,1.2207,1.1838,1.1804,1.2628,1.2726,1.3131,1.419,1.4403,1.4791,1.5505,1.5655,0.0,0.0,0.0,0.0,1.7367,1.7668,1.7833,1.79,1.7921,1.7756,0.0,0.0,0.0,0.0,0.0,0.0,0.0,0.0,0.0,2.0064,2.0748,0.0,2.1449,2.2784,2.3685,2.446,2.6135,2.6976,2.7237,2.7155,2.6812,2.6356,2.5822,2.5569,2.5351,2.497,2.3728,2.2408,2.2195,2.1247,2.0335,2.0732,2.1333,2.1892,2.2183,2.2732,2.3106,2.2767,2.2645,2.259,2.2548,2.1605,2.0748,2.0627,0.0,0.0,0.0,0.0,0.0,0.0,0.0,0.0,0.0,0.0,0.0,0.0,0.0,0.0,0.0,0.0,0.0,0.0,0.0,2.0927,0.0,2.3252,0.0,0.0,0.0,2.6983,2.738,2.7433,2.6993,2.6164,2.6724,2.6593,2.5913,2.5869,2.5547,2.4995,2.4429,2.4744,2.5809,2.7702,2.8031,2.748,2.7458,2.7052,2.6422,0.0,0.0,0.0,0.0,0.0,0.0,0.0,1.3053,0.0,1.3165,1.3496,1.3917,1.4425,1.4928,1.5434,1.5894,1.6211,1.656,1.7038,1.7323,1.7564,1.7745,1.8178,0.0,1.8573,1.8759,1.8742,1.8437,0.0,0.0,0.0,0.0,0.0,0.0,0.0,2.0234,0.0,0.0,0.0,2.2069,2.3293,2.4001,2.4493,2.6416,2.7041,2.6987,2.7338,2.7158,2.6632,2.6004,2.5639,2.5285,2.4474,2.3581,2.2713,2.1892,2.1302,2.1019,2.1545,2.2144,2.2713,2.3225,2.3635,2.3845,2.35,2.338,2.3221,2.2882,2.2376,2.1802,2.1122,2.0177,0.0,0.0,0.0,0.0,0.0,0.0,0.0,0.0,0.0,0.0,0.0,0.0,0.0,0.0,0.0,0.0,1.9781,0.0,2.1415,0.0,0.0,0.0,2.5839,0.0,2.6942,2.7241,2.7547,2.7292,2.6572,2.6987,2.6956,2.6557,2.6645,2.648,2.6137,2.581,2.5962,2.654,2.7595,2.7749,2.7348,2.7195,2.7283,2.7392,0.0,1.169,0.0,0.0,1.3037,0.0,1.4179,1.4249,1.4119,1.3747,1.4263,1.4706,1.4712,1.5407,1.6008,1.6237,1.6726,1.7107,1.7339,1.7794,1.811,1.8178,1.8607,1.8942,1.9142,1.9473,1.9576,0.0,0.0,0.0,0.0,0.0,0.0,0.0,0.0,0.0,0.0,0.0,2.191,2.2506,2.3474,2.4067,2.4533,2.6194,2.6699,2.6615,2.7001,2.6904,2.6478,2.5941,2.5608,2.5281,2.4176,2.3581,2.3045,2.2027,2.1678,2.1753,2.2494,2.2919,2.3369,2.4147,2.4492,2.4528,2.4255,2.4177,2.3972,2.331,2.3098,2.2756,2.1744,2.103,0.0,0.0,0.0,0.0,0.0,0.0,0.0,0.0,0.0,0.0,0.0,0.0,0.0,0.0,0.0,1.9622,1.9878,2.1005,2.2055,0.0,0.0,2.5035,2.6125,0.0,2.7265,2.7422,2.7823,2.7724,2.7214,2.7237,2.7259,2.7243,2.7255,2.7184,2.7084,2.7185,2.729,2.7369,2.7537,2.7471,2.7254,2.688,2.7183,2.7803,0.0,0.0,0.0,0.0,0.0,0.0,1.484,1.5168,1.522,1.4803,1.4891,1.5144,1.5606,1.6017,1.6421,1.6795,1.7141,1.752,1.7906,1.8134,1.8405,1.8707,1.8942,1.9142,1.9285,1.9671,1.9706,0.0,0.0,1.8858,0.0,0.0,0.0,0.0,0.0,0.0,0.0,2.2061,2.2159,2.2287,2.2867,2.3684,2.4646,2.5102,2.5755,2.6317,2.5682,2.5562,2.5665,2.5375,2.5711,2.6199,2.5786,2.4753,2.3846,2.4357,2.3467,2.2512,2.3416,2.3501,2.3569,2.4376,2.4591,2.4692,2.5021,2.4751,2.4514,2.4653,2.3753,2.2877,2.2759,2.1525,2.0906,0.0,0.0,0.0,0.0,0.0,0.0,0.0,0.0,0.0,0.0,2.0991,0.0,0.0,1.9662,1.9719,2.0231,2.1331,2.2303,2.3072,2.4879,2.6177,2.6893,2.7751,2.8478,2.9053,2.8995,2.8926,2.8886,2.9,2.9069,2.9021,2.8572,2.8073,2.7632,2.7627,2.7618,2.7508,2.6872,2.651,2.6281,2.575,2.5816,2.6186,0.0,0.0,0.0,0.0,0.0,0.0,0.0,1.5685,1.5885,1.5912,1.5852,1.5861,1.6088,1.6551,1.689,1.7072,1.7486,1.7862,1.8168,1.8573,1.8865,1.9088,1.9485,1.9791,1.9944,2.0237,2.0396,0.0,0.0,0.0,0.0,0.0,0.0,0.0,0.0,2.2584,2.265,2.2535,2.2689,2.3006,2.3296,2.3956,2.4782,2.5211,2.5684,2.5996,2.5721,2.5466,2.5273,2.5536,2.5841,2.6036,2.5702,2.5134,2.4599,2.4627,2.4255,2.3878,2.4355,2.4511,2.4723,2.5244,2.5244,2.5147,2.5439,2.5547,2.5455,2.4943,2.4179,2.3503,2.3203,2.2718,2.2382,2.2471,0.0,0.0,0.0,0.0,0.0,0.0,0.0,0.0,0.0,0.0,0.0,0.0,0.0,2.0536,2.0609,2.187,2.2845,2.3389,0.0,2.6413,2.7111,2.7955,2.8694,2.9305,2.9321,2.9344,2.9344,2.9405,2.9486,2.9595,2.9365,2.9043,2.8629,2.8046,2.7582,2.7176,2.6623,2.6514,2.6727,2.6941,2.6977,2.7064,1.4782,0.0,1.4974,0.0,1.5515,1.5644,1.5991,1.6167,1.6333,1.6647,1.6656,1.6621,1.6586,1.7028,1.7373,1.7442,1.7872,1.8245,1.8539,1.8975,1.932,1.954,1.9944,0.0,2.0475,2.0722,2.0946,2.119,2.0808,0.0,0.0,0.0,0.0,0.0,2.222,2.2856,2.3081,2.2868,2.2991,2.3349,2.3654,2.4098,2.4608,2.5095,2.5376,2.5515,2.5405,2.5214,2.509,2.5578,2.5825,2.5921,2.5769,2.5522,2.5315,2.5217,2.5036,2.4952,2.5176,2.5287,2.5425,2.5811,2.5674,2.5591,2.5907,2.6217,2.6248,2.5635,2.5108,2.4602,2.405,2.3958,2.376,2.3111,0.0,0.0,0.0,0.0,0.0,0.0,2.3611,2.3433,2.3238,2.3029,0.0,0.0,0.0,0.0,2.0873,2.2247,2.3091,0.0,0.0,0.0,2.6627,2.7828,2.8648,2.9099,2.9406,2.9586,2.9592,2.9659,2.982,3.0006,3.0049,2.9957,2.9694,2.8596,2.7961,2.7613,2.6646,2.6574,2.7125,2.7758,2.7698,2.7534,1.5974,1.5911,1.5906,1.6236,1.6307,1.6368,1.6568,1.6603,1.6682,1.6874,1.722,1.7426,1.7201,1.751,1.7784,1.7974,1.8313,1.864,1.9065,1.9407,1.9726,0.0,0.0,2.0475,2.0701,2.101,2.119,2.119,0.0,0.0,2.0523,0.0,2.1116,2.1903,2.2474,2.2769,2.2891,2.2909,2.2909,2.2958,2.371,2.401,2.4035,2.4382,2.4675,2.4827,2.4321,2.4505,2.5033,2.53,2.5701,2.6138,2.6404,2.619,2.6002,2.6594,2.6123,2.5495,2.5961,2.5633,2.53,2.5784,2.5811,2.5852,2.6551,2.6709,2.6788,2.7115,2.6747,2.6186,2.5583,2.5097,2.4708,2.4507,0.0,0.0,0.0,0.0,0.0,2.4231,2.473,2.4863,2.4065,0.0,0.0,0.0,0.0,0.0,0.0,0.0,0.0,2.2244,2.5056,0.0,2.5326,2.7427,2.8533,2.8624,2.9343,2.9732,2.981,3.0065,3.0295,3.0506,3.063,3.0753,3.0774,2.93,2.8965,2.9148,2.7015,2.6579,2.7151,2.7559,2.7282,2.686,1.6341,1.627,1.6226,1.6446,1.6508,1.6542,1.6603,1.6811,1.7063,1.7289,1.7486,1.7647,1.7725,1.7964,1.8066,0.0,1.8573,1.8975,0.0,1.9627,2.0053,2.0291,2.0582,2.0839,2.1042,2.1242,2.1411,2.1529,0.0,0.0,0.0,2.1982,2.2207,2.2462,2.2804,2.2987,2.3047,2.318,2.33,2.3403,2.3628,2.4085,2.4563,2.4232,2.4562,2.517,2.4617,2.4793,2.5356,2.5851,2.631,2.6794,2.7551,2.7219,2.6553,2.6727,2.6486,2.6256,2.6709,2.6472,2.6217,2.6777,2.6686,2.6553,2.6959,2.7137,2.7454,2.8198,2.815,2.7798,2.7257,2.6571,2.5944,2.5507,2.417,0.0,0.0,0.0,0.0,2.4081,2.4878,2.5159,2.4541,2.498,0.0,0.0,0.0,0.0,0.0,0.0,0.0,0.0,2.533,0.0,2.51,2.7264,2.8163,2.7806,2.9232,3.0017,3.0194,3.0342,3.051,3.072,3.076,3.0898,3.1044,3.0049,2.9421,2.894,2.7656,2.7712,2.8551,2.8606,2.8629,2.875,1.6682,1.6682,1.6691,1.6811,1.6821,1.6855,1.6925,1.7141,1.7358,1.747,1.7691,1.7862,1.7974,1.8303,0.0,1.8212,1.8741,1.9208,1.9407,1.9922,2.0356,2.069,2.0903,2.1094,2.1285,2.1443,0.0,2.1698,2.1968,2.2204,2.2389,2.2512,2.2647,2.2769,2.2939,2.3108,2.3288,2.3492,2.3641,2.3743,2.4068,2.4326,2.4519,2.4491,2.4725,2.5055,2.4826,2.5104,2.5674,2.6203,2.6734,2.7328,2.8007,2.7849,2.7393,2.7333,2.7193,2.7053,2.724,2.7063,2.6945,2.7437,2.7117,2.6798,2.7191,2.754,2.8012,2.8764,2.8935,2.8846,2.8375,2.7794,2.7224,2.6737,2.491,2.3902,2.4876,0.0,0.0,0.0,0.0,0.0,0.0,2.5953,2.5975,0.0,0.0,0.0,0.0,0.0,0.0,2.3686,2.4945,2.5307,2.4664,2.6471,2.7254,2.7006,2.8884,2.9926,3.0214,3.0538,3.0797,3.0985,3.1064,3.1198,3.1298,3.0646,2.9912,2.9071,2.8576,2.8596,2.9008,2.9627,2.9799,2.9811,1.6943,1.7107,1.7235,0.0,1.7235,0.0,1.747,1.7505,1.7539,1.7539,1.7837,1.8042,1.8042,1.8502,1.8792,1.86,0.0,0.0,0.0,2.026,2.0659,2.1158,2.119,2.1285,2.1388,2.1592,2.1698,2.1698,2.2185,2.2389,2.2389,2.242,2.2604,2.2909,2.2909,2.318,2.3628,2.3819,2.3946,2.4083,2.485,2.4698,2.4112,2.5011,2.5058,2.4677,2.4948,2.5439,2.6029,2.65,2.7186,2.7856,2.8094,2.8314,2.8481,2.8211,2.8032,2.7805,2.7487,2.7401,2.7463,2.7765,2.7174,2.6711,2.7202,2.7819,2.8394,2.8779,2.9164,2.9392,2.9156,2.8827,2.8457,2.8043,2.6522,2.538,2.5363,2.5329,2.5311,0.0,0.0,0.0,2.6939,2.6808,2.6775,0.0,0.0,0.0,0.0,0.0,2.3273,2.4033,2.4209,2.4215,2.4087,2.5237,2.6034,2.6463,2.8414,2.9546,2.9921,3.0681,3.1137,3.1334,3.1542,3.1617,3.1603,3.1167,3.0456,2.9627,2.9762,2.936,2.8889,3.0518,3.0738,3.0219,0.0,0.0,1.7426,1.7426,1.7426,1.747,1.7505,1.771,1.7872,1.7872,1.8178,1.8381,1.8381,1.8954,1.9363,1.95,1.9808,2.0103,2.0328,2.0853,2.1094,2.099,2.121,2.1305,2.1253,2.1529,2.1761,2.1843,2.2123,2.2309,2.2389,2.2555,2.2739,2.2909,2.3163,2.3492,2.3832,2.3995,2.4433,2.5024,2.4837,2.4949,2.5247,2.4911,2.4899,2.509,2.537,2.5973,2.6843,2.8006,2.8681,2.921,3.0357,3.0283,2.95,2.8083,2.7626,2.7578,2.7451,2.7346,2.7458,2.7974,2.769,2.7118,2.6535,2.7401,2.8322,2.8373,2.9247,3.0081,3.0257,2.9862,2.9319,2.8751,2.7315,2.5932,2.4929,2.4652,2.4403,0.0,2.5116,2.6008,2.6289,2.6726,2.731,0.0,0.0,0.0,2.8507,2.6335,2.4927,2.4609,2.4995,2.4772,2.3878,2.5358,2.6671,2.7761,2.856,2.9276,2.9941,3.0991,3.1485,3.1542,3.169,3.1838,3.1984,3.1969,3.153,3.0862,3.0845,3.0806,3.0831,3.115,3.125,3.1342,1.7542,1.7608,1.7735,1.7735,1.7803,1.7974,1.8237,1.8237,1.8315,1.8522,1.8602,1.8731,1.8933,1.9442,1.9958,2.0479,2.059,2.0741,2.1006,2.1262,2.1384,2.1363,2.14,2.1368,2.1273,2.1846,2.223,2.2388,2.2515,2.264,2.2754,2.2879,2.3034,2.3294,2.3883,2.4067,2.3959,2.4751,2.521,2.5399,2.5566,2.5609,2.5537,2.5273,2.5207,2.5258,2.5687,2.6361,2.7299,2.8637,2.9399,3.0027,3.1306,3.1241,3.0404,2.8851,2.828,2.8023,2.7665,2.7365,2.7199,2.7386,2.7759,2.7891,2.717,2.7913,2.8822,2.8988,2.9702,3.0396,3.0651,3.0308,2.9745,2.9059,2.7811,2.6514,2.5355,2.5078,2.4847,2.4501,2.5501,2.6327,2.6547,2.7251,2.7953,2.8595,2.8463,0.0,2.9438,2.8168,2.7182,2.6605,2.5524,2.5011,2.5182,2.5735,2.6444,2.7236,2.8422,2.918,2.9565,3.097,3.156,3.1485,3.1728,3.1911,3.2037,3.2352,3.2062,3.1473,3.1875,3.19,3.176,3.1987,3.2192,3.235,1.7969,1.81,1.8306,1.8306,1.8433,1.869,1.9219,1.8992,1.8891,1.9309,1.9188,1.9223,1.9647,2.0097,2.0663,2.1408,2.1377,2.1424,2.1701,2.1663,2.1733,2.2009,2.18,2.1649,2.1579,2.2312,2.2842,2.3132,2.3047,2.3095,2.3274,2.3201,2.3354,2.3692,2.4621,2.4633,2.4073,2.5572,2.5954,2.5615,2.6425,2.6341,2.5741,2.6004,2.583,2.5521,2.6128,2.6791,2.7554,2.8879,2.976,3.0449,3.1415,3.1512,3.1077,2.9901,2.923,2.8721,2.7949,2.7497,2.7138,2.6698,2.7679,2.8599,2.8117,2.8653,2.9349,2.9767,3.0145,3.0459,3.0651,3.0513,3.0104,2.9339,2.8408,2.7388,2.6266,0.0,2.599,2.5705,2.6314,2.6854,2.7085,2.7785,2.8414,2.8928,2.9432,2.985,3.0189,2.9799,2.9414,2.9091,2.6395,2.5559,2.6836,2.6229,2.6015,2.6244,2.8268,2.9228,2.9225,3.0893,3.1579,3.1411,3.1748,3.1912,3.1984,3.2487,3.2328,3.1878,3.2729,3.2709,3.228,3.287,3.3183,3.3141,1.9559,1.9574,1.961,1.961,1.9646,1.9666,1.9772,1.9885,1.9946,2.0027,2.0276,2.0446,2.0519,2.11,2.1577,2.1897,2.2403,2.2546,2.219,2.2437,2.259,2.2581,2.2814,2.2735,2.2356,2.2577,2.3021,2.3685,2.3345,2.3306,2.3622,2.3275,2.3246,2.3495,2.4364,2.458,2.4326,2.5406,2.5977,2.6174,2.6438,2.675,2.709,2.7094,2.6854,2.6638,2.7315,2.7565,2.7886,2.935,3.0067,3.0409,3.1094,3.1311,3.1113,3.019,2.9604,2.8968,2.7769,2.7889,2.8147,2.7237,2.7723,2.8311,2.7795,2.8286,2.893,2.9121,2.9821,3.0459,3.0651,3.0891,3.0862,3.0282,3.0086,2.9317,2.7371,0.0,2.7165,2.6079,2.5807,2.6113,2.7098,2.7254,2.7985,2.9611,3.0314,3.0942,3.1567,3.08,3.0496,3.0881,2.891,2.7611,2.7139,2.6698,2.6556,2.6708,2.8562,2.9455,2.9489,3.1236,3.1948,3.1803,3.1876,3.2002,3.2179,3.2489,3.2682,3.2818,3.3132,3.3217,3.3201,3.3368,3.3452,3.3444,2.0232,2.0324,2.0395,2.0395,2.0456,2.0575,2.0824,2.073,2.0739,2.0953,2.0898,2.0977,2.1195,2.1707,2.2161,2.2494,2.3018,2.3246,2.3025,2.2986,2.3011,2.3075,2.2884,2.2947,2.3302,2.3302,2.3697,2.4496,2.4112,2.4023,2.4298,2.3872,2.3773,2.3994,2.4882,2.497,2.4529,2.6213,2.7006,2.7184,2.7953,2.8249,2.8183,2.7811,2.7455,2.7184,2.7285,2.7342,2.7646,2.9411,2.9943,3.013,3.1597,3.1848,3.1466,3.0748,2.9846,2.8816,2.7555,2.7977,2.8568,2.7829,2.8259,2.8872,2.8791,2.9076,2.9405,2.9592,3.0044,3.0438,3.0506,3.0895,3.0973,3.0287,3.0067,0.0,2.8391,2.7998,2.774,2.7435,2.7332,2.7502,2.8101,2.8596,2.9145,2.9839,3.0489,3.089,3.0973,3.0438,3.0404,3.1073,2.9946,2.89,2.7909,2.7603,2.752,2.767,2.9121,2.9776,2.9728,3.1394,3.1984,3.1747,3.1802,3.1912,3.2055,3.2318,3.2639,3.2963,3.3165,3.3331,3.3521,3.4051,3.3984,3.3615,2.098,2.1051,2.1159,2.1159,2.1256,2.1434,2.1807,2.1551,2.1445,2.1807,2.1577,2.1564,2.1964,2.2335,2.2696,2.3117,2.3519,2.3751,2.3751,2.3582,2.3532,2.3651,2.3206,2.3403,2.4344,2.408,2.4359,2.5213,2.4685,2.4543,2.4773,2.4353,2.4315,2.4579,2.5357,2.5427,2.513,2.6982,2.7762,2.7821,2.9264,2.9511,2.8985,2.864,2.8266,2.7921,2.7474,2.7285,2.7505,2.9097,2.9525,2.9697,3.1398,3.1761,3.1451,3.0966,3.0086,2.8953,2.7602,2.8093,2.8863,2.8275,2.878,2.9493,2.981,2.9919,3.0006,3.0231,3.038,3.048,3.0522,3.0871,3.0985,3.0434,0.0,2.9521,0.0,2.8468,2.8105,2.838,2.8468,2.8578,2.8743,2.943,2.9781,2.9598,3.0178,3.0437,3.0201,2.9908,3.0074,3.0768,3.0293,2.9628,2.8817,2.8288,2.8161,2.8466,2.9508,3.0062,3.0157,3.1585,3.2073,3.1801,3.1856,3.1929,3.2002,3.2232,3.2539,3.2882,3.3114,3.3342,3.3636,3.4421,3.4307,3.3802,2.2269,2.2259,2.2259,2.2259,2.2296,2.2317,2.2349,2.2317,2.2317,2.2349,2.2467,2.2654,2.2872,2.3095,2.3338,2.3519,2.3934,2.4164,2.4164,2.4491,2.4587,2.4432,2.455,2.4869,2.5484,2.4792,2.4809,2.5582,2.4665,2.4396,2.4692,2.4303,2.4406,2.4975,2.5302,2.5822,2.6499,2.7131,2.7449,2.7588,2.9296,2.9768,2.9501,2.99,2.9765,2.9289,2.8779,2.8222,2.783,2.833,2.8794,2.9152,2.9333,2.9894,3.0473,3.0371,3.0315,2.991,2.8122,2.8439,2.9107,2.8452,2.903,2.9832,3.0103,3.0274,3.038,3.0464,3.0589,3.0712,3.0851,3.0952,3.1114,3.1336,0.0,0.0,2.9347,2.8906,2.8453,2.7924,2.7697,2.7732,2.8031,2.8203,2.8373,2.8584,2.9329,2.9879,3.0087,2.9792,2.9886,3.0502,3.0058,2.9779,2.971,2.8266,2.79,2.8611,2.9425,3.0242,3.1043,3.1968,3.2371,3.2336,3.2232,3.2161,3.2179,3.2319,3.2523,3.275,3.3065,3.3397,3.373,3.3968,3.4066,3.4086,2.3113,2.315,2.315,2.315,2.315,2.315,2.315,2.315,2.315,2.315,2.3224,2.3298,2.3372,2.3556,2.3751,2.397,2.4236,2.4478,2.4671,2.4873,2.4803,2.4378,2.4535,2.4675,2.4802,2.4596,2.4746,2.5232,2.5078,2.5143,2.5374,2.5354,2.5304,2.5276,2.5888,2.6223,2.6424,2.7685,2.8498,2.9051,3.047,3.1087,3.1099,3.0366,3.008,2.9863,2.8323,2.754,2.7315,2.7798,2.797,2.8179,2.9265,2.9951,3.037,3.0557,3.0335,2.9868,2.9147,2.9217,2.9406,2.9122,2.9317,2.9687,2.9995,3.0167,3.0316,3.0485,3.0609,3.0733,3.0871,3.1032,3.1019,3.0696,0.0,2.939,2.8938,2.8461,2.8153,2.8228,2.8757,2.9171,2.9282,2.9892,3.0158,2.9937,3.0197,3.0247,2.999,3.0378,3.0763,3.1112,3.0949,3.0919,3.1045,3.0176,2.9892,3.022,3.0565,3.0963,3.138,3.2104,3.2456,3.2456,3.2284,3.2249,3.2319,3.2284,3.2456,3.2787,3.2945,3.3238,3.3674,3.4412,3.4461,3.4271,2.3629,2.3677,2.3677,2.3677,2.3677,2.3677,2.3677,2.3677,2.3677,2.3677,2.3751,2.3824,2.3861,2.4007,2.4164,2.4381,2.4562,2.4802,2.5087,2.5253,2.5132,2.4633,2.4817,2.4922,2.4904,2.5015,2.5254,2.5544,2.5669,2.5829,2.5967,2.6153,2.6201,2.6092,2.6533,2.6791,2.6895,2.8206,2.9082,2.9726,3.1209,3.1949,3.1995,3.0821,3.066,3.0804,2.8748,2.7986,2.7953,2.8122,2.8091,2.82,2.932,2.9989,3.0373,3.0561,3.0287,2.9913,2.9814,2.9716,2.9633,2.9525,2.9608,2.977,2.9951,3.0146,3.0359,3.0551,3.0716,3.0828,3.0766,3.0855,3.0732,2.9912,2.9239,2.8728,2.8424,2.8224,2.8276,2.8671,2.9802,3.0478,3.0333,3.0945,3.111,3.0526,3.0508,3.0367,3.0005,3.0592,3.1111,3.1441,3.1457,3.1614,3.1911,3.115,3.0901,3.1163,3.1244,3.1449,3.1798,3.2294,3.2557,3.2591,3.2439,3.2422,3.2456,3.2422,3.254,3.2787,3.29,3.3147,3.3607,3.4426,3.4504,3.432,2.3861,2.3897,2.3897,2.3897,2.3897,2.3897,2.3897,2.3897,2.3897,2.3897,2.408,2.4273,2.449,2.449,2.4562,2.4801,2.4992,2.5147,2.5312,2.5688,2.5723,2.5312,2.5688,2.6002,2.6186,2.6348,2.6479,2.6693,2.6431,2.6307,2.6307,2.6518,2.6933,2.7503,2.7216,2.7528,2.8232,2.8721,2.8917,2.9093,3.1237,3.2018,3.185,3.1377,3.1759,3.2253,3.045,2.9973,3.0103,2.9419,2.9341,2.9483,2.9255,2.9755,3.0375,3.0231,3.0189,3.0167,3.0055,2.9913,2.9744,2.9547,2.9858,3.0146,3.0038,3.0274,3.0572,3.0764,3.1018,3.1029,3.0505,3.0463,3.0189,2.9241,2.8474,2.7981,2.7911,2.8431,2.8889,2.9175,3.0562,3.1325,3.0855,3.082,3.0543,2.9878,2.9892,2.9988,3.0211,3.0348,3.0685,3.1289,3.1372,3.1662,3.2197,3.076,3.0392,3.1113,3.1179,3.1616,3.2423,3.254,3.2673,3.2807,3.2807,3.274,3.2622,3.2774,3.2789,3.2718,3.2928,3.3208,3.3534,3.3807,3.4023,3.4257,2.4538,2.4538,2.4538,2.4538,2.4538,2.455,2.4671,2.4659,2.4731,2.485,2.4921,2.4921,2.485,2.485,2.4921,2.5147,2.5218,2.5394,2.5688,2.598,2.598,2.5723,2.5828,2.5795,2.5571,2.5878,2.6045,2.6078,2.6661,2.7001,2.7167,2.7741,2.7922,2.7816,2.8138,2.8343,2.8444,2.9108,2.9767,3.0485,3.1531,3.2114,3.2314,3.1716,3.1696,3.1841,3.0536,3.0192,3.0253,2.9676,2.9478,2.9526,2.9585,3.0075,3.0547,3.0274,3.0189,3.0146,2.9919,2.9913,2.9892,2.976,2.9776,2.9908,3.0156,3.0347,3.0613,3.1061,3.1193,3.1051,3.062,3.0556,3.0244,2.9257,2.8596,2.8323,2.8622,2.8543,2.8682,2.9334,3.0315,3.0975,3.1077,3.1446,3.1708,3.1703,3.1446,3.1394,3.1583,3.1634,3.1807,3.2119,3.2202,3.2308,3.2489,3.1998,3.1791,3.1865,3.2036,3.226,3.254,3.2589,3.2721,3.2985,3.3491,3.3721,3.3773,3.4311,3.4237,3.3768,3.3817,3.3713,3.3534,3.3807,3.4061,3.4328,2.4981,2.5064,2.5099,2.5016,2.5064,2.5123,2.5241,2.5229,2.5264,2.5382,2.5488,2.5523,2.5476,2.5418,2.5453,2.5629,2.5676,2.5758,2.598,2.6201,2.6236,2.6015,2.6154,2.6083,2.5849,2.6319,2.6602,2.6701,2.7474,2.7885,2.7944,2.852,2.8515,2.8033,2.8498,2.8566,2.8352,2.9092,2.9741,3.0353,3.1117,3.1774,3.2244,3.1743,3.1986,3.2483,3.1534,3.1217,3.1168,3.0562,3.0125,2.9872,3.0033,3.0389,3.0675,3.038,3.0274,3.0231,3.0022,3.0044,3.0108,3.0049,3.0017,3.0033,3.022,3.0658,3.1083,3.1266,3.157,3.1583,3.0817,3.056,3.0145,2.9205,2.8699,2.8577,2.9018,2.9178,2.9471,3.0108,3.0768,3.1359,3.1833,3.2021,3.2214,3.249,3.2197,3.2073,3.2301,3.2318,3.2387,3.254,3.2655,3.2705,3.269,3.2673,3.2557,3.2353,3.2557,3.2673,3.269,3.3042,3.3299,3.353,3.43,3.4707,3.4824,3.5279,3.5026,3.4321,3.4255,3.3929,3.3495,3.3739,3.3985,3.4281,2.5312,2.55,2.5571,2.5382,2.55,2.5641,2.5676,2.5676,2.5676,2.5711,2.5863,2.6072,2.6233,2.6072,2.6037,2.6233,2.6258,2.6236,2.6236,2.6396,2.643,2.6236,2.6555,2.676,2.676,2.7255,2.7703,2.8112,2.8554,2.8748,2.8619,2.8972,2.884,2.8315,2.8549,2.8452,2.8165,2.885,2.921,2.9373,3.0311,3.1129,3.1774,3.1536,3.2387,3.3595,3.2967,3.2661,3.2485,3.1767,3.1043,3.0468,3.0514,3.0679,3.0821,3.0506,3.0459,3.0422,3.0295,3.0305,3.0389,3.0546,3.0513,3.0455,3.0377,3.1156,3.1796,3.1531,3.2137,3.2326,3.1063,3.0518,3.0013,2.9275,2.8887,2.8863,2.9367,3.0177,3.0872,3.1283,3.1655,3.2179,3.285,3.2455,3.2266,3.2456,3.2232,3.2197,3.2439,3.2456,3.2489,3.2573,3.277,3.2852,3.2807,3.287,3.2786,3.2606,3.2804,3.2852,3.2841,3.3617,3.4072,3.4259,3.5076,3.5553,3.5796,3.5814,3.5343,3.4604,3.4492,3.4032,3.3452,3.3657,3.3895,3.4185,2.5758,2.5793,2.5828,2.5793,2.5793,2.5921,2.6186,2.622,2.6324,2.6671,2.6739,2.6705,2.6611,2.6555,2.6543,2.6577,2.6589,2.6555,2.643,2.6555,2.6658,2.6589,2.6807,2.7011,2.7167,2.7403,2.7703,2.8112,2.8573,2.8785,2.878,2.9162,2.9251,2.9126,2.9032,2.9042,2.9117,2.938,2.9638,2.9947,3.0362,3.0694,3.1021,3.1512,3.1815,3.2048,3.2804,3.2841,3.2456,3.1982,3.1387,3.0861,3.0895,3.1095,3.1252,3.0773,3.0814,3.0975,3.074,3.076,3.1029,3.1702,3.1375,3.1042,3.1629,3.2066,3.2417,3.2676,3.28,3.2513,3.134,3.087,3.0612,3.0437,2.9782,2.9765,3.1039,3.101,3.1202,3.2105,3.2039,3.2197,3.2993,3.2898,3.269,3.237,3.2091,3.1984,3.2037,3.2074,3.2214,3.244,3.259,3.2706,3.2807,3.287,3.2786,3.2606,3.2739,3.2838,3.2868,3.3078,3.3635,3.4454,3.4632,3.5423,3.6576,3.6658,3.622,3.5444,3.5571,3.4805,3.3657,3.3921,3.4124,3.4321,2.633,2.6349,2.6396,2.6314,2.6349,2.6487,2.6658,2.6679,2.676,2.6977,2.699,2.7011,2.6998,2.6897,2.6829,2.6829,2.6829,2.6794,2.6739,2.6794,2.6829,2.6829,2.71,2.7302,2.7403,2.7789,2.8033,2.8112,2.867,2.8894,2.8812,2.9194,2.923,2.8937,2.8813,2.8906,2.9139,2.9139,2.9353,2.9718,2.9764,2.9973,3.0337,3.0768,3.1117,3.1487,3.2266,3.2312,3.201,3.1666,3.1432,3.1249,3.1232,3.131,3.1349,3.1078,3.1095,3.1171,3.1018,3.1114,3.1314,3.1684,3.154,3.1458,3.2124,3.2764,3.3073,3.2656,3.3184,3.3293,3.1934,3.1407,3.1217,3.1306,3.0768,3.0749,3.1881,3.1777,3.1863,3.2555,3.237,3.2335,3.2687,3.28,3.2688,3.2232,3.1984,3.1875,3.1894,3.1931,3.2091,3.2388,3.2523,3.2655,3.2807,3.2838,3.282,3.2786,3.29,3.2963,3.3011,3.3387,3.3928,3.4566,3.4945,3.5607,3.6447,3.6848,3.632,3.5312,3.5775,3.5027,3.3726,3.3934,3.4209,3.4531,2.7058,2.7007,2.7045,2.6829,2.6964,2.7079,2.7079,2.7113,2.7146,2.718,2.7193,2.7248,2.7416,2.7315,2.7214,2.718,2.718,2.7146,2.7045,2.7113,2.7113,2.7079,2.7436,2.7656,2.7656,2.8281,2.849,2.8177,2.8812,2.9067,2.8908,2.9257,2.9136,2.8588,2.8555,2.8708,2.9043,2.8832,2.8987,2.9289,2.9139,2.9295,2.9659,2.9899,3.0488,3.1229,3.1622,3.1648,3.1482,3.1288,3.1346,3.15,3.1502,3.1466,3.1391,3.1315,3.1274,3.1269,3.1249,3.1366,3.1515,3.148,3.1568,3.1806,3.2391,3.3279,3.3701,3.2646,3.3577,3.4106,3.2511,3.1927,3.1764,3.1969,3.1706,3.1665,3.2247,3.2388,3.2508,3.2774,3.2674,3.2523,3.2369,3.2554,3.2537,3.2161,3.1911,3.1819,3.1893,3.1894,3.2055,3.2405,3.254,3.2655,3.2807,3.2821,3.2902,3.3011,3.3104,3.315,3.3183,3.3849,3.4321,3.4655,3.5183,3.5608,3.5985,3.6409,3.595,3.5031,3.5536,3.4976,3.3909,3.3937,3.4257,3.4708,2.7915,2.7639,2.7403,2.7235,2.7335,2.7436,2.7436,2.759,2.7756,2.7914,2.7947,2.7947,2.798,2.8085,2.8039,2.7875,2.7842,2.7689,2.7302,2.7523,2.7623,2.7436,2.7908,2.8189,2.8189,2.8578,2.8688,2.8522,2.9099,2.9352,2.932,2.9477,2.9529,2.9414,2.9132,2.9244,2.965,2.9524,2.9383,2.9304,2.9279,2.9164,2.9093,2.9753,3.0116,3.0385,3.1294,3.1393,3.1106,3.1237,3.1389,3.1502,3.15,3.1653,3.1748,3.1411,3.1428,3.154,3.1479,3.1519,3.1752,3.2498,3.2267,3.2084,3.2902,3.3737,3.4298,3.4187,3.4347,3.4069,3.2634,3.2231,3.2179,3.2387,3.2282,3.223,3.2438,3.249,3.2558,3.2791,3.2886,3.2836,3.2571,3.2636,3.2554,3.2214,3.1947,3.18,3.1801,3.1875,3.2091,3.2456,3.2556,3.2655,3.2807,3.2918,3.3011,3.3086,3.3214,3.3307,3.3364,3.3457,3.3981,3.4746,3.4091,3.454,3.5709,3.515,3.525,3.5705,3.5224,3.4895,3.4687,3.4308,3.4351,3.4655,2.8702,2.8462,2.8218,2.7835,2.7815,2.7848,2.7848,2.7901,2.7901,2.7669,2.7636,2.7636,2.7636,2.7967,2.8229,2.8314,2.8151,2.8066,2.8033,2.8,2.7934,2.7848,2.83,2.8578,2.8578,2.9075,2.9341,2.9261,2.9369,2.9369,2.9355,2.9338,2.9415,2.9557,2.8851,2.8901,2.9495,2.9049,2.8872,2.8853,2.894,2.894,2.8952,2.9264,2.9587,2.9975,3.0713,3.0926,3.0882,3.1182,3.1389,3.1519,3.1632,3.169,3.173,3.1747,3.1673,3.172,3.2242,3.2071,3.1899,3.2695,3.2446,3.2246,3.3103,3.3629,3.3788,3.3405,3.374,3.3776,3.2667,3.2507,3.2557,3.2658,3.2607,3.2607,3.2706,3.2722,3.2804,3.3062,3.3028,3.2948,3.2818,3.3145,3.3049,3.2267,3.2509,3.2506,3.2054,3.2055,3.2214,3.249,3.2556,3.2622,3.269,3.2821,3.295,3.3042,3.3135,3.3259,3.3393,3.3393,3.368,3.4101,3.3708,3.3935,3.4545,3.4654,3.4684,3.4623,3.4787,3.4631,3.4338,3.4241,3.4363,3.4626]}]]